<?xml version="1.0" encoding="UTF-8" standalone="no" ?>
<gpx xmlns="http://www.topografix.com/GPX/1/1" xmlns:xsi="http://www.w3.org/2001/XMLSchema-instance" xsi:schemaLocation="http://www.topografix.com/GPX/1/1 http://www.topografix.com/GPX/1/1/gpx.xsd" version="1.1" creator="VisuGPX - https://www.visugpx.com">
  <metadata>
    <name>Bec CHarvet - Pravouta - Prairie</name>
    <desc><![CDATA[
]]></desc>
  </metadata>
  <trk>
    <name><![CDATA[Bec CHarvet - Pravouta - Prairie_1]]></name>
    <extensions>
      <line xmlns="http://www.topografix.com/GPX/gpx_style/0/2">
        <color>0000FF</color>
        <width>4</width>
      </line>
    </extensions>
    <trkseg>
      <trkpt lat="45.29112" lon="5.84762">
        <ele>997.43798828125</ele>
        <time>2017-12-17T07:08:11Z</time>
      </trkpt>
      <trkpt lat="45.29108" lon="5.84748">
        <ele>1020.4379882812</ele>
        <time>2017-12-17T07:08:13Z</time>
      </trkpt>
      <trkpt lat="45.29107" lon="5.84755">
        <ele>1000.4379882812</ele>
        <time>2017-12-17T07:08:55Z</time>
      </trkpt>
      <trkpt lat="45.29109" lon="5.84749">
        <ele>1001.4379882812</ele>
        <time>2017-12-17T07:09:20Z</time>
      </trkpt>
      <trkpt lat="45.29105" lon="5.84742">
        <ele>999.43798828125</ele>
        <time>2017-12-17T07:09:32Z</time>
      </trkpt>
      <trkpt lat="45.29107" lon="5.84736">
        <ele>1002.4379882812</ele>
        <time>2017-12-17T07:09:36Z</time>
      </trkpt>
      <trkpt lat="45.29105" lon="5.84729">
        <ele>1004.4379882812</ele>
        <time>2017-12-17T07:09:50Z</time>
      </trkpt>
      <trkpt lat="45.29103" lon="5.84722">
        <ele>1007.4379882812</ele>
        <time>2017-12-17T07:09:54Z</time>
      </trkpt>
      <trkpt lat="45.291" lon="5.84715">
        <ele>1007.4370117188</ele>
        <time>2017-12-17T07:09:57Z</time>
      </trkpt>
      <trkpt lat="45.29099" lon="5.84708">
        <ele>1007.4370117188</ele>
        <time>2017-12-17T07:10:03Z</time>
      </trkpt>
      <trkpt lat="45.29098" lon="5.84702">
        <ele>1008.4370117188</ele>
        <time>2017-12-17T07:10:08Z</time>
      </trkpt>
      <trkpt lat="45.29101" lon="5.84696">
        <ele>1009.4370117188</ele>
        <time>2017-12-17T07:10:15Z</time>
      </trkpt>
      <trkpt lat="45.29105" lon="5.8469">
        <ele>1010.4370117188</ele>
        <time>2017-12-17T07:10:19Z</time>
      </trkpt>
      <trkpt lat="45.29109" lon="5.84687">
        <ele>1008.4370117188</ele>
        <time>2017-12-17T07:10:22Z</time>
      </trkpt>
      <trkpt lat="45.29113" lon="5.84683">
        <ele>1007.4370117188</ele>
        <time>2017-12-17T07:10:26Z</time>
      </trkpt>
      <trkpt lat="45.29112" lon="5.84676">
        <ele>1011.4370117188</ele>
        <time>2017-12-17T07:10:33Z</time>
      </trkpt>
      <trkpt lat="45.29109" lon="5.84671">
        <ele>1010.4370117188</ele>
        <time>2017-12-17T07:10:38Z</time>
      </trkpt>
      <trkpt lat="45.29106" lon="5.84665">
        <ele>1012.4370117188</ele>
        <time>2017-12-17T07:10:42Z</time>
      </trkpt>
      <trkpt lat="45.29104" lon="5.84659">
        <ele>1015.4370117188</ele>
        <time>2017-12-17T07:10:47Z</time>
      </trkpt>
      <trkpt lat="45.291" lon="5.84655">
        <ele>1015.4370117188</ele>
        <time>2017-12-17T07:10:52Z</time>
      </trkpt>
      <trkpt lat="45.29098" lon="5.84649">
        <ele>1014.4370117188</ele>
        <time>2017-12-17T07:10:58Z</time>
      </trkpt>
      <trkpt lat="45.29096" lon="5.84643">
        <ele>1015.4370117188</ele>
        <time>2017-12-17T07:11:03Z</time>
      </trkpt>
      <trkpt lat="45.29094" lon="5.84636">
        <ele>1016.4370117188</ele>
        <time>2017-12-17T07:11:08Z</time>
      </trkpt>
      <trkpt lat="45.29092" lon="5.8463">
        <ele>1017.4370117188</ele>
        <time>2017-12-17T07:11:13Z</time>
      </trkpt>
      <trkpt lat="45.29089" lon="5.84624">
        <ele>1019.4370117188</ele>
        <time>2017-12-17T07:11:18Z</time>
      </trkpt>
      <trkpt lat="45.29087" lon="5.84617">
        <ele>1022.4370117188</ele>
        <time>2017-12-17T07:11:24Z</time>
      </trkpt>
      <trkpt lat="45.29085" lon="5.84612">
        <ele>1023.4370117188</ele>
        <time>2017-12-17T07:11:31Z</time>
      </trkpt>
      <trkpt lat="45.2909" lon="5.84615">
        <ele>1024.4370117188</ele>
        <time>2017-12-17T07:11:39Z</time>
      </trkpt>
      <trkpt lat="45.29095" lon="5.84616">
        <ele>1023.4370117188</ele>
        <time>2017-12-17T07:11:43Z</time>
      </trkpt>
      <trkpt lat="45.291" lon="5.84619">
        <ele>1025.4370117188</ele>
        <time>2017-12-17T07:11:47Z</time>
      </trkpt>
      <trkpt lat="45.29105" lon="5.84622">
        <ele>1026.4370117188</ele>
        <time>2017-12-17T07:11:51Z</time>
      </trkpt>
      <trkpt lat="45.29111" lon="5.84623">
        <ele>1025.4370117188</ele>
        <time>2017-12-17T07:11:55Z</time>
      </trkpt>
      <trkpt lat="45.29116" lon="5.84623">
        <ele>1026.4370117188</ele>
        <time>2017-12-17T07:11:58Z</time>
      </trkpt>
      <trkpt lat="45.29121" lon="5.8462">
        <ele>1026.4370117188</ele>
        <time>2017-12-17T07:12:02Z</time>
      </trkpt>
      <trkpt lat="45.29125" lon="5.84617">
        <ele>1028.4370117188</ele>
        <time>2017-12-17T07:12:06Z</time>
      </trkpt>
      <trkpt lat="45.2913" lon="5.84613">
        <ele>1030.4370117188</ele>
        <time>2017-12-17T07:12:10Z</time>
      </trkpt>
      <trkpt lat="45.29135" lon="5.8461">
        <ele>1028.4370117188</ele>
        <time>2017-12-17T07:12:14Z</time>
      </trkpt>
      <trkpt lat="45.2914" lon="5.84608">
        <ele>1029.4370117188</ele>
        <time>2017-12-17T07:12:19Z</time>
      </trkpt>
      <trkpt lat="45.29141" lon="5.84598">
        <ele>1028.4370117188</ele>
        <time>2017-12-17T07:12:23Z</time>
      </trkpt>
      <trkpt lat="45.29142" lon="5.8459">
        <ele>1028.4370117188</ele>
        <time>2017-12-17T07:12:26Z</time>
      </trkpt>
      <trkpt lat="45.29146" lon="5.84584">
        <ele>1027.4370117188</ele>
        <time>2017-12-17T07:12:28Z</time>
      </trkpt>
      <trkpt lat="45.29149" lon="5.84578">
        <ele>1027.4370117188</ele>
        <time>2017-12-17T07:12:33Z</time>
      </trkpt>
      <trkpt lat="45.29152" lon="5.84573">
        <ele>1027.4370117188</ele>
        <time>2017-12-17T07:12:37Z</time>
      </trkpt>
      <trkpt lat="45.29157" lon="5.8457">
        <ele>1029.4370117188</ele>
        <time>2017-12-17T07:12:41Z</time>
      </trkpt>
      <trkpt lat="45.29161" lon="5.84569">
        <ele>1030.4370117188</ele>
        <time>2017-12-17T07:12:45Z</time>
      </trkpt>
      <trkpt lat="45.29165" lon="5.84564">
        <ele>1032.4370117188</ele>
        <time>2017-12-17T07:12:50Z</time>
      </trkpt>
      <trkpt lat="45.29167" lon="5.84559">
        <ele>1033.4370117188</ele>
        <time>2017-12-17T07:12:57Z</time>
      </trkpt>
      <trkpt lat="45.29172" lon="5.84558">
        <ele>1035.4370117188</ele>
        <time>2017-12-17T07:13:02Z</time>
      </trkpt>
      <trkpt lat="45.29178" lon="5.8456">
        <ele>1040.4370117188</ele>
        <time>2017-12-17T07:13:07Z</time>
      </trkpt>
      <trkpt lat="45.29184" lon="5.84558">
        <ele>1042.4370117188</ele>
        <time>2017-12-17T07:13:11Z</time>
      </trkpt>
      <trkpt lat="45.29188" lon="5.84559">
        <ele>1041.4370117188</ele>
        <time>2017-12-17T07:13:15Z</time>
      </trkpt>
      <trkpt lat="45.29192" lon="5.84564">
        <ele>1040.4370117188</ele>
        <time>2017-12-17T07:13:19Z</time>
      </trkpt>
      <trkpt lat="45.29197" lon="5.84566">
        <ele>1041.4370117188</ele>
        <time>2017-12-17T07:13:24Z</time>
      </trkpt>
      <trkpt lat="45.29199" lon="5.8456">
        <ele>1040.4370117188</ele>
        <time>2017-12-17T07:13:30Z</time>
      </trkpt>
      <trkpt lat="45.29197" lon="5.84553">
        <ele>1039.4370117188</ele>
        <time>2017-12-17T07:13:37Z</time>
      </trkpt>
      <trkpt lat="45.29194" lon="5.84548">
        <ele>1039.4370117188</ele>
        <time>2017-12-17T07:13:41Z</time>
      </trkpt>
      <trkpt lat="45.29194" lon="5.84541">
        <ele>1039.4370117188</ele>
        <time>2017-12-17T07:13:44Z</time>
      </trkpt>
      <trkpt lat="45.29196" lon="5.84534">
        <ele>1040.4370117188</ele>
        <time>2017-12-17T07:13:54Z</time>
      </trkpt>
      <trkpt lat="45.29198" lon="5.84528">
        <ele>1039.4370117188</ele>
        <time>2017-12-17T07:13:56Z</time>
      </trkpt>
      <trkpt lat="45.292" lon="5.84522">
        <ele>1041.4370117188</ele>
        <time>2017-12-17T07:14:00Z</time>
      </trkpt>
      <trkpt lat="45.29202" lon="5.84515">
        <ele>1041.4370117188</ele>
        <time>2017-12-17T07:14:05Z</time>
      </trkpt>
      <trkpt lat="45.29205" lon="5.84509">
        <ele>1042.4370117188</ele>
        <time>2017-12-17T07:14:08Z</time>
      </trkpt>
      <trkpt lat="45.29208" lon="5.84503">
        <ele>1044.4370117188</ele>
        <time>2017-12-17T07:14:12Z</time>
      </trkpt>
      <trkpt lat="45.29212" lon="5.84498">
        <ele>1044.4370117188</ele>
        <time>2017-12-17T07:14:16Z</time>
      </trkpt>
      <trkpt lat="45.29213" lon="5.84491">
        <ele>1046.4370117188</ele>
        <time>2017-12-17T07:14:20Z</time>
      </trkpt>
      <trkpt lat="45.29215" lon="5.84485">
        <ele>1047.4370117188</ele>
        <time>2017-12-17T07:14:24Z</time>
      </trkpt>
      <trkpt lat="45.29218" lon="5.8448">
        <ele>1047.4370117188</ele>
        <time>2017-12-17T07:14:27Z</time>
      </trkpt>
      <trkpt lat="45.29219" lon="5.84474">
        <ele>1049.4370117188</ele>
        <time>2017-12-17T07:14:44Z</time>
      </trkpt>
      <trkpt lat="45.29222" lon="5.84466">
        <ele>1048.4370117188</ele>
        <time>2017-12-17T07:14:47Z</time>
      </trkpt>
      <trkpt lat="45.29224" lon="5.84458">
        <ele>1050.4370117188</ele>
        <time>2017-12-17T07:14:54Z</time>
      </trkpt>
      <trkpt lat="45.29227" lon="5.84452">
        <ele>1050.4370117188</ele>
        <time>2017-12-17T07:14:57Z</time>
      </trkpt>
      <trkpt lat="45.2923" lon="5.84446">
        <ele>1052.4370117188</ele>
        <time>2017-12-17T07:15:01Z</time>
      </trkpt>
      <trkpt lat="45.29233" lon="5.84441">
        <ele>1052.4370117188</ele>
        <time>2017-12-17T07:15:05Z</time>
      </trkpt>
      <trkpt lat="45.29236" lon="5.84435">
        <ele>1053.4370117188</ele>
        <time>2017-12-17T07:15:08Z</time>
      </trkpt>
      <trkpt lat="45.29236" lon="5.84427">
        <ele>1055.4370117188</ele>
        <time>2017-12-17T07:15:16Z</time>
      </trkpt>
      <trkpt lat="45.29239" lon="5.84419">
        <ele>1056.4370117188</ele>
        <time>2017-12-17T07:15:21Z</time>
      </trkpt>
      <trkpt lat="45.29242" lon="5.84412">
        <ele>1059.4370117188</ele>
        <time>2017-12-17T07:15:27Z</time>
      </trkpt>
      <trkpt lat="45.29243" lon="5.84405">
        <ele>1060.4370117188</ele>
        <time>2017-12-17T07:15:31Z</time>
      </trkpt>
      <trkpt lat="45.29245" lon="5.84399">
        <ele>1060.4370117188</ele>
        <time>2017-12-17T07:15:39Z</time>
      </trkpt>
      <trkpt lat="45.29248" lon="5.84393">
        <ele>1063.4370117188</ele>
        <time>2017-12-17T07:15:44Z</time>
      </trkpt>
      <trkpt lat="45.29252" lon="5.84388">
        <ele>1062.4370117188</ele>
        <time>2017-12-17T07:15:49Z</time>
      </trkpt>
      <trkpt lat="45.29255" lon="5.84383">
        <ele>1064.4370117188</ele>
        <time>2017-12-17T07:15:55Z</time>
      </trkpt>
      <trkpt lat="45.29261" lon="5.84381">
        <ele>1065.4370117188</ele>
        <time>2017-12-17T07:16:02Z</time>
      </trkpt>
      <trkpt lat="45.29266" lon="5.84378">
        <ele>1067.4370117188</ele>
        <time>2017-12-17T07:16:08Z</time>
      </trkpt>
      <trkpt lat="45.2927" lon="5.84372">
        <ele>1064.4370117188</ele>
        <time>2017-12-17T07:16:13Z</time>
      </trkpt>
      <trkpt lat="45.29274" lon="5.84369">
        <ele>1064.4370117188</ele>
        <time>2017-12-17T07:16:16Z</time>
      </trkpt>
      <trkpt lat="45.29278" lon="5.84364">
        <ele>1068.4370117188</ele>
        <time>2017-12-17T07:16:23Z</time>
      </trkpt>
      <trkpt lat="45.29276" lon="5.84358">
        <ele>1070.4370117188</ele>
        <time>2017-12-17T07:16:50Z</time>
      </trkpt>
      <trkpt lat="45.29271" lon="5.84357">
        <ele>1071.4370117188</ele>
        <time>2017-12-17T07:16:56Z</time>
      </trkpt>
      <trkpt lat="45.29275" lon="5.84352">
        <ele>1070.4370117188</ele>
        <time>2017-12-17T07:17:07Z</time>
      </trkpt>
      <trkpt lat="45.29279" lon="5.84347">
        <ele>1071.4370117188</ele>
        <time>2017-12-17T07:17:12Z</time>
      </trkpt>
      <trkpt lat="45.29284" lon="5.84345">
        <ele>1074.4370117188</ele>
        <time>2017-12-17T07:17:17Z</time>
      </trkpt>
      <trkpt lat="45.29287" lon="5.84341">
        <ele>1075.4370117188</ele>
        <time>2017-12-17T07:17:25Z</time>
      </trkpt>
      <trkpt lat="45.29291" lon="5.84338">
        <ele>1077.4370117188</ele>
        <time>2017-12-17T07:17:30Z</time>
      </trkpt>
      <trkpt lat="45.29294" lon="5.84332">
        <ele>1083.4370117188</ele>
        <time>2017-12-17T07:17:38Z</time>
      </trkpt>
      <trkpt lat="45.29296" lon="5.84327">
        <ele>1089.4370117188</ele>
        <time>2017-12-17T07:17:44Z</time>
      </trkpt>
      <trkpt lat="45.29299" lon="5.84321">
        <ele>1090.4370117188</ele>
        <time>2017-12-17T07:17:48Z</time>
      </trkpt>
      <trkpt lat="45.29301" lon="5.84314">
        <ele>1089.4370117188</ele>
        <time>2017-12-17T07:17:55Z</time>
      </trkpt>
      <trkpt lat="45.29305" lon="5.84309">
        <ele>1092.4370117188</ele>
        <time>2017-12-17T07:18:01Z</time>
      </trkpt>
      <trkpt lat="45.29307" lon="5.84302">
        <ele>1091.4370117188</ele>
        <time>2017-12-17T07:18:07Z</time>
      </trkpt>
      <trkpt lat="45.29305" lon="5.84296">
        <ele>1092.4370117188</ele>
        <time>2017-12-17T07:18:14Z</time>
      </trkpt>
      <trkpt lat="45.29301" lon="5.84292">
        <ele>1093.4370117188</ele>
        <time>2017-12-17T07:18:18Z</time>
      </trkpt>
      <trkpt lat="45.29297" lon="5.84289">
        <ele>1092.4370117188</ele>
        <time>2017-12-17T07:18:23Z</time>
      </trkpt>
      <trkpt lat="45.29293" lon="5.84283">
        <ele>1093.4370117188</ele>
        <time>2017-12-17T07:18:29Z</time>
      </trkpt>
      <trkpt lat="45.29288" lon="5.84281">
        <ele>1094.4370117188</ele>
        <time>2017-12-17T07:18:35Z</time>
      </trkpt>
      <trkpt lat="45.29286" lon="5.84275">
        <ele>1095.4370117188</ele>
        <time>2017-12-17T07:18:41Z</time>
      </trkpt>
      <trkpt lat="45.29285" lon="5.84268">
        <ele>1096.4370117188</ele>
        <time>2017-12-17T07:18:46Z</time>
      </trkpt>
      <trkpt lat="45.29284" lon="5.84261">
        <ele>1097.4370117188</ele>
        <time>2017-12-17T07:18:53Z</time>
      </trkpt>
      <trkpt lat="45.29286" lon="5.84254">
        <ele>1085.4370117188</ele>
        <time>2017-12-17T07:18:59Z</time>
      </trkpt>
      <trkpt lat="45.29304" lon="5.84245">
        <ele>1108.4370117188</ele>
        <time>2017-12-17T07:19:46Z</time>
      </trkpt>
      <trkpt lat="45.29296" lon="5.84235">
        <ele>1104.4370117188</ele>
        <time>2017-12-17T07:19:47Z</time>
      </trkpt>
      <trkpt lat="45.29301" lon="5.8423">
        <ele>1111.4370117188</ele>
        <time>2017-12-17T07:19:48Z</time>
      </trkpt>
      <trkpt lat="45.29306" lon="5.84225">
        <ele>1123.4370117188</ele>
        <time>2017-12-17T07:19:50Z</time>
      </trkpt>
      <trkpt lat="45.29313" lon="5.84224">
        <ele>1124.4370117188</ele>
        <time>2017-12-17T07:19:53Z</time>
      </trkpt>
      <trkpt lat="45.29318" lon="5.84223">
        <ele>1125.4370117188</ele>
        <time>2017-12-17T07:19:56Z</time>
      </trkpt>
      <trkpt lat="45.29322" lon="5.84219">
        <ele>1122.4370117188</ele>
        <time>2017-12-17T07:19:59Z</time>
      </trkpt>
      <trkpt lat="45.29328" lon="5.84221">
        <ele>1124.4370117188</ele>
        <time>2017-12-17T07:20:02Z</time>
      </trkpt>
      <trkpt lat="45.29333" lon="5.84224">
        <ele>1125.4370117188</ele>
        <time>2017-12-17T07:20:05Z</time>
      </trkpt>
      <trkpt lat="45.29338" lon="5.84225">
        <ele>1125.4370117188</ele>
        <time>2017-12-17T07:20:08Z</time>
      </trkpt>
      <trkpt lat="45.29342" lon="5.84224">
        <ele>1123.4370117188</ele>
        <time>2017-12-17T07:20:10Z</time>
      </trkpt>
      <trkpt lat="45.29347" lon="5.84227">
        <ele>1129.4370117188</ele>
        <time>2017-12-17T07:20:16Z</time>
      </trkpt>
      <trkpt lat="45.29353" lon="5.84229">
        <ele>1130.4370117188</ele>
        <time>2017-12-17T07:20:19Z</time>
      </trkpt>
      <trkpt lat="45.29358" lon="5.8423">
        <ele>1128.4370117188</ele>
        <time>2017-12-17T07:20:22Z</time>
      </trkpt>
      <trkpt lat="45.29362" lon="5.84233">
        <ele>1132.4370117188</ele>
        <time>2017-12-17T07:20:26Z</time>
      </trkpt>
      <trkpt lat="45.29366" lon="5.84229">
        <ele>1131.4370117188</ele>
        <time>2017-12-17T07:20:30Z</time>
      </trkpt>
      <trkpt lat="45.29372" lon="5.8423">
        <ele>1133.4370117188</ele>
        <time>2017-12-17T07:20:37Z</time>
      </trkpt>
      <trkpt lat="45.29378" lon="5.84232">
        <ele>1137.4370117188</ele>
        <time>2017-12-17T07:20:41Z</time>
      </trkpt>
      <trkpt lat="45.29384" lon="5.84231">
        <ele>1137.4370117188</ele>
        <time>2017-12-17T07:20:45Z</time>
      </trkpt>
      <trkpt lat="45.29387" lon="5.84236">
        <ele>1136.4370117188</ele>
        <time>2017-12-17T07:20:49Z</time>
      </trkpt>
      <trkpt lat="45.29391" lon="5.84241">
        <ele>1136.4370117188</ele>
        <time>2017-12-17T07:20:53Z</time>
      </trkpt>
      <trkpt lat="45.29396" lon="5.8424">
        <ele>1128.4370117188</ele>
        <time>2017-12-17T07:20:57Z</time>
      </trkpt>
      <trkpt lat="45.29401" lon="5.84236">
        <ele>1129.4370117188</ele>
        <time>2017-12-17T07:21:00Z</time>
      </trkpt>
      <trkpt lat="45.29406" lon="5.84236">
        <ele>1133.4370117188</ele>
        <time>2017-12-17T07:21:06Z</time>
      </trkpt>
      <trkpt lat="45.2941" lon="5.84232">
        <ele>1129.4370117188</ele>
        <time>2017-12-17T07:21:09Z</time>
      </trkpt>
      <trkpt lat="45.29416" lon="5.84232">
        <ele>1126.4370117188</ele>
        <time>2017-12-17T07:21:14Z</time>
      </trkpt>
      <trkpt lat="45.29421" lon="5.84233">
        <ele>1127.4379882812</ele>
        <time>2017-12-17T07:21:18Z</time>
      </trkpt>
      <trkpt lat="45.29425" lon="5.84235">
        <ele>1132.4379882812</ele>
        <time>2017-12-17T07:21:21Z</time>
      </trkpt>
      <trkpt lat="45.2943" lon="5.84236">
        <ele>1132.4379882812</ele>
        <time>2017-12-17T07:21:26Z</time>
      </trkpt>
      <trkpt lat="45.29435" lon="5.84235">
        <ele>1129.4379882812</ele>
        <time>2017-12-17T07:21:30Z</time>
      </trkpt>
      <trkpt lat="45.2944" lon="5.84233">
        <ele>1129.4379882812</ele>
        <time>2017-12-17T07:21:33Z</time>
      </trkpt>
      <trkpt lat="45.29442" lon="5.8424">
        <ele>1131.4379882812</ele>
        <time>2017-12-17T07:21:40Z</time>
      </trkpt>
      <trkpt lat="45.29447" lon="5.84241">
        <ele>1129.4379882812</ele>
        <time>2017-12-17T07:21:44Z</time>
      </trkpt>
      <trkpt lat="45.29451" lon="5.84242">
        <ele>1129.4379882812</ele>
        <time>2017-12-17T07:21:48Z</time>
      </trkpt>
      <trkpt lat="45.29457" lon="5.84238">
        <ele>1130.4379882812</ele>
        <time>2017-12-17T07:21:58Z</time>
      </trkpt>
      <trkpt lat="45.29461" lon="5.84238">
        <ele>1137.4379882812</ele>
        <time>2017-12-17T07:22:05Z</time>
      </trkpt>
      <trkpt lat="45.29466" lon="5.84238">
        <ele>1138.4379882812</ele>
        <time>2017-12-17T07:22:09Z</time>
      </trkpt>
      <trkpt lat="45.2947" lon="5.8424">
        <ele>1142.4379882812</ele>
        <time>2017-12-17T07:22:19Z</time>
      </trkpt>
      <trkpt lat="45.29475" lon="5.84236">
        <ele>1141.4379882812</ele>
        <time>2017-12-17T07:22:22Z</time>
      </trkpt>
      <trkpt lat="45.29478" lon="5.84243">
        <ele>1143.4379882812</ele>
        <time>2017-12-17T07:22:31Z</time>
      </trkpt>
      <trkpt lat="45.29483" lon="5.84243">
        <ele>1145.4379882812</ele>
        <time>2017-12-17T07:22:37Z</time>
      </trkpt>
      <trkpt lat="45.29489" lon="5.84245">
        <ele>1146.4379882812</ele>
        <time>2017-12-17T07:22:44Z</time>
      </trkpt>
      <trkpt lat="45.29495" lon="5.84244">
        <ele>1145.4379882812</ele>
        <time>2017-12-17T07:22:50Z</time>
      </trkpt>
      <trkpt lat="45.295" lon="5.84244">
        <ele>1154.4379882812</ele>
        <time>2017-12-17T07:23:05Z</time>
      </trkpt>
      <trkpt lat="45.29504" lon="5.84245">
        <ele>1152.4379882812</ele>
        <time>2017-12-17T07:23:08Z</time>
      </trkpt>
      <trkpt lat="45.29509" lon="5.84246">
        <ele>1153.4379882812</ele>
        <time>2017-12-17T07:23:13Z</time>
      </trkpt>
      <trkpt lat="45.29514" lon="5.84245">
        <ele>1152.4379882812</ele>
        <time>2017-12-17T07:23:18Z</time>
      </trkpt>
      <trkpt lat="45.29519" lon="5.84243">
        <ele>1152.4379882812</ele>
        <time>2017-12-17T07:23:23Z</time>
      </trkpt>
      <trkpt lat="45.29523" lon="5.84244">
        <ele>1153.4379882812</ele>
        <time>2017-12-17T07:23:27Z</time>
      </trkpt>
      <trkpt lat="45.29528" lon="5.84247">
        <ele>1153.4379882812</ele>
        <time>2017-12-17T07:23:32Z</time>
      </trkpt>
      <trkpt lat="45.29533" lon="5.84246">
        <ele>1155.4379882812</ele>
        <time>2017-12-17T07:23:36Z</time>
      </trkpt>
      <trkpt lat="45.29537" lon="5.84251">
        <ele>1158.4379882812</ele>
        <time>2017-12-17T07:23:41Z</time>
      </trkpt>
      <trkpt lat="45.29541" lon="5.84247">
        <ele>1160.4379882812</ele>
        <time>2017-12-17T07:23:47Z</time>
      </trkpt>
      <trkpt lat="45.29543" lon="5.84241">
        <ele>1159.4379882812</ele>
        <time>2017-12-17T07:23:52Z</time>
      </trkpt>
      <trkpt lat="45.29548" lon="5.8424">
        <ele>1161.4379882812</ele>
        <time>2017-12-17T07:23:57Z</time>
      </trkpt>
      <trkpt lat="45.29553" lon="5.8424">
        <ele>1161.4379882812</ele>
        <time>2017-12-17T07:24:03Z</time>
      </trkpt>
      <trkpt lat="45.29556" lon="5.84235">
        <ele>1160.4379882812</ele>
        <time>2017-12-17T07:24:08Z</time>
      </trkpt>
      <trkpt lat="45.2956" lon="5.84239">
        <ele>1163.4379882812</ele>
        <time>2017-12-17T07:24:16Z</time>
      </trkpt>
      <trkpt lat="45.29564" lon="5.84241">
        <ele>1167.4379882812</ele>
        <time>2017-12-17T07:24:23Z</time>
      </trkpt>
      <trkpt lat="45.29567" lon="5.84246">
        <ele>1168.4379882812</ele>
        <time>2017-12-17T07:24:29Z</time>
      </trkpt>
      <trkpt lat="45.2957" lon="5.84252">
        <ele>1166.4379882812</ele>
        <time>2017-12-17T07:24:45Z</time>
      </trkpt>
      <trkpt lat="45.29574" lon="5.84255">
        <ele>1169.4379882812</ele>
        <time>2017-12-17T07:27:13Z</time>
      </trkpt>
      <trkpt lat="45.29578" lon="5.8425">
        <ele>1168.4379882812</ele>
        <time>2017-12-17T07:27:19Z</time>
      </trkpt>
      <trkpt lat="45.29582" lon="5.84246">
        <ele>1167.4379882812</ele>
        <time>2017-12-17T07:27:23Z</time>
      </trkpt>
      <trkpt lat="45.29585" lon="5.84241">
        <ele>1169.4379882812</ele>
        <time>2017-12-17T07:27:29Z</time>
      </trkpt>
      <trkpt lat="45.29587" lon="5.84247">
        <ele>1171.4379882812</ele>
        <time>2017-12-17T07:27:36Z</time>
      </trkpt>
      <trkpt lat="45.2959" lon="5.84252">
        <ele>1174.4379882812</ele>
        <time>2017-12-17T07:27:43Z</time>
      </trkpt>
      <trkpt lat="45.29594" lon="5.84255">
        <ele>1175.4379882812</ele>
        <time>2017-12-17T07:27:49Z</time>
      </trkpt>
      <trkpt lat="45.29598" lon="5.84251">
        <ele>1177.4379882812</ele>
        <time>2017-12-17T07:28:04Z</time>
      </trkpt>
      <trkpt lat="45.29602" lon="5.84247">
        <ele>1178.4379882812</ele>
        <time>2017-12-17T07:28:10Z</time>
      </trkpt>
      <trkpt lat="45.29608" lon="5.84246">
        <ele>1181.4379882812</ele>
        <time>2017-12-17T07:28:16Z</time>
      </trkpt>
      <trkpt lat="45.29613" lon="5.84246">
        <ele>1181.4379882812</ele>
        <time>2017-12-17T07:28:20Z</time>
      </trkpt>
      <trkpt lat="45.29618" lon="5.84248">
        <ele>1183.4379882812</ele>
        <time>2017-12-17T07:28:25Z</time>
      </trkpt>
      <trkpt lat="45.29623" lon="5.84252">
        <ele>1184.4379882812</ele>
        <time>2017-12-17T07:28:30Z</time>
      </trkpt>
      <trkpt lat="45.29628" lon="5.84254">
        <ele>1188.4379882812</ele>
        <time>2017-12-17T07:28:36Z</time>
      </trkpt>
      <trkpt lat="45.29633" lon="5.84256">
        <ele>1189.4379882812</ele>
        <time>2017-12-17T07:28:44Z</time>
      </trkpt>
      <trkpt lat="45.29637" lon="5.84258">
        <ele>1192.4379882812</ele>
        <time>2017-12-17T07:28:50Z</time>
      </trkpt>
      <trkpt lat="45.29641" lon="5.84259">
        <ele>1195.4379882812</ele>
        <time>2017-12-17T07:28:57Z</time>
      </trkpt>
      <trkpt lat="45.29647" lon="5.84259">
        <ele>1195.4379882812</ele>
        <time>2017-12-17T07:29:02Z</time>
      </trkpt>
      <trkpt lat="45.29652" lon="5.84259">
        <ele>1196.4379882812</ele>
        <time>2017-12-17T07:29:07Z</time>
      </trkpt>
      <trkpt lat="45.29656" lon="5.84262">
        <ele>1197.4379882812</ele>
        <time>2017-12-17T07:29:13Z</time>
      </trkpt>
      <trkpt lat="45.29661" lon="5.84265">
        <ele>1197.4379882812</ele>
        <time>2017-12-17T07:29:17Z</time>
      </trkpt>
      <trkpt lat="45.29666" lon="5.84266">
        <ele>1196.4379882812</ele>
        <time>2017-12-17T07:29:21Z</time>
      </trkpt>
      <trkpt lat="45.29671" lon="5.84265">
        <ele>1199.4379882812</ele>
        <time>2017-12-17T07:29:29Z</time>
      </trkpt>
      <trkpt lat="45.29674" lon="5.8426">
        <ele>1197.4379882812</ele>
        <time>2017-12-17T07:29:37Z</time>
      </trkpt>
      <trkpt lat="45.29676" lon="5.84253">
        <ele>1196.4379882812</ele>
        <time>2017-12-17T07:29:41Z</time>
      </trkpt>
      <trkpt lat="45.29677" lon="5.84245">
        <ele>1195.4379882812</ele>
        <time>2017-12-17T07:29:46Z</time>
      </trkpt>
      <trkpt lat="45.29677" lon="5.84238">
        <ele>1196.4379882812</ele>
        <time>2017-12-17T07:29:50Z</time>
      </trkpt>
      <trkpt lat="45.29678" lon="5.84231">
        <ele>1195.4379882812</ele>
        <time>2017-12-17T07:29:55Z</time>
      </trkpt>
      <trkpt lat="45.29682" lon="5.84226">
        <ele>1195.4379882812</ele>
        <time>2017-12-17T07:29:59Z</time>
      </trkpt>
      <trkpt lat="45.29687" lon="5.84225">
        <ele>1197.4379882812</ele>
        <time>2017-12-17T07:30:03Z</time>
      </trkpt>
      <trkpt lat="45.29693" lon="5.84221">
        <ele>1197.4379882812</ele>
        <time>2017-12-17T07:30:07Z</time>
      </trkpt>
      <trkpt lat="45.29697" lon="5.84221">
        <ele>1201.4379882812</ele>
        <time>2017-12-17T07:30:12Z</time>
      </trkpt>
      <trkpt lat="45.29702" lon="5.84219">
        <ele>1204.4379882812</ele>
        <time>2017-12-17T07:30:18Z</time>
      </trkpt>
      <trkpt lat="45.29707" lon="5.84216">
        <ele>1205.4379882812</ele>
        <time>2017-12-17T07:30:23Z</time>
      </trkpt>
      <trkpt lat="45.29711" lon="5.84214">
        <ele>1206.4379882812</ele>
        <time>2017-12-17T07:30:28Z</time>
      </trkpt>
      <trkpt lat="45.29713" lon="5.84208">
        <ele>1204.4379882812</ele>
        <time>2017-12-17T07:30:32Z</time>
      </trkpt>
      <trkpt lat="45.29713" lon="5.842">
        <ele>1203.4379882812</ele>
        <time>2017-12-17T07:30:36Z</time>
      </trkpt>
      <trkpt lat="45.29713" lon="5.84194">
        <ele>1202.4379882812</ele>
        <time>2017-12-17T07:30:40Z</time>
      </trkpt>
      <trkpt lat="45.29712" lon="5.84187">
        <ele>1203.4379882812</ele>
        <time>2017-12-17T07:30:49Z</time>
      </trkpt>
      <trkpt lat="45.29717" lon="5.84185">
        <ele>1214.4379882812</ele>
        <time>2017-12-17T07:31:15Z</time>
      </trkpt>
      <trkpt lat="45.29721" lon="5.84187">
        <ele>1216.4379882812</ele>
        <time>2017-12-17T07:31:20Z</time>
      </trkpt>
      <trkpt lat="45.29726" lon="5.84188">
        <ele>1214.4379882812</ele>
        <time>2017-12-17T07:31:23Z</time>
      </trkpt>
      <trkpt lat="45.29731" lon="5.8419">
        <ele>1212.4379882812</ele>
        <time>2017-12-17T07:31:27Z</time>
      </trkpt>
      <trkpt lat="45.29736" lon="5.84191">
        <ele>1210.4379882812</ele>
        <time>2017-12-17T07:31:30Z</time>
      </trkpt>
      <trkpt lat="45.2974" lon="5.8419">
        <ele>1209.4379882812</ele>
        <time>2017-12-17T07:31:34Z</time>
      </trkpt>
      <trkpt lat="45.29745" lon="5.8419">
        <ele>1211.4379882812</ele>
        <time>2017-12-17T07:31:39Z</time>
      </trkpt>
      <trkpt lat="45.2975" lon="5.8419">
        <ele>1213.4379882812</ele>
        <time>2017-12-17T07:31:44Z</time>
      </trkpt>
      <trkpt lat="45.29755" lon="5.84187">
        <ele>1216.4379882812</ele>
        <time>2017-12-17T07:31:48Z</time>
      </trkpt>
      <trkpt lat="45.2976" lon="5.84187">
        <ele>1218.4379882812</ele>
        <time>2017-12-17T07:31:52Z</time>
      </trkpt>
      <trkpt lat="45.29764" lon="5.84191">
        <ele>1216.4379882812</ele>
        <time>2017-12-17T07:31:56Z</time>
      </trkpt>
      <trkpt lat="45.2977" lon="5.84193">
        <ele>1216.4379882812</ele>
        <time>2017-12-17T07:32:00Z</time>
      </trkpt>
      <trkpt lat="45.29773" lon="5.84199">
        <ele>1216.4379882812</ele>
        <time>2017-12-17T07:32:04Z</time>
      </trkpt>
      <trkpt lat="45.29776" lon="5.84206">
        <ele>1214.4379882812</ele>
        <time>2017-12-17T07:32:08Z</time>
      </trkpt>
      <trkpt lat="45.29778" lon="5.84214">
        <ele>1214.4379882812</ele>
        <time>2017-12-17T07:32:12Z</time>
      </trkpt>
      <trkpt lat="45.2978" lon="5.8422">
        <ele>1216.4379882812</ele>
        <time>2017-12-17T07:32:17Z</time>
      </trkpt>
      <trkpt lat="45.29781" lon="5.84227">
        <ele>1216.4379882812</ele>
        <time>2017-12-17T07:32:21Z</time>
      </trkpt>
      <trkpt lat="45.29786" lon="5.84229">
        <ele>1218.4379882812</ele>
        <time>2017-12-17T07:32:25Z</time>
      </trkpt>
      <trkpt lat="45.2979" lon="5.84227">
        <ele>1217.4379882812</ele>
        <time>2017-12-17T07:32:28Z</time>
      </trkpt>
      <trkpt lat="45.29796" lon="5.84227">
        <ele>1218.4379882812</ele>
        <time>2017-12-17T07:32:33Z</time>
      </trkpt>
      <trkpt lat="45.29802" lon="5.84226">
        <ele>1218.4379882812</ele>
        <time>2017-12-17T07:32:37Z</time>
      </trkpt>
      <trkpt lat="45.29804" lon="5.8422">
        <ele>1222.4379882812</ele>
        <time>2017-12-17T07:32:46Z</time>
      </trkpt>
      <trkpt lat="45.29804" lon="5.84212">
        <ele>1225.4379882812</ele>
        <time>2017-12-17T07:32:51Z</time>
      </trkpt>
      <trkpt lat="45.29806" lon="5.84207">
        <ele>1225.4379882812</ele>
        <time>2017-12-17T07:32:55Z</time>
      </trkpt>
      <trkpt lat="45.29809" lon="5.84202">
        <ele>1225.4379882812</ele>
        <time>2017-12-17T07:32:58Z</time>
      </trkpt>
      <trkpt lat="45.29813" lon="5.84195">
        <ele>1225.4379882812</ele>
        <time>2017-12-17T07:33:03Z</time>
      </trkpt>
      <trkpt lat="45.29818" lon="5.84192">
        <ele>1227.4379882812</ele>
        <time>2017-12-17T07:33:11Z</time>
      </trkpt>
      <trkpt lat="45.29822" lon="5.84197">
        <ele>1231.4379882812</ele>
        <time>2017-12-17T07:33:17Z</time>
      </trkpt>
      <trkpt lat="45.29824" lon="5.84191">
        <ele>1233.4379882812</ele>
        <time>2017-12-17T07:33:26Z</time>
      </trkpt>
      <trkpt lat="45.29826" lon="5.84184">
        <ele>1232.4379882812</ele>
        <time>2017-12-17T07:33:30Z</time>
      </trkpt>
      <trkpt lat="45.2983" lon="5.8418">
        <ele>1235.4379882812</ele>
        <time>2017-12-17T07:33:37Z</time>
      </trkpt>
      <trkpt lat="45.29835" lon="5.84181">
        <ele>1235.4379882812</ele>
        <time>2017-12-17T07:33:42Z</time>
      </trkpt>
      <trkpt lat="45.29839" lon="5.84179">
        <ele>1238.4379882812</ele>
        <time>2017-12-17T07:33:49Z</time>
      </trkpt>
      <trkpt lat="45.29845" lon="5.8418">
        <ele>1241.4379882812</ele>
        <time>2017-12-17T07:33:57Z</time>
      </trkpt>
      <trkpt lat="45.29849" lon="5.84182">
        <ele>1240.4379882812</ele>
        <time>2017-12-17T07:34:01Z</time>
      </trkpt>
      <trkpt lat="45.29854" lon="5.84184">
        <ele>1239.4379882812</ele>
        <time>2017-12-17T07:34:06Z</time>
      </trkpt>
      <trkpt lat="45.29859" lon="5.84185">
        <ele>1240.4379882812</ele>
        <time>2017-12-17T07:34:11Z</time>
      </trkpt>
      <trkpt lat="45.29864" lon="5.84185">
        <ele>1242.4379882812</ele>
        <time>2017-12-17T07:34:16Z</time>
      </trkpt>
      <trkpt lat="45.29869" lon="5.84183">
        <ele>1243.4379882812</ele>
        <time>2017-12-17T07:34:20Z</time>
      </trkpt>
      <trkpt lat="45.29874" lon="5.84183">
        <ele>1243.4379882812</ele>
        <time>2017-12-17T07:34:24Z</time>
      </trkpt>
      <trkpt lat="45.29878" lon="5.84183">
        <ele>1244.4379882812</ele>
        <time>2017-12-17T07:34:29Z</time>
      </trkpt>
      <trkpt lat="45.29883" lon="5.84185">
        <ele>1245.4379882812</ele>
        <time>2017-12-17T07:34:33Z</time>
      </trkpt>
      <trkpt lat="45.29887" lon="5.84183">
        <ele>1247.4379882812</ele>
        <time>2017-12-17T07:34:38Z</time>
      </trkpt>
      <trkpt lat="45.29893" lon="5.84182">
        <ele>1250.4379882812</ele>
        <time>2017-12-17T07:34:59Z</time>
      </trkpt>
      <trkpt lat="45.29899" lon="5.8418">
        <ele>1250.4379882812</ele>
        <time>2017-12-17T07:35:02Z</time>
      </trkpt>
      <trkpt lat="45.29904" lon="5.84176">
        <ele>1251.4379882812</ele>
        <time>2017-12-17T07:35:05Z</time>
      </trkpt>
      <trkpt lat="45.29909" lon="5.84173">
        <ele>1252.4379882812</ele>
        <time>2017-12-17T07:35:08Z</time>
      </trkpt>
      <trkpt lat="45.29915" lon="5.84171">
        <ele>1254.4379882812</ele>
        <time>2017-12-17T07:35:12Z</time>
      </trkpt>
      <trkpt lat="45.29919" lon="5.84168">
        <ele>1253.4379882812</ele>
        <time>2017-12-17T07:35:15Z</time>
      </trkpt>
      <trkpt lat="45.29923" lon="5.84164">
        <ele>1256.4379882812</ele>
        <time>2017-12-17T07:35:20Z</time>
      </trkpt>
      <trkpt lat="45.29928" lon="5.8416">
        <ele>1260.4379882812</ele>
        <time>2017-12-17T07:35:26Z</time>
      </trkpt>
      <trkpt lat="45.29933" lon="5.84157">
        <ele>1261.4379882812</ele>
        <time>2017-12-17T07:35:31Z</time>
      </trkpt>
      <trkpt lat="45.29939" lon="5.84159">
        <ele>1262.4379882812</ele>
        <time>2017-12-17T07:35:35Z</time>
      </trkpt>
      <trkpt lat="45.29944" lon="5.84154">
        <ele>1264.4379882812</ele>
        <time>2017-12-17T07:35:41Z</time>
      </trkpt>
      <trkpt lat="45.29948" lon="5.8415">
        <ele>1263.4379882812</ele>
        <time>2017-12-17T07:35:44Z</time>
      </trkpt>
      <trkpt lat="45.29953" lon="5.84146">
        <ele>1263.4389648438</ele>
        <time>2017-12-17T07:35:52Z</time>
      </trkpt>
      <trkpt lat="45.29954" lon="5.84154">
        <ele>1262.4389648438</ele>
        <time>2017-12-17T07:35:55Z</time>
      </trkpt>
      <trkpt lat="45.2996" lon="5.84151">
        <ele>1262.4389648438</ele>
        <time>2017-12-17T07:35:59Z</time>
      </trkpt>
      <trkpt lat="45.29964" lon="5.84148">
        <ele>1262.4389648438</ele>
        <time>2017-12-17T07:36:05Z</time>
      </trkpt>
      <trkpt lat="45.29969" lon="5.84148">
        <ele>1260.4389648438</ele>
        <time>2017-12-17T07:36:07Z</time>
      </trkpt>
      <trkpt lat="45.29974" lon="5.84149">
        <ele>1264.4389648438</ele>
        <time>2017-12-17T07:36:11Z</time>
      </trkpt>
      <trkpt lat="45.29979" lon="5.84144">
        <ele>1266.4389648438</ele>
        <time>2017-12-17T07:36:15Z</time>
      </trkpt>
      <trkpt lat="45.29983" lon="5.84141">
        <ele>1266.4389648438</ele>
        <time>2017-12-17T07:36:18Z</time>
      </trkpt>
      <trkpt lat="45.29987" lon="5.84138">
        <ele>1267.4389648438</ele>
        <time>2017-12-17T07:36:23Z</time>
      </trkpt>
      <trkpt lat="45.29992" lon="5.84137">
        <ele>1267.4389648438</ele>
        <time>2017-12-17T07:36:26Z</time>
      </trkpt>
      <trkpt lat="45.29996" lon="5.84138">
        <ele>1269.4389648438</ele>
        <time>2017-12-17T07:36:33Z</time>
      </trkpt>
      <trkpt lat="45.30001" lon="5.84134">
        <ele>1273.4389648438</ele>
        <time>2017-12-17T07:36:42Z</time>
      </trkpt>
      <trkpt lat="45.30005" lon="5.84129">
        <ele>1273.4389648438</ele>
        <time>2017-12-17T07:36:55Z</time>
      </trkpt>
      <trkpt lat="45.30006" lon="5.84123">
        <ele>1270.4389648438</ele>
        <time>2017-12-17T07:36:57Z</time>
      </trkpt>
      <trkpt lat="45.30002" lon="5.84122">
        <ele>1272.4389648438</ele>
        <time>2017-12-17T07:37:00Z</time>
      </trkpt>
      <trkpt lat="45.29998" lon="5.84116">
        <ele>1273.4389648438</ele>
        <time>2017-12-17T07:37:04Z</time>
      </trkpt>
      <trkpt lat="45.29993" lon="5.84111">
        <ele>1273.4389648438</ele>
        <time>2017-12-17T07:37:07Z</time>
      </trkpt>
      <trkpt lat="45.2999" lon="5.84104">
        <ele>1269.4389648438</ele>
        <time>2017-12-17T07:37:11Z</time>
      </trkpt>
      <trkpt lat="45.29985" lon="5.841">
        <ele>1270.4389648438</ele>
        <time>2017-12-17T07:37:15Z</time>
      </trkpt>
      <trkpt lat="45.29982" lon="5.84094">
        <ele>1271.4379882812</ele>
        <time>2017-12-17T07:37:18Z</time>
      </trkpt>
      <trkpt lat="45.29977" lon="5.8409">
        <ele>1272.4379882812</ele>
        <time>2017-12-17T07:37:22Z</time>
      </trkpt>
      <trkpt lat="45.29973" lon="5.84088">
        <ele>1274.4379882812</ele>
        <time>2017-12-17T07:37:24Z</time>
      </trkpt>
      <trkpt lat="45.29968" lon="5.84084">
        <ele>1274.4379882812</ele>
        <time>2017-12-17T07:37:28Z</time>
      </trkpt>
      <trkpt lat="45.29965" lon="5.84079">
        <ele>1272.4379882812</ele>
        <time>2017-12-17T07:37:31Z</time>
      </trkpt>
      <trkpt lat="45.29962" lon="5.84073">
        <ele>1272.4379882812</ele>
        <time>2017-12-17T07:37:36Z</time>
      </trkpt>
      <trkpt lat="45.29962" lon="5.84066">
        <ele>1273.4379882812</ele>
        <time>2017-12-17T07:37:41Z</time>
      </trkpt>
      <trkpt lat="45.29967" lon="5.84066">
        <ele>1280.4379882812</ele>
        <time>2017-12-17T07:37:51Z</time>
      </trkpt>
      <trkpt lat="45.29972" lon="5.84067">
        <ele>1281.4379882812</ele>
        <time>2017-12-17T07:37:54Z</time>
      </trkpt>
      <trkpt lat="45.29976" lon="5.84071">
        <ele>1284.4379882812</ele>
        <time>2017-12-17T07:37:58Z</time>
      </trkpt>
      <trkpt lat="45.29981" lon="5.84074">
        <ele>1283.4379882812</ele>
        <time>2017-12-17T07:38:02Z</time>
      </trkpt>
      <trkpt lat="45.29986" lon="5.84075">
        <ele>1284.4379882812</ele>
        <time>2017-12-17T07:38:05Z</time>
      </trkpt>
      <trkpt lat="45.29991" lon="5.84077">
        <ele>1285.4379882812</ele>
        <time>2017-12-17T07:38:09Z</time>
      </trkpt>
      <trkpt lat="45.29996" lon="5.84078">
        <ele>1286.4379882812</ele>
        <time>2017-12-17T07:38:13Z</time>
      </trkpt>
      <trkpt lat="45.30001" lon="5.84079">
        <ele>1286.4389648438</ele>
        <time>2017-12-17T07:38:17Z</time>
      </trkpt>
      <trkpt lat="45.30005" lon="5.84081">
        <ele>1288.4389648438</ele>
        <time>2017-12-17T07:38:21Z</time>
      </trkpt>
      <trkpt lat="45.30011" lon="5.84081">
        <ele>1289.4389648438</ele>
        <time>2017-12-17T07:38:25Z</time>
      </trkpt>
      <trkpt lat="45.30016" lon="5.84083">
        <ele>1291.4389648438</ele>
        <time>2017-12-17T07:38:30Z</time>
      </trkpt>
      <trkpt lat="45.30021" lon="5.84082">
        <ele>1292.4389648438</ele>
        <time>2017-12-17T07:38:34Z</time>
      </trkpt>
      <trkpt lat="45.30027" lon="5.84081">
        <ele>1291.4389648438</ele>
        <time>2017-12-17T07:38:38Z</time>
      </trkpt>
      <trkpt lat="45.30033" lon="5.8408">
        <ele>1291.4389648438</ele>
        <time>2017-12-17T07:38:43Z</time>
      </trkpt>
      <trkpt lat="45.30039" lon="5.84081">
        <ele>1290.4389648438</ele>
        <time>2017-12-17T07:38:47Z</time>
      </trkpt>
      <trkpt lat="45.30044" lon="5.84078">
        <ele>1290.4389648438</ele>
        <time>2017-12-17T07:38:51Z</time>
      </trkpt>
      <trkpt lat="45.30049" lon="5.84077">
        <ele>1292.4389648438</ele>
        <time>2017-12-17T07:38:55Z</time>
      </trkpt>
      <trkpt lat="45.30053" lon="5.84074">
        <ele>1293.4389648438</ele>
        <time>2017-12-17T07:38:58Z</time>
      </trkpt>
      <trkpt lat="45.30058" lon="5.84075">
        <ele>1299.4389648438</ele>
        <time>2017-12-17T07:39:03Z</time>
      </trkpt>
      <trkpt lat="45.30062" lon="5.84081">
        <ele>1301.4389648438</ele>
        <time>2017-12-17T07:39:06Z</time>
      </trkpt>
      <trkpt lat="45.30067" lon="5.84077">
        <ele>1300.4389648438</ele>
        <time>2017-12-17T07:39:09Z</time>
      </trkpt>
      <trkpt lat="45.30071" lon="5.8408">
        <ele>1302.4389648438</ele>
        <time>2017-12-17T07:39:13Z</time>
      </trkpt>
      <trkpt lat="45.30078" lon="5.8408">
        <ele>1298.4389648438</ele>
        <time>2017-12-17T07:39:17Z</time>
      </trkpt>
      <trkpt lat="45.30083" lon="5.84076">
        <ele>1296.4389648438</ele>
        <time>2017-12-17T07:39:20Z</time>
      </trkpt>
      <trkpt lat="45.30088" lon="5.84078">
        <ele>1299.4389648438</ele>
        <time>2017-12-17T07:39:24Z</time>
      </trkpt>
      <trkpt lat="45.30094" lon="5.84078">
        <ele>1298.4389648438</ele>
        <time>2017-12-17T07:39:28Z</time>
      </trkpt>
      <trkpt lat="45.30099" lon="5.84079">
        <ele>1302.4389648438</ele>
        <time>2017-12-17T07:39:33Z</time>
      </trkpt>
      <trkpt lat="45.30105" lon="5.84076">
        <ele>1305.4389648438</ele>
        <time>2017-12-17T07:39:38Z</time>
      </trkpt>
      <trkpt lat="45.3011" lon="5.84076">
        <ele>1307.4389648438</ele>
        <time>2017-12-17T07:39:42Z</time>
      </trkpt>
      <trkpt lat="45.30115" lon="5.84075">
        <ele>1308.4389648438</ele>
        <time>2017-12-17T07:39:47Z</time>
      </trkpt>
      <trkpt lat="45.3012" lon="5.84074">
        <ele>1308.4389648438</ele>
        <time>2017-12-17T07:39:51Z</time>
      </trkpt>
      <trkpt lat="45.30124" lon="5.84071">
        <ele>1307.4389648438</ele>
        <time>2017-12-17T07:39:54Z</time>
      </trkpt>
      <trkpt lat="45.3013" lon="5.8407">
        <ele>1308.4389648438</ele>
        <time>2017-12-17T07:39:59Z</time>
      </trkpt>
      <trkpt lat="45.30136" lon="5.84066">
        <ele>1307.4389648438</ele>
        <time>2017-12-17T07:40:03Z</time>
      </trkpt>
      <trkpt lat="45.30141" lon="5.84066">
        <ele>1309.4389648438</ele>
        <time>2017-12-17T07:40:07Z</time>
      </trkpt>
      <trkpt lat="45.30146" lon="5.84063">
        <ele>1307.4389648438</ele>
        <time>2017-12-17T07:40:10Z</time>
      </trkpt>
      <trkpt lat="45.30151" lon="5.84063">
        <ele>1307.4389648438</ele>
        <time>2017-12-17T07:40:14Z</time>
      </trkpt>
      <trkpt lat="45.30156" lon="5.84061">
        <ele>1310.4389648438</ele>
        <time>2017-12-17T07:40:19Z</time>
      </trkpt>
      <trkpt lat="45.30161" lon="5.8406">
        <ele>1311.4389648438</ele>
        <time>2017-12-17T07:40:23Z</time>
      </trkpt>
      <trkpt lat="45.30166" lon="5.8406">
        <ele>1311.4389648438</ele>
        <time>2017-12-17T07:40:27Z</time>
      </trkpt>
      <trkpt lat="45.3017" lon="5.84055">
        <ele>1312.4389648438</ele>
        <time>2017-12-17T07:40:30Z</time>
      </trkpt>
      <trkpt lat="45.30175" lon="5.8405">
        <ele>1312.4389648438</ele>
        <time>2017-12-17T07:40:34Z</time>
      </trkpt>
      <trkpt lat="45.30179" lon="5.8405">
        <ele>1310.4389648438</ele>
        <time>2017-12-17T07:40:37Z</time>
      </trkpt>
      <trkpt lat="45.30184" lon="5.84052">
        <ele>1311.4389648438</ele>
        <time>2017-12-17T07:40:41Z</time>
      </trkpt>
      <trkpt lat="45.30189" lon="5.84053">
        <ele>1311.4389648438</ele>
        <time>2017-12-17T07:40:44Z</time>
      </trkpt>
      <trkpt lat="45.30194" lon="5.84056">
        <ele>1312.4389648438</ele>
        <time>2017-12-17T07:40:49Z</time>
      </trkpt>
      <trkpt lat="45.30199" lon="5.84058">
        <ele>1310.4389648438</ele>
        <time>2017-12-17T07:40:53Z</time>
      </trkpt>
      <trkpt lat="45.30202" lon="5.84064">
        <ele>1310.4389648438</ele>
        <time>2017-12-17T07:40:57Z</time>
      </trkpt>
      <trkpt lat="45.30204" lon="5.8407">
        <ele>1310.4389648438</ele>
        <time>2017-12-17T07:41:01Z</time>
      </trkpt>
      <trkpt lat="45.30206" lon="5.84076">
        <ele>1312.4389648438</ele>
        <time>2017-12-17T07:41:05Z</time>
      </trkpt>
      <trkpt lat="45.30208" lon="5.84085">
        <ele>1313.4389648438</ele>
        <time>2017-12-17T07:41:09Z</time>
      </trkpt>
      <trkpt lat="45.30212" lon="5.84088">
        <ele>1312.4389648438</ele>
        <time>2017-12-17T07:41:13Z</time>
      </trkpt>
      <trkpt lat="45.30215" lon="5.84095">
        <ele>1314.4389648438</ele>
        <time>2017-12-17T07:41:17Z</time>
      </trkpt>
      <trkpt lat="45.30218" lon="5.841">
        <ele>1314.4389648438</ele>
        <time>2017-12-17T07:41:26Z</time>
      </trkpt>
      <trkpt lat="45.30221" lon="5.84107">
        <ele>1313.4389648438</ele>
        <time>2017-12-17T07:41:30Z</time>
      </trkpt>
      <trkpt lat="45.30223" lon="5.84113">
        <ele>1320.4389648438</ele>
        <time>2017-12-17T07:41:35Z</time>
      </trkpt>
      <trkpt lat="45.30229" lon="5.84108">
        <ele>1318.4389648438</ele>
        <time>2017-12-17T07:41:38Z</time>
      </trkpt>
      <trkpt lat="45.30232" lon="5.84103">
        <ele>1317.4389648438</ele>
        <time>2017-12-17T07:41:43Z</time>
      </trkpt>
      <trkpt lat="45.30236" lon="5.84097">
        <ele>1318.4389648438</ele>
        <time>2017-12-17T07:41:47Z</time>
      </trkpt>
      <trkpt lat="45.30239" lon="5.84092">
        <ele>1322.4389648438</ele>
        <time>2017-12-17T07:41:52Z</time>
      </trkpt>
      <trkpt lat="45.30244" lon="5.84092">
        <ele>1322.4389648438</ele>
        <time>2017-12-17T07:41:56Z</time>
      </trkpt>
      <trkpt lat="45.30248" lon="5.84095">
        <ele>1322.4389648438</ele>
        <time>2017-12-17T07:42:00Z</time>
      </trkpt>
      <trkpt lat="45.30252" lon="5.84096">
        <ele>1326.4389648438</ele>
        <time>2017-12-17T07:42:09Z</time>
      </trkpt>
      <trkpt lat="45.30257" lon="5.84092">
        <ele>1327.4389648438</ele>
        <time>2017-12-17T07:42:13Z</time>
      </trkpt>
      <trkpt lat="45.30257" lon="5.84085">
        <ele>1332.4389648438</ele>
        <time>2017-12-17T07:42:25Z</time>
      </trkpt>
      <trkpt lat="45.30253" lon="5.84079">
        <ele>1332.4389648438</ele>
        <time>2017-12-17T07:42:31Z</time>
      </trkpt>
      <trkpt lat="45.3025" lon="5.84073">
        <ele>1332.4389648438</ele>
        <time>2017-12-17T07:42:37Z</time>
      </trkpt>
      <trkpt lat="45.30248" lon="5.84066">
        <ele>1332.4389648438</ele>
        <time>2017-12-17T07:42:41Z</time>
      </trkpt>
      <trkpt lat="45.30253" lon="5.84063">
        <ele>1332.4389648438</ele>
        <time>2017-12-17T07:42:50Z</time>
      </trkpt>
      <trkpt lat="45.30258" lon="5.84062">
        <ele>1333.4389648438</ele>
        <time>2017-12-17T07:43:02Z</time>
      </trkpt>
      <trkpt lat="45.30262" lon="5.84065">
        <ele>1335.4389648438</ele>
        <time>2017-12-17T07:43:06Z</time>
      </trkpt>
      <trkpt lat="45.30267" lon="5.84069">
        <ele>1337.4389648438</ele>
        <time>2017-12-17T07:43:12Z</time>
      </trkpt>
      <trkpt lat="45.30272" lon="5.84071">
        <ele>1341.4389648438</ele>
        <time>2017-12-17T07:43:18Z</time>
      </trkpt>
      <trkpt lat="45.30276" lon="5.84072">
        <ele>1341.4389648438</ele>
        <time>2017-12-17T07:43:23Z</time>
      </trkpt>
      <trkpt lat="45.30281" lon="5.84069">
        <ele>1339.4389648438</ele>
        <time>2017-12-17T07:43:27Z</time>
      </trkpt>
      <trkpt lat="45.30285" lon="5.84065">
        <ele>1233.4389648438</ele>
        <time>2017-12-17T07:43:35Z</time>
      </trkpt>
      <trkpt lat="45.3029" lon="5.84065">
        <ele>1302.4389648438</ele>
        <time>2017-12-17T07:43:40Z</time>
      </trkpt>
      <trkpt lat="45.30294" lon="5.84059">
        <ele>1321.4389648438</ele>
        <time>2017-12-17T07:43:45Z</time>
      </trkpt>
      <trkpt lat="45.303" lon="5.84058">
        <ele>1327.4389648438</ele>
        <time>2017-12-17T07:43:49Z</time>
      </trkpt>
      <trkpt lat="45.30305" lon="5.84059">
        <ele>1334.4389648438</ele>
        <time>2017-12-17T07:43:55Z</time>
      </trkpt>
      <trkpt lat="45.30307" lon="5.84053">
        <ele>1340.4389648438</ele>
        <time>2017-12-17T07:44:03Z</time>
      </trkpt>
      <trkpt lat="45.30311" lon="5.84057">
        <ele>1349.4389648438</ele>
        <time>2017-12-17T07:44:11Z</time>
      </trkpt>
      <trkpt lat="45.30315" lon="5.84056">
        <ele>1349.4389648438</ele>
        <time>2017-12-17T07:44:15Z</time>
      </trkpt>
      <trkpt lat="45.30321" lon="5.84058">
        <ele>1348.4389648438</ele>
        <time>2017-12-17T07:44:19Z</time>
      </trkpt>
      <trkpt lat="45.30325" lon="5.84058">
        <ele>1354.4389648438</ele>
        <time>2017-12-17T07:44:25Z</time>
      </trkpt>
      <trkpt lat="45.3033" lon="5.8406">
        <ele>1357.4389648438</ele>
        <time>2017-12-17T07:44:33Z</time>
      </trkpt>
      <trkpt lat="45.30334" lon="5.84061">
        <ele>1355.4389648438</ele>
        <time>2017-12-17T07:44:37Z</time>
      </trkpt>
      <trkpt lat="45.30338" lon="5.84058">
        <ele>1355.4389648438</ele>
        <time>2017-12-17T07:44:40Z</time>
      </trkpt>
      <trkpt lat="45.30343" lon="5.84054">
        <ele>1356.4389648438</ele>
        <time>2017-12-17T07:44:43Z</time>
      </trkpt>
      <trkpt lat="45.30348" lon="5.84052">
        <ele>1358.4389648438</ele>
        <time>2017-12-17T07:44:46Z</time>
      </trkpt>
      <trkpt lat="45.30352" lon="5.84048">
        <ele>1361.4389648438</ele>
        <time>2017-12-17T07:44:51Z</time>
      </trkpt>
      <trkpt lat="45.30355" lon="5.84042">
        <ele>1365.4389648438</ele>
        <time>2017-12-17T07:44:58Z</time>
      </trkpt>
      <trkpt lat="45.30358" lon="5.84049">
        <ele>1366.4389648438</ele>
        <time>2017-12-17T07:45:19Z</time>
      </trkpt>
      <trkpt lat="45.30363" lon="5.84052">
        <ele>1365.4389648438</ele>
        <time>2017-12-17T07:45:25Z</time>
      </trkpt>
      <trkpt lat="45.30368" lon="5.84052">
        <ele>1368.4389648438</ele>
        <time>2017-12-17T07:45:30Z</time>
      </trkpt>
      <trkpt lat="45.30373" lon="5.84051">
        <ele>1366.4389648438</ele>
        <time>2017-12-17T07:45:34Z</time>
      </trkpt>
      <trkpt lat="45.30378" lon="5.84052">
        <ele>1369.4389648438</ele>
        <time>2017-12-17T07:45:40Z</time>
      </trkpt>
      <trkpt lat="45.30384" lon="5.84056">
        <ele>1370.4389648438</ele>
        <time>2017-12-17T07:45:44Z</time>
      </trkpt>
      <trkpt lat="45.30388" lon="5.84062">
        <ele>1370.4389648438</ele>
        <time>2017-12-17T07:45:48Z</time>
      </trkpt>
      <trkpt lat="45.30394" lon="5.84062">
        <ele>1370.4389648438</ele>
        <time>2017-12-17T07:45:53Z</time>
      </trkpt>
      <trkpt lat="45.30397" lon="5.84065">
        <ele>1372.4389648438</ele>
        <time>2017-12-17T07:45:57Z</time>
      </trkpt>
      <trkpt lat="45.30402" lon="5.84062">
        <ele>1374.4389648438</ele>
        <time>2017-12-17T07:46:02Z</time>
      </trkpt>
      <trkpt lat="45.30406" lon="5.84059">
        <ele>1372.4389648438</ele>
        <time>2017-12-17T07:46:05Z</time>
      </trkpt>
      <trkpt lat="45.30411" lon="5.84058">
        <ele>1372.4389648438</ele>
        <time>2017-12-17T07:46:09Z</time>
      </trkpt>
      <trkpt lat="45.30415" lon="5.8406">
        <ele>1373.4389648438</ele>
        <time>2017-12-17T07:46:13Z</time>
      </trkpt>
      <trkpt lat="45.30419" lon="5.84054">
        <ele>1373.4389648438</ele>
        <time>2017-12-17T07:46:16Z</time>
      </trkpt>
      <trkpt lat="45.30424" lon="5.84051">
        <ele>1375.4389648438</ele>
        <time>2017-12-17T07:46:22Z</time>
      </trkpt>
      <trkpt lat="45.30428" lon="5.84046">
        <ele>1375.4389648438</ele>
        <time>2017-12-17T07:46:26Z</time>
      </trkpt>
      <trkpt lat="45.30433" lon="5.8405">
        <ele>1378.4389648438</ele>
        <time>2017-12-17T07:46:31Z</time>
      </trkpt>
      <trkpt lat="45.30437" lon="5.84042">
        <ele>1381.4389648438</ele>
        <time>2017-12-17T07:46:38Z</time>
      </trkpt>
      <trkpt lat="45.30441" lon="5.84037">
        <ele>1386.4389648438</ele>
        <time>2017-12-17T07:46:49Z</time>
      </trkpt>
      <trkpt lat="45.30447" lon="5.84037">
        <ele>1388.4389648438</ele>
        <time>2017-12-17T07:46:53Z</time>
      </trkpt>
      <trkpt lat="45.30451" lon="5.84034">
        <ele>1390.4389648438</ele>
        <time>2017-12-17T07:46:58Z</time>
      </trkpt>
      <trkpt lat="45.30456" lon="5.84032">
        <ele>1387.4389648438</ele>
        <time>2017-12-17T07:47:01Z</time>
      </trkpt>
      <trkpt lat="45.30461" lon="5.84031">
        <ele>1385.4389648438</ele>
        <time>2017-12-17T07:47:06Z</time>
      </trkpt>
      <trkpt lat="45.30467" lon="5.84033">
        <ele>1385.4389648438</ele>
        <time>2017-12-17T07:47:10Z</time>
      </trkpt>
      <trkpt lat="45.30471" lon="5.84035">
        <ele>1386.4389648438</ele>
        <time>2017-12-17T07:47:15Z</time>
      </trkpt>
      <trkpt lat="45.30477" lon="5.84037">
        <ele>1387.4389648438</ele>
        <time>2017-12-17T07:47:20Z</time>
      </trkpt>
      <trkpt lat="45.30481" lon="5.84038">
        <ele>1388.4389648438</ele>
        <time>2017-12-17T07:47:24Z</time>
      </trkpt>
      <trkpt lat="45.30487" lon="5.84037">
        <ele>1389.4389648438</ele>
        <time>2017-12-17T07:47:29Z</time>
      </trkpt>
      <trkpt lat="45.30491" lon="5.84039">
        <ele>1390.4389648438</ele>
        <time>2017-12-17T07:47:32Z</time>
      </trkpt>
      <trkpt lat="45.30495" lon="5.84036">
        <ele>1393.4389648438</ele>
        <time>2017-12-17T07:47:37Z</time>
      </trkpt>
      <trkpt lat="45.30497" lon="5.8403">
        <ele>1393.4389648438</ele>
        <time>2017-12-17T07:47:41Z</time>
      </trkpt>
      <trkpt lat="45.30498" lon="5.84022">
        <ele>1395.4389648438</ele>
        <time>2017-12-17T07:47:47Z</time>
      </trkpt>
      <trkpt lat="45.30498" lon="5.84015">
        <ele>1396.4389648438</ele>
        <time>2017-12-17T07:47:51Z</time>
      </trkpt>
      <trkpt lat="45.30498" lon="5.84008">
        <ele>1397.4389648438</ele>
        <time>2017-12-17T07:47:54Z</time>
      </trkpt>
      <trkpt lat="45.30503" lon="5.84006">
        <ele>1396.4389648438</ele>
        <time>2017-12-17T07:47:57Z</time>
      </trkpt>
      <trkpt lat="45.30508" lon="5.84004">
        <ele>1397.4389648438</ele>
        <time>2017-12-17T07:48:03Z</time>
      </trkpt>
      <trkpt lat="45.30511" lon="5.83996">
        <ele>1399.4389648438</ele>
        <time>2017-12-17T07:48:18Z</time>
      </trkpt>
      <trkpt lat="45.30514" lon="5.83988">
        <ele>1400.4389648438</ele>
        <time>2017-12-17T07:48:22Z</time>
      </trkpt>
      <trkpt lat="45.30515" lon="5.83982">
        <ele>1401.4389648438</ele>
        <time>2017-12-17T07:48:26Z</time>
      </trkpt>
      <trkpt lat="45.3052" lon="5.83979">
        <ele>1404.4389648438</ele>
        <time>2017-12-17T07:48:38Z</time>
      </trkpt>
      <trkpt lat="45.30524" lon="5.83986">
        <ele>1405.4389648438</ele>
        <time>2017-12-17T07:48:42Z</time>
      </trkpt>
      <trkpt lat="45.3053" lon="5.83988">
        <ele>1405.4389648438</ele>
        <time>2017-12-17T07:48:45Z</time>
      </trkpt>
      <trkpt lat="45.30535" lon="5.83992">
        <ele>1404.4399414062</ele>
        <time>2017-12-17T07:48:49Z</time>
      </trkpt>
      <trkpt lat="45.30536" lon="5.83999">
        <ele>1405.4399414062</ele>
        <time>2017-12-17T07:48:53Z</time>
      </trkpt>
      <trkpt lat="45.30539" lon="5.84006">
        <ele>1405.4399414062</ele>
        <time>2017-12-17T07:48:59Z</time>
      </trkpt>
      <trkpt lat="45.30544" lon="5.84006">
        <ele>1401.4399414062</ele>
        <time>2017-12-17T07:49:03Z</time>
      </trkpt>
      <trkpt lat="45.30545" lon="5.84013">
        <ele>1403.4399414062</ele>
        <time>2017-12-17T07:49:07Z</time>
      </trkpt>
      <trkpt lat="45.30549" lon="5.84018">
        <ele>1403.4399414062</ele>
        <time>2017-12-17T07:49:12Z</time>
      </trkpt>
      <trkpt lat="45.30552" lon="5.84024">
        <ele>1406.4399414062</ele>
        <time>2017-12-17T07:49:16Z</time>
      </trkpt>
      <trkpt lat="45.30554" lon="5.84031">
        <ele>1407.4399414062</ele>
        <time>2017-12-17T07:49:20Z</time>
      </trkpt>
      <trkpt lat="45.30559" lon="5.84034">
        <ele>1409.4399414062</ele>
        <time>2017-12-17T07:49:24Z</time>
      </trkpt>
      <trkpt lat="45.30562" lon="5.84041">
        <ele>1414.4399414062</ele>
        <time>2017-12-17T07:49:30Z</time>
      </trkpt>
      <trkpt lat="45.30567" lon="5.8404">
        <ele>1416.4399414062</ele>
        <time>2017-12-17T07:49:35Z</time>
      </trkpt>
      <trkpt lat="45.30572" lon="5.84043">
        <ele>1415.4399414062</ele>
        <time>2017-12-17T07:49:39Z</time>
      </trkpt>
      <trkpt lat="45.30578" lon="5.84043">
        <ele>1416.4399414062</ele>
        <time>2017-12-17T07:49:43Z</time>
      </trkpt>
      <trkpt lat="45.30582" lon="5.84048">
        <ele>1419.4399414062</ele>
        <time>2017-12-17T07:49:48Z</time>
      </trkpt>
      <trkpt lat="45.30586" lon="5.84049">
        <ele>1422.4399414062</ele>
        <time>2017-12-17T07:49:52Z</time>
      </trkpt>
      <trkpt lat="45.30588" lon="5.84057">
        <ele>1422.4399414062</ele>
        <time>2017-12-17T07:49:55Z</time>
      </trkpt>
      <trkpt lat="45.30591" lon="5.84062">
        <ele>1423.4399414062</ele>
        <time>2017-12-17T07:49:58Z</time>
      </trkpt>
      <trkpt lat="45.30597" lon="5.84064">
        <ele>1421.4399414062</ele>
        <time>2017-12-17T07:50:03Z</time>
      </trkpt>
      <trkpt lat="45.306" lon="5.84069">
        <ele>1420.4399414062</ele>
        <time>2017-12-17T07:50:07Z</time>
      </trkpt>
      <trkpt lat="45.30602" lon="5.84074">
        <ele>1420.4399414062</ele>
        <time>2017-12-17T07:50:11Z</time>
      </trkpt>
      <trkpt lat="45.30606" lon="5.84078">
        <ele>1418.4399414062</ele>
        <time>2017-12-17T07:50:16Z</time>
      </trkpt>
      <trkpt lat="45.30611" lon="5.84081">
        <ele>1418.4399414062</ele>
        <time>2017-12-17T07:50:21Z</time>
      </trkpt>
      <trkpt lat="45.30615" lon="5.84087">
        <ele>1416.4399414062</ele>
        <time>2017-12-17T07:50:25Z</time>
      </trkpt>
      <trkpt lat="45.30619" lon="5.84089">
        <ele>1419.4399414062</ele>
        <time>2017-12-17T07:50:31Z</time>
      </trkpt>
      <trkpt lat="45.30623" lon="5.84094">
        <ele>1420.4399414062</ele>
        <time>2017-12-17T07:50:36Z</time>
      </trkpt>
      <trkpt lat="45.30628" lon="5.84095">
        <ele>1420.4399414062</ele>
        <time>2017-12-17T07:50:41Z</time>
      </trkpt>
      <trkpt lat="45.30631" lon="5.8409">
        <ele>1420.4399414062</ele>
        <time>2017-12-17T07:50:44Z</time>
      </trkpt>
      <trkpt lat="45.30636" lon="5.84093">
        <ele>1420.4399414062</ele>
        <time>2017-12-17T07:50:49Z</time>
      </trkpt>
      <trkpt lat="45.30642" lon="5.84096">
        <ele>1425.4399414062</ele>
        <time>2017-12-17T07:50:57Z</time>
      </trkpt>
      <trkpt lat="45.30646" lon="5.84099">
        <ele>1421.4399414062</ele>
        <time>2017-12-17T07:51:02Z</time>
      </trkpt>
      <trkpt lat="45.30651" lon="5.84101">
        <ele>1422.4399414062</ele>
        <time>2017-12-17T07:51:07Z</time>
      </trkpt>
      <trkpt lat="45.30656" lon="5.84099">
        <ele>1422.4399414062</ele>
        <time>2017-12-17T07:51:12Z</time>
      </trkpt>
      <trkpt lat="45.3066" lon="5.84102">
        <ele>1424.4399414062</ele>
        <time>2017-12-17T07:51:18Z</time>
      </trkpt>
      <trkpt lat="45.30666" lon="5.84101">
        <ele>1427.4399414062</ele>
        <time>2017-12-17T07:51:25Z</time>
      </trkpt>
      <trkpt lat="45.3067" lon="5.84105">
        <ele>1433.4399414062</ele>
        <time>2017-12-17T07:51:33Z</time>
      </trkpt>
      <trkpt lat="45.30675" lon="5.84107">
        <ele>1435.4399414062</ele>
        <time>2017-12-17T07:51:38Z</time>
      </trkpt>
      <trkpt lat="45.3068" lon="5.8411">
        <ele>1437.4399414062</ele>
        <time>2017-12-17T07:51:44Z</time>
      </trkpt>
      <trkpt lat="45.30685" lon="5.84112">
        <ele>1437.4399414062</ele>
        <time>2017-12-17T07:51:50Z</time>
      </trkpt>
      <trkpt lat="45.30689" lon="5.84108">
        <ele>1441.4399414062</ele>
        <time>2017-12-17T07:51:57Z</time>
      </trkpt>
      <trkpt lat="45.30693" lon="5.84104">
        <ele>1442.4399414062</ele>
        <time>2017-12-17T07:52:02Z</time>
      </trkpt>
      <trkpt lat="45.30698" lon="5.84102">
        <ele>1443.4399414062</ele>
        <time>2017-12-17T07:52:09Z</time>
      </trkpt>
      <trkpt lat="45.30701" lon="5.84097">
        <ele>1441.4399414062</ele>
        <time>2017-12-17T07:52:13Z</time>
      </trkpt>
      <trkpt lat="45.30705" lon="5.84093">
        <ele>1441.4399414062</ele>
        <time>2017-12-17T07:52:18Z</time>
      </trkpt>
      <trkpt lat="45.30711" lon="5.84093">
        <ele>1443.4399414062</ele>
        <time>2017-12-17T07:52:25Z</time>
      </trkpt>
      <trkpt lat="45.30715" lon="5.84095">
        <ele>1444.4399414062</ele>
        <time>2017-12-17T07:52:31Z</time>
      </trkpt>
      <trkpt lat="45.30718" lon="5.84101">
        <ele>1446.4399414062</ele>
        <time>2017-12-17T07:52:36Z</time>
      </trkpt>
      <trkpt lat="45.30723" lon="5.84102">
        <ele>1445.4399414062</ele>
        <time>2017-12-17T07:52:42Z</time>
      </trkpt>
      <trkpt lat="45.30727" lon="5.84106">
        <ele>1447.4399414062</ele>
        <time>2017-12-17T07:52:48Z</time>
      </trkpt>
      <trkpt lat="45.30732" lon="5.84104">
        <ele>1448.4399414062</ele>
        <time>2017-12-17T07:52:54Z</time>
      </trkpt>
      <trkpt lat="45.30733" lon="5.84098">
        <ele>1449.4399414062</ele>
        <time>2017-12-17T07:52:59Z</time>
      </trkpt>
      <trkpt lat="45.30736" lon="5.8409">
        <ele>1452.4399414062</ele>
        <time>2017-12-17T07:53:06Z</time>
      </trkpt>
      <trkpt lat="45.30739" lon="5.84084">
        <ele>1452.4399414062</ele>
        <time>2017-12-17T07:53:12Z</time>
      </trkpt>
      <trkpt lat="45.30742" lon="5.84079">
        <ele>1453.4399414062</ele>
        <time>2017-12-17T07:53:16Z</time>
      </trkpt>
      <trkpt lat="45.30747" lon="5.84076">
        <ele>1453.4399414062</ele>
        <time>2017-12-17T07:53:23Z</time>
      </trkpt>
      <trkpt lat="45.30752" lon="5.84074">
        <ele>1453.4399414062</ele>
        <time>2017-12-17T07:53:28Z</time>
      </trkpt>
      <trkpt lat="45.30757" lon="5.84074">
        <ele>1455.4399414062</ele>
        <time>2017-12-17T07:53:35Z</time>
      </trkpt>
      <trkpt lat="45.30762" lon="5.84074">
        <ele>1454.4399414062</ele>
        <time>2017-12-17T07:53:39Z</time>
      </trkpt>
      <trkpt lat="45.30764" lon="5.84079">
        <ele>1458.4399414062</ele>
        <time>2017-12-17T07:53:43Z</time>
      </trkpt>
      <trkpt lat="45.30768" lon="5.84083">
        <ele>1459.4399414062</ele>
        <time>2017-12-17T07:53:48Z</time>
      </trkpt>
      <trkpt lat="45.30773" lon="5.84086">
        <ele>1461.4399414062</ele>
        <time>2017-12-17T07:53:54Z</time>
      </trkpt>
      <trkpt lat="45.30776" lon="5.8409">
        <ele>1464.4399414062</ele>
        <time>2017-12-17T07:54:00Z</time>
      </trkpt>
      <trkpt lat="45.3078" lon="5.84094">
        <ele>1465.4399414062</ele>
        <time>2017-12-17T07:54:06Z</time>
      </trkpt>
      <trkpt lat="45.30785" lon="5.84096">
        <ele>1467.4399414062</ele>
        <time>2017-12-17T07:54:13Z</time>
      </trkpt>
      <trkpt lat="45.30787" lon="5.84089">
        <ele>1467.4399414062</ele>
        <time>2017-12-17T07:54:19Z</time>
      </trkpt>
      <trkpt lat="45.30787" lon="5.84082">
        <ele>1472.4399414062</ele>
        <time>2017-12-17T07:54:28Z</time>
      </trkpt>
      <trkpt lat="45.3079" lon="5.84075">
        <ele>1471.4399414062</ele>
        <time>2017-12-17T07:54:33Z</time>
      </trkpt>
      <trkpt lat="45.30791" lon="5.84069">
        <ele>1471.4399414062</ele>
        <time>2017-12-17T07:54:40Z</time>
      </trkpt>
      <trkpt lat="45.30792" lon="5.84062">
        <ele>1471.4399414062</ele>
        <time>2017-12-17T07:54:45Z</time>
      </trkpt>
      <trkpt lat="45.30794" lon="5.84055">
        <ele>1472.4399414062</ele>
        <time>2017-12-17T07:54:50Z</time>
      </trkpt>
      <trkpt lat="45.30793" lon="5.84047">
        <ele>1472.4399414062</ele>
        <time>2017-12-17T07:54:56Z</time>
      </trkpt>
      <trkpt lat="45.30794" lon="5.84041">
        <ele>1477.4399414062</ele>
        <time>2017-12-17T07:55:04Z</time>
      </trkpt>
      <trkpt lat="45.30795" lon="5.84034">
        <ele>1480.4399414062</ele>
        <time>2017-12-17T07:55:10Z</time>
      </trkpt>
      <trkpt lat="45.30795" lon="5.84026">
        <ele>1480.4399414062</ele>
        <time>2017-12-17T07:55:16Z</time>
      </trkpt>
      <trkpt lat="45.30796" lon="5.84018">
        <ele>1482.4399414062</ele>
        <time>2017-12-17T07:55:23Z</time>
      </trkpt>
      <trkpt lat="45.30801" lon="5.84021">
        <ele>1484.4399414062</ele>
        <time>2017-12-17T07:55:30Z</time>
      </trkpt>
      <trkpt lat="45.30805" lon="5.84025">
        <ele>1485.4399414062</ele>
        <time>2017-12-17T07:55:37Z</time>
      </trkpt>
      <trkpt lat="45.30809" lon="5.8403">
        <ele>1485.4399414062</ele>
        <time>2017-12-17T07:55:43Z</time>
      </trkpt>
      <trkpt lat="45.30813" lon="5.84031">
        <ele>1486.4399414062</ele>
        <time>2017-12-17T07:55:49Z</time>
      </trkpt>
      <trkpt lat="45.30818" lon="5.84031">
        <ele>1488.4399414062</ele>
        <time>2017-12-17T07:55:56Z</time>
      </trkpt>
      <trkpt lat="45.30823" lon="5.84028">
        <ele>1487.4399414062</ele>
        <time>2017-12-17T07:56:00Z</time>
      </trkpt>
      <trkpt lat="45.30828" lon="5.84027">
        <ele>1488.4399414062</ele>
        <time>2017-12-17T07:56:04Z</time>
      </trkpt>
      <trkpt lat="45.30833" lon="5.84028">
        <ele>1492.4399414062</ele>
        <time>2017-12-17T07:56:11Z</time>
      </trkpt>
      <trkpt lat="45.30834" lon="5.84022">
        <ele>1494.4399414062</ele>
        <time>2017-12-17T07:56:18Z</time>
      </trkpt>
      <trkpt lat="45.30833" lon="5.84014">
        <ele>1495.4399414062</ele>
        <time>2017-12-17T07:56:23Z</time>
      </trkpt>
      <trkpt lat="45.30832" lon="5.84007">
        <ele>1495.4399414062</ele>
        <time>2017-12-17T07:56:28Z</time>
      </trkpt>
      <trkpt lat="45.30832" lon="5.84">
        <ele>1497.4399414062</ele>
        <time>2017-12-17T07:56:34Z</time>
      </trkpt>
      <trkpt lat="45.3083" lon="5.83993">
        <ele>1498.4399414062</ele>
        <time>2017-12-17T07:56:40Z</time>
      </trkpt>
      <trkpt lat="45.30829" lon="5.83987">
        <ele>1500.4399414062</ele>
        <time>2017-12-17T07:56:45Z</time>
      </trkpt>
      <trkpt lat="45.30828" lon="5.8398">
        <ele>1500.4399414062</ele>
        <time>2017-12-17T07:56:50Z</time>
      </trkpt>
      <trkpt lat="45.3083" lon="5.83974">
        <ele>1501.4399414062</ele>
        <time>2017-12-17T07:56:59Z</time>
      </trkpt>
      <trkpt lat="45.30834" lon="5.8397">
        <ele>1503.4399414062</ele>
        <time>2017-12-17T07:57:02Z</time>
      </trkpt>
      <trkpt lat="45.30838" lon="5.83967">
        <ele>1503.4399414062</ele>
        <time>2017-12-17T07:57:06Z</time>
      </trkpt>
      <trkpt lat="45.30844" lon="5.83969">
        <ele>1504.4399414062</ele>
        <time>2017-12-17T07:57:12Z</time>
      </trkpt>
      <trkpt lat="45.30847" lon="5.83974">
        <ele>1509.4399414062</ele>
        <time>2017-12-17T07:57:19Z</time>
      </trkpt>
      <trkpt lat="45.30852" lon="5.83974">
        <ele>1510.4399414062</ele>
        <time>2017-12-17T07:57:24Z</time>
      </trkpt>
      <trkpt lat="45.30856" lon="5.83977">
        <ele>1510.4399414062</ele>
        <time>2017-12-17T07:57:31Z</time>
      </trkpt>
      <trkpt lat="45.3086" lon="5.83974">
        <ele>1510.4399414062</ele>
        <time>2017-12-17T07:57:36Z</time>
      </trkpt>
      <trkpt lat="45.3086" lon="5.83967">
        <ele>1510.4399414062</ele>
        <time>2017-12-17T07:57:40Z</time>
      </trkpt>
      <trkpt lat="45.30859" lon="5.8396">
        <ele>1511.4399414062</ele>
        <time>2017-12-17T07:57:45Z</time>
      </trkpt>
      <trkpt lat="45.30861" lon="5.83954">
        <ele>1512.4399414062</ele>
        <time>2017-12-17T07:57:48Z</time>
      </trkpt>
      <trkpt lat="45.30862" lon="5.83947">
        <ele>1515.4399414062</ele>
        <time>2017-12-17T07:57:53Z</time>
      </trkpt>
      <trkpt lat="45.30861" lon="5.83941">
        <ele>1515.4399414062</ele>
        <time>2017-12-17T07:58:00Z</time>
      </trkpt>
      <trkpt lat="45.30861" lon="5.83934">
        <ele>1516.4399414062</ele>
        <time>2017-12-17T07:58:07Z</time>
      </trkpt>
      <trkpt lat="45.30866" lon="5.83935">
        <ele>1520.4399414062</ele>
        <time>2017-12-17T07:58:13Z</time>
      </trkpt>
      <trkpt lat="45.3087" lon="5.83938">
        <ele>1520.4399414062</ele>
        <time>2017-12-17T07:58:19Z</time>
      </trkpt>
      <trkpt lat="45.30875" lon="5.83939">
        <ele>1522.4399414062</ele>
        <time>2017-12-17T07:58:25Z</time>
      </trkpt>
      <trkpt lat="45.30879" lon="5.83937">
        <ele>1525.4399414062</ele>
        <time>2017-12-17T07:58:32Z</time>
      </trkpt>
      <trkpt lat="45.30882" lon="5.8393">
        <ele>1525.4399414062</ele>
        <time>2017-12-17T07:58:37Z</time>
      </trkpt>
      <trkpt lat="45.3088" lon="5.83924">
        <ele>1526.4399414062</ele>
        <time>2017-12-17T07:58:42Z</time>
      </trkpt>
      <trkpt lat="45.30876" lon="5.83919">
        <ele>1527.4399414062</ele>
        <time>2017-12-17T07:58:47Z</time>
      </trkpt>
      <trkpt lat="45.30871" lon="5.83915">
        <ele>1531.4399414062</ele>
        <time>2017-12-17T07:58:56Z</time>
      </trkpt>
      <trkpt lat="45.30867" lon="5.83912">
        <ele>1534.4399414062</ele>
        <time>2017-12-17T07:59:03Z</time>
      </trkpt>
      <trkpt lat="45.30863" lon="5.83907">
        <ele>1535.4399414062</ele>
        <time>2017-12-17T07:59:10Z</time>
      </trkpt>
      <trkpt lat="45.3086" lon="5.83903">
        <ele>1536.4399414062</ele>
        <time>2017-12-17T07:59:17Z</time>
      </trkpt>
      <trkpt lat="45.30859" lon="5.83896">
        <ele>1536.4399414062</ele>
        <time>2017-12-17T07:59:22Z</time>
      </trkpt>
      <trkpt lat="45.30857" lon="5.8389">
        <ele>1537.4399414062</ele>
        <time>2017-12-17T07:59:27Z</time>
      </trkpt>
      <trkpt lat="45.30854" lon="5.83884">
        <ele>1537.4399414062</ele>
        <time>2017-12-17T07:59:33Z</time>
      </trkpt>
      <trkpt lat="45.30853" lon="5.83878">
        <ele>1539.4399414062</ele>
        <time>2017-12-17T07:59:39Z</time>
      </trkpt>
      <trkpt lat="45.30852" lon="5.83871">
        <ele>1539.4399414062</ele>
        <time>2017-12-17T07:59:46Z</time>
      </trkpt>
      <trkpt lat="45.30849" lon="5.83866">
        <ele>1539.4399414062</ele>
        <time>2017-12-17T07:59:50Z</time>
      </trkpt>
      <trkpt lat="45.30845" lon="5.83862">
        <ele>1539.4399414062</ele>
        <time>2017-12-17T07:59:55Z</time>
      </trkpt>
      <trkpt lat="45.30841" lon="5.83857">
        <ele>1542.4399414062</ele>
        <time>2017-12-17T08:00:04Z</time>
      </trkpt>
      <trkpt lat="45.3084" lon="5.8385">
        <ele>1545.4399414062</ele>
        <time>2017-12-17T08:00:10Z</time>
      </trkpt>
      <trkpt lat="45.30839" lon="5.83844">
        <ele>1548.4399414062</ele>
        <time>2017-12-17T08:00:19Z</time>
      </trkpt>
      <trkpt lat="45.30839" lon="5.83837">
        <ele>1549.4399414062</ele>
        <time>2017-12-17T08:00:24Z</time>
      </trkpt>
      <trkpt lat="45.30844" lon="5.83837">
        <ele>1553.4399414062</ele>
        <time>2017-12-17T08:00:40Z</time>
      </trkpt>
      <trkpt lat="45.30848" lon="5.83833">
        <ele>1555.4399414062</ele>
        <time>2017-12-17T08:00:47Z</time>
      </trkpt>
      <trkpt lat="45.30852" lon="5.8383">
        <ele>1558.4399414062</ele>
        <time>2017-12-17T08:00:55Z</time>
      </trkpt>
      <trkpt lat="45.30857" lon="5.83832">
        <ele>1563.4399414062</ele>
        <time>2017-12-17T08:01:03Z</time>
      </trkpt>
      <trkpt lat="45.30862" lon="5.83831">
        <ele>1563.4399414062</ele>
        <time>2017-12-17T08:01:08Z</time>
      </trkpt>
      <trkpt lat="45.30868" lon="5.8383">
        <ele>1565.4399414062</ele>
        <time>2017-12-17T08:01:14Z</time>
      </trkpt>
      <trkpt lat="45.30872" lon="5.83829">
        <ele>1563.4399414062</ele>
        <time>2017-12-17T08:01:19Z</time>
      </trkpt>
      <trkpt lat="45.30877" lon="5.83828">
        <ele>1564.4399414062</ele>
        <time>2017-12-17T08:01:25Z</time>
      </trkpt>
      <trkpt lat="45.3088" lon="5.83823">
        <ele>1566.4399414062</ele>
        <time>2017-12-17T08:01:38Z</time>
      </trkpt>
      <trkpt lat="45.30878" lon="5.83816">
        <ele>1567.4399414062</ele>
        <time>2017-12-17T08:01:43Z</time>
      </trkpt>
      <trkpt lat="45.30874" lon="5.83813">
        <ele>1567.4399414062</ele>
        <time>2017-12-17T08:01:48Z</time>
      </trkpt>
      <trkpt lat="45.30871" lon="5.83807">
        <ele>1568.4399414062</ele>
        <time>2017-12-17T08:01:54Z</time>
      </trkpt>
      <trkpt lat="45.30869" lon="5.83802">
        <ele>1569.4399414062</ele>
        <time>2017-12-17T08:02:00Z</time>
      </trkpt>
      <trkpt lat="45.30865" lon="5.83798">
        <ele>1575.4399414062</ele>
        <time>2017-12-17T08:02:09Z</time>
      </trkpt>
      <trkpt lat="45.30862" lon="5.83793">
        <ele>1576.4399414062</ele>
        <time>2017-12-17T08:02:17Z</time>
      </trkpt>
      <trkpt lat="45.30868" lon="5.83791">
        <ele>1578.4399414062</ele>
        <time>2017-12-17T08:02:28Z</time>
      </trkpt>
      <trkpt lat="45.30872" lon="5.83787">
        <ele>1578.4399414062</ele>
        <time>2017-12-17T08:02:34Z</time>
      </trkpt>
      <trkpt lat="45.30877" lon="5.83789">
        <ele>1582.4399414062</ele>
        <time>2017-12-17T08:02:44Z</time>
      </trkpt>
      <trkpt lat="45.30882" lon="5.83786">
        <ele>1582.4399414062</ele>
        <time>2017-12-17T08:02:48Z</time>
      </trkpt>
      <trkpt lat="45.30886" lon="5.83786">
        <ele>1586.4399414062</ele>
        <time>2017-12-17T08:02:54Z</time>
      </trkpt>
      <trkpt lat="45.30885" lon="5.83779">
        <ele>1588.4399414062</ele>
        <time>2017-12-17T08:03:10Z</time>
      </trkpt>
      <trkpt lat="45.30882" lon="5.83773">
        <ele>1590.4399414062</ele>
        <time>2017-12-17T08:03:18Z</time>
      </trkpt>
      <trkpt lat="45.3088" lon="5.83767">
        <ele>1592.4399414062</ele>
        <time>2017-12-17T08:03:25Z</time>
      </trkpt>
      <trkpt lat="45.30877" lon="5.83762">
        <ele>1593.4399414062</ele>
        <time>2017-12-17T08:03:54Z</time>
      </trkpt>
      <trkpt lat="45.30875" lon="5.83756">
        <ele>1597.4399414062</ele>
        <time>2017-12-17T08:03:59Z</time>
      </trkpt>
      <trkpt lat="45.30871" lon="5.83751">
        <ele>1600.4399414062</ele>
        <time>2017-12-17T08:04:07Z</time>
      </trkpt>
      <trkpt lat="45.3087" lon="5.83745">
        <ele>1601.4399414062</ele>
        <time>2017-12-17T08:04:12Z</time>
      </trkpt>
      <trkpt lat="45.30867" lon="5.83739">
        <ele>1602.4399414062</ele>
        <time>2017-12-17T08:04:18Z</time>
      </trkpt>
      <trkpt lat="45.30864" lon="5.83733">
        <ele>1602.4399414062</ele>
        <time>2017-12-17T08:04:24Z</time>
      </trkpt>
      <trkpt lat="45.30863" lon="5.83726">
        <ele>1603.4399414062</ele>
        <time>2017-12-17T08:04:30Z</time>
      </trkpt>
      <trkpt lat="45.3086" lon="5.8372">
        <ele>1608.4399414062</ele>
        <time>2017-12-17T08:04:43Z</time>
      </trkpt>
      <trkpt lat="45.3086" lon="5.83714">
        <ele>1611.4399414062</ele>
        <time>2017-12-17T08:04:49Z</time>
      </trkpt>
      <trkpt lat="45.30856" lon="5.83707">
        <ele>1610.4399414062</ele>
        <time>2017-12-17T08:04:56Z</time>
      </trkpt>
      <trkpt lat="45.30854" lon="5.83701">
        <ele>1613.4399414062</ele>
        <time>2017-12-17T08:05:03Z</time>
      </trkpt>
      <trkpt lat="45.30853" lon="5.83693">
        <ele>1614.4399414062</ele>
        <time>2017-12-17T08:05:07Z</time>
      </trkpt>
      <trkpt lat="45.30849" lon="5.83689">
        <ele>1618.4399414062</ele>
        <time>2017-12-17T08:05:13Z</time>
      </trkpt>
      <trkpt lat="45.30847" lon="5.83682">
        <ele>1619.4399414062</ele>
        <time>2017-12-17T08:05:20Z</time>
      </trkpt>
      <trkpt lat="45.30844" lon="5.83676">
        <ele>1622.4399414062</ele>
        <time>2017-12-17T08:05:29Z</time>
      </trkpt>
      <trkpt lat="45.30843" lon="5.83669">
        <ele>1621.4399414062</ele>
        <time>2017-12-17T08:05:36Z</time>
      </trkpt>
      <trkpt lat="45.30839" lon="5.83665">
        <ele>1625.4399414062</ele>
        <time>2017-12-17T08:05:44Z</time>
      </trkpt>
      <trkpt lat="45.30835" lon="5.83662">
        <ele>1625.4399414062</ele>
        <time>2017-12-17T08:05:49Z</time>
      </trkpt>
      <trkpt lat="45.30834" lon="5.83655">
        <ele>1627.4399414062</ele>
        <time>2017-12-17T08:05:57Z</time>
      </trkpt>
      <trkpt lat="45.30834" lon="5.83648">
        <ele>1626.4399414062</ele>
        <time>2017-12-17T08:06:02Z</time>
      </trkpt>
      <trkpt lat="45.30838" lon="5.83643">
        <ele>1629.4399414062</ele>
        <time>2017-12-17T08:06:10Z</time>
      </trkpt>
      <trkpt lat="45.30843" lon="5.83643">
        <ele>1629.4399414062</ele>
        <time>2017-12-17T08:06:17Z</time>
      </trkpt>
      <trkpt lat="45.30845" lon="5.83636">
        <ele>1631.4399414062</ele>
        <time>2017-12-17T08:06:31Z</time>
      </trkpt>
      <trkpt lat="45.30843" lon="5.83628">
        <ele>1631.4399414062</ele>
        <time>2017-12-17T08:06:37Z</time>
      </trkpt>
      <trkpt lat="45.30847" lon="5.83623">
        <ele>1632.4399414062</ele>
        <time>2017-12-17T08:06:43Z</time>
      </trkpt>
      <trkpt lat="45.30852" lon="5.83622">
        <ele>1635.4399414062</ele>
        <time>2017-12-17T08:06:50Z</time>
      </trkpt>
      <trkpt lat="45.30856" lon="5.83618">
        <ele>1632.4399414062</ele>
        <time>2017-12-17T08:06:57Z</time>
      </trkpt>
      <trkpt lat="45.30861" lon="5.83617">
        <ele>1635.4399414062</ele>
        <time>2017-12-17T08:07:04Z</time>
      </trkpt>
      <trkpt lat="45.30865" lon="5.83616">
        <ele>1638.4399414062</ele>
        <time>2017-12-17T08:07:10Z</time>
      </trkpt>
      <trkpt lat="45.30863" lon="5.8361">
        <ele>1641.4399414062</ele>
        <time>2017-12-17T08:07:22Z</time>
      </trkpt>
      <trkpt lat="45.30861" lon="5.83603">
        <ele>1644.4399414062</ele>
        <time>2017-12-17T08:07:29Z</time>
      </trkpt>
      <trkpt lat="45.30863" lon="5.83594">
        <ele>1645.4399414062</ele>
        <time>2017-12-17T08:07:36Z</time>
      </trkpt>
      <trkpt lat="45.30867" lon="5.83591">
        <ele>1646.4399414062</ele>
        <time>2017-12-17T08:07:45Z</time>
      </trkpt>
      <trkpt lat="45.30871" lon="5.83593">
        <ele>1647.4399414062</ele>
        <time>2017-12-17T08:07:54Z</time>
      </trkpt>
      <trkpt lat="45.30876" lon="5.83592">
        <ele>1650.4399414062</ele>
        <time>2017-12-17T08:07:59Z</time>
      </trkpt>
      <trkpt lat="45.30881" lon="5.83589">
        <ele>1649.4399414062</ele>
        <time>2017-12-17T08:08:04Z</time>
      </trkpt>
      <trkpt lat="45.30886" lon="5.8359">
        <ele>1654.4399414062</ele>
        <time>2017-12-17T08:08:12Z</time>
      </trkpt>
      <trkpt lat="45.3089" lon="5.83589">
        <ele>1655.4399414062</ele>
        <time>2017-12-17T08:08:22Z</time>
      </trkpt>
      <trkpt lat="45.30887" lon="5.83584">
        <ele>1658.4399414062</ele>
        <time>2017-12-17T08:08:33Z</time>
      </trkpt>
      <trkpt lat="45.30885" lon="5.83578">
        <ele>1658.4399414062</ele>
        <time>2017-12-17T08:08:41Z</time>
      </trkpt>
      <trkpt lat="45.30883" lon="5.83573">
        <ele>1659.4399414062</ele>
        <time>2017-12-17T08:08:48Z</time>
      </trkpt>
      <trkpt lat="45.30882" lon="5.83566">
        <ele>1661.4399414062</ele>
        <time>2017-12-17T08:08:58Z</time>
      </trkpt>
      <trkpt lat="45.30884" lon="5.83559">
        <ele>1660.4399414062</ele>
        <time>2017-12-17T08:09:07Z</time>
      </trkpt>
      <trkpt lat="45.30889" lon="5.83558">
        <ele>1661.4399414062</ele>
        <time>2017-12-17T08:09:11Z</time>
      </trkpt>
      <trkpt lat="45.30893" lon="5.83556">
        <ele>1662.4399414062</ele>
        <time>2017-12-17T08:09:14Z</time>
      </trkpt>
      <trkpt lat="45.30898" lon="5.83553">
        <ele>1663.4399414062</ele>
        <time>2017-12-17T08:09:20Z</time>
      </trkpt>
      <trkpt lat="45.30902" lon="5.83554">
        <ele>1665.4399414062</ele>
        <time>2017-12-17T08:09:25Z</time>
      </trkpt>
      <trkpt lat="45.30907" lon="5.83553">
        <ele>1664.4399414062</ele>
        <time>2017-12-17T08:09:34Z</time>
      </trkpt>
      <trkpt lat="45.30912" lon="5.8355">
        <ele>1667.4399414062</ele>
        <time>2017-12-17T08:09:41Z</time>
      </trkpt>
      <trkpt lat="45.30917" lon="5.83553">
        <ele>1670.4399414062</ele>
        <time>2017-12-17T08:09:49Z</time>
      </trkpt>
      <trkpt lat="45.30922" lon="5.83553">
        <ele>1673.4399414062</ele>
        <time>2017-12-17T08:09:56Z</time>
      </trkpt>
      <trkpt lat="45.30926" lon="5.83553">
        <ele>1675.4399414062</ele>
        <time>2017-12-17T08:10:03Z</time>
      </trkpt>
      <trkpt lat="45.30931" lon="5.83555">
        <ele>1678.4399414062</ele>
        <time>2017-12-17T08:10:11Z</time>
      </trkpt>
      <trkpt lat="45.30936" lon="5.83553">
        <ele>1678.4399414062</ele>
        <time>2017-12-17T08:10:18Z</time>
      </trkpt>
      <trkpt lat="45.30941" lon="5.83553">
        <ele>1681.4399414062</ele>
        <time>2017-12-17T08:10:25Z</time>
      </trkpt>
      <trkpt lat="45.30946" lon="5.8355">
        <ele>1683.4399414062</ele>
        <time>2017-12-17T08:10:38Z</time>
      </trkpt>
      <trkpt lat="45.3095" lon="5.83546">
        <ele>1684.4399414062</ele>
        <time>2017-12-17T08:10:45Z</time>
      </trkpt>
      <trkpt lat="45.30953" lon="5.8355">
        <ele>1687.4399414062</ele>
        <time>2017-12-17T08:11:04Z</time>
      </trkpt>
      <trkpt lat="45.30958" lon="5.83548">
        <ele>1688.4399414062</ele>
        <time>2017-12-17T08:11:09Z</time>
      </trkpt>
      <trkpt lat="45.30963" lon="5.83546">
        <ele>1688.4399414062</ele>
        <time>2017-12-17T08:11:13Z</time>
      </trkpt>
      <trkpt lat="45.30968" lon="5.83549">
        <ele>1692.4399414062</ele>
        <time>2017-12-17T08:11:20Z</time>
      </trkpt>
      <trkpt lat="45.30972" lon="5.83552">
        <ele>1696.4399414062</ele>
        <time>2017-12-17T08:11:27Z</time>
      </trkpt>
      <trkpt lat="45.30977" lon="5.83549">
        <ele>1698.4399414062</ele>
        <time>2017-12-17T08:11:33Z</time>
      </trkpt>
      <trkpt lat="45.30982" lon="5.83546">
        <ele>1698.4399414062</ele>
        <time>2017-12-17T08:11:40Z</time>
      </trkpt>
      <trkpt lat="45.30987" lon="5.83547">
        <ele>1702.4399414062</ele>
        <time>2017-12-17T08:11:48Z</time>
      </trkpt>
      <trkpt lat="45.30992" lon="5.83544">
        <ele>1704.4399414062</ele>
        <time>2017-12-17T08:11:54Z</time>
      </trkpt>
      <trkpt lat="45.30996" lon="5.83541">
        <ele>1707.4399414062</ele>
        <time>2017-12-17T08:12:01Z</time>
      </trkpt>
      <trkpt lat="45.31001" lon="5.83541">
        <ele>1708.4399414062</ele>
        <time>2017-12-17T08:12:07Z</time>
      </trkpt>
      <trkpt lat="45.31006" lon="5.83539">
        <ele>1707.4399414062</ele>
        <time>2017-12-17T08:12:13Z</time>
      </trkpt>
      <trkpt lat="45.31007" lon="5.83546">
        <ele>1708.4399414062</ele>
        <time>2017-12-17T08:12:21Z</time>
      </trkpt>
      <trkpt lat="45.31011" lon="5.8355">
        <ele>1712.4399414062</ele>
        <time>2017-12-17T08:12:28Z</time>
      </trkpt>
      <trkpt lat="45.31014" lon="5.83546">
        <ele>1714.4399414062</ele>
        <time>2017-12-17T08:12:40Z</time>
      </trkpt>
      <trkpt lat="45.31019" lon="5.83549">
        <ele>1719.4399414062</ele>
        <time>2017-12-17T08:12:48Z</time>
      </trkpt>
      <trkpt lat="45.31024" lon="5.83545">
        <ele>1719.4399414062</ele>
        <time>2017-12-17T08:12:54Z</time>
      </trkpt>
      <trkpt lat="45.31029" lon="5.83542">
        <ele>1721.4399414062</ele>
        <time>2017-12-17T08:13:00Z</time>
      </trkpt>
      <trkpt lat="45.31034" lon="5.83541">
        <ele>1719.4399414062</ele>
        <time>2017-12-17T08:13:07Z</time>
      </trkpt>
      <trkpt lat="45.31039" lon="5.83542">
        <ele>1722.4399414062</ele>
        <time>2017-12-17T08:13:11Z</time>
      </trkpt>
      <trkpt lat="45.31043" lon="5.83542">
        <ele>1723.4399414062</ele>
        <time>2017-12-17T08:13:16Z</time>
      </trkpt>
      <trkpt lat="45.31048" lon="5.83543">
        <ele>1725.4399414062</ele>
        <time>2017-12-17T08:13:20Z</time>
      </trkpt>
      <trkpt lat="45.31052" lon="5.83544">
        <ele>1727.4399414062</ele>
        <time>2017-12-17T08:13:24Z</time>
      </trkpt>
      <trkpt lat="45.31058" lon="5.83545">
        <ele>1729.4399414062</ele>
        <time>2017-12-17T08:13:29Z</time>
      </trkpt>
      <trkpt lat="45.31063" lon="5.83544">
        <ele>1730.4399414062</ele>
        <time>2017-12-17T08:13:33Z</time>
      </trkpt>
      <trkpt lat="45.31067" lon="5.83543">
        <ele>1731.4399414062</ele>
        <time>2017-12-17T08:13:38Z</time>
      </trkpt>
      <trkpt lat="45.31072" lon="5.83541">
        <ele>1732.4399414062</ele>
        <time>2017-12-17T08:13:43Z</time>
      </trkpt>
      <trkpt lat="45.31077" lon="5.83538">
        <ele>1733.4399414062</ele>
        <time>2017-12-17T08:13:48Z</time>
      </trkpt>
      <trkpt lat="45.31083" lon="5.8354">
        <ele>1734.4399414062</ele>
        <time>2017-12-17T08:13:54Z</time>
      </trkpt>
      <trkpt lat="45.31087" lon="5.8354">
        <ele>1736.4399414062</ele>
        <time>2017-12-17T08:13:59Z</time>
      </trkpt>
      <trkpt lat="45.31092" lon="5.83538">
        <ele>1738.4399414062</ele>
        <time>2017-12-17T08:14:04Z</time>
      </trkpt>
      <trkpt lat="45.31096" lon="5.83544">
        <ele>1739.4399414062</ele>
        <time>2017-12-17T08:14:11Z</time>
      </trkpt>
      <trkpt lat="45.311" lon="5.83545">
        <ele>1745.4399414062</ele>
        <time>2017-12-17T08:14:17Z</time>
      </trkpt>
      <trkpt lat="45.31105" lon="5.83546">
        <ele>1747.4399414062</ele>
        <time>2017-12-17T08:14:23Z</time>
      </trkpt>
      <trkpt lat="45.3111" lon="5.83545">
        <ele>1748.4399414062</ele>
        <time>2017-12-17T08:14:31Z</time>
      </trkpt>
      <trkpt lat="45.31115" lon="5.83542">
        <ele>1752.4399414062</ele>
        <time>2017-12-17T08:14:43Z</time>
      </trkpt>
      <trkpt lat="45.31119" lon="5.83543">
        <ele>1753.4399414062</ele>
        <time>2017-12-17T08:14:48Z</time>
      </trkpt>
      <trkpt lat="45.31125" lon="5.83542">
        <ele>1754.4399414062</ele>
        <time>2017-12-17T08:14:55Z</time>
      </trkpt>
      <trkpt lat="45.3113" lon="5.83542">
        <ele>1757.4399414062</ele>
        <time>2017-12-17T08:15:00Z</time>
      </trkpt>
      <trkpt lat="45.31135" lon="5.83542">
        <ele>1763.4399414062</ele>
        <time>2017-12-17T08:19:16Z</time>
      </trkpt>
      <trkpt lat="45.3114" lon="5.83542">
        <ele>1762.4399414062</ele>
        <time>2017-12-17T08:19:34Z</time>
      </trkpt>
      <trkpt lat="45.31144" lon="5.83543">
        <ele>1762.4399414062</ele>
        <time>2017-12-17T08:19:38Z</time>
      </trkpt>
      <trkpt lat="45.31149" lon="5.83546">
        <ele>1763.4399414062</ele>
        <time>2017-12-17T08:19:41Z</time>
      </trkpt>
      <trkpt lat="45.31155" lon="5.83546">
        <ele>1761.4399414062</ele>
        <time>2017-12-17T08:20:23Z</time>
      </trkpt>
      <trkpt lat="45.3116" lon="5.83548">
        <ele>1761.4399414062</ele>
        <time>2017-12-17T08:20:26Z</time>
      </trkpt>
      <trkpt lat="45.31165" lon="5.83551">
        <ele>1760.4399414062</ele>
        <time>2017-12-17T08:20:28Z</time>
      </trkpt>
      <trkpt lat="45.31172" lon="5.83553">
        <ele>1759.4399414062</ele>
        <time>2017-12-17T08:20:30Z</time>
      </trkpt>
      <trkpt lat="45.31178" lon="5.83556">
        <ele>1759.4399414062</ele>
        <time>2017-12-17T08:20:32Z</time>
      </trkpt>
      <trkpt lat="45.31186" lon="5.83557">
        <ele>1758.4399414062</ele>
        <time>2017-12-17T08:20:34Z</time>
      </trkpt>
      <trkpt lat="45.31199" lon="5.83561">
        <ele>1753.4399414062</ele>
        <time>2017-12-17T08:20:37Z</time>
      </trkpt>
      <trkpt lat="45.3121" lon="5.83566">
        <ele>1751.4399414062</ele>
        <time>2017-12-17T08:20:39Z</time>
      </trkpt>
      <trkpt lat="45.31222" lon="5.8357">
        <ele>1749.4399414062</ele>
        <time>2017-12-17T08:20:41Z</time>
      </trkpt>
      <trkpt lat="45.31237" lon="5.83577">
        <ele>1748.4399414062</ele>
        <time>2017-12-17T08:20:44Z</time>
      </trkpt>
      <trkpt lat="45.31251" lon="5.8358">
        <ele>1747.4399414062</ele>
        <time>2017-12-17T08:20:46Z</time>
      </trkpt>
      <trkpt lat="45.31263" lon="5.83583">
        <ele>1745.4399414062</ele>
        <time>2017-12-17T08:20:48Z</time>
      </trkpt>
      <trkpt lat="45.31273" lon="5.83584">
        <ele>1744.4399414062</ele>
        <time>2017-12-17T08:20:50Z</time>
      </trkpt>
      <trkpt lat="45.31284" lon="5.83586">
        <ele>1743.4410400391</ele>
        <time>2017-12-17T08:20:52Z</time>
      </trkpt>
      <trkpt lat="45.31294" lon="5.83587">
        <ele>1739.4410400391</ele>
        <time>2017-12-17T08:20:55Z</time>
      </trkpt>
      <trkpt lat="45.31298" lon="5.83579">
        <ele>1737.4410400391</ele>
        <time>2017-12-17T08:20:59Z</time>
      </trkpt>
      <trkpt lat="45.31305" lon="5.83573">
        <ele>1735.4410400391</ele>
        <time>2017-12-17T08:21:01Z</time>
      </trkpt>
      <trkpt lat="45.31312" lon="5.83566">
        <ele>1731.4410400391</ele>
        <time>2017-12-17T08:21:03Z</time>
      </trkpt>
      <trkpt lat="45.31321" lon="5.83558">
        <ele>1729.4410400391</ele>
        <time>2017-12-17T08:21:05Z</time>
      </trkpt>
      <trkpt lat="45.31335" lon="5.83553">
        <ele>1720.4410400391</ele>
        <time>2017-12-17T08:21:08Z</time>
      </trkpt>
      <trkpt lat="45.31341" lon="5.83547">
        <ele>1716.4410400391</ele>
        <time>2017-12-17T08:21:10Z</time>
      </trkpt>
      <trkpt lat="45.31348" lon="5.83541">
        <ele>1713.4410400391</ele>
        <time>2017-12-17T08:21:12Z</time>
      </trkpt>
      <trkpt lat="45.31355" lon="5.83541">
        <ele>1712.4410400391</ele>
        <time>2017-12-17T08:21:14Z</time>
      </trkpt>
      <trkpt lat="45.31361" lon="5.83535">
        <ele>1710.4410400391</ele>
        <time>2017-12-17T08:21:16Z</time>
      </trkpt>
      <trkpt lat="45.31367" lon="5.8353">
        <ele>1701.4410400391</ele>
        <time>2017-12-17T08:21:53Z</time>
      </trkpt>
      <trkpt lat="45.31367" lon="5.83537">
        <ele>1697.4410400391</ele>
        <time>2017-12-17T08:26:14Z</time>
      </trkpt>
      <trkpt lat="45.3137" lon="5.83542">
        <ele>1696.4410400391</ele>
        <time>2017-12-17T08:26:19Z</time>
      </trkpt>
      <trkpt lat="45.31372" lon="5.83548">
        <ele>1697.4410400391</ele>
        <time>2017-12-17T08:26:24Z</time>
      </trkpt>
      <trkpt lat="45.31374" lon="5.83555">
        <ele>1698.4410400391</ele>
        <time>2017-12-17T08:26:29Z</time>
      </trkpt>
      <trkpt lat="45.31375" lon="5.83562">
        <ele>1699.4410400391</ele>
        <time>2017-12-17T08:26:37Z</time>
      </trkpt>
      <trkpt lat="45.31374" lon="5.83568">
        <ele>1700.4410400391</ele>
        <time>2017-12-17T08:26:42Z</time>
      </trkpt>
      <trkpt lat="45.31374" lon="5.83575">
        <ele>1701.4410400391</ele>
        <time>2017-12-17T08:26:47Z</time>
      </trkpt>
      <trkpt lat="45.31375" lon="5.83581">
        <ele>1704.4410400391</ele>
        <time>2017-12-17T08:26:54Z</time>
      </trkpt>
      <trkpt lat="45.31374" lon="5.83589">
        <ele>1701.4410400391</ele>
        <time>2017-12-17T08:27:01Z</time>
      </trkpt>
      <trkpt lat="45.31375" lon="5.83596">
        <ele>1703.4410400391</ele>
        <time>2017-12-17T08:27:07Z</time>
      </trkpt>
      <trkpt lat="45.31374" lon="5.83603">
        <ele>1707.4410400391</ele>
        <time>2017-12-17T08:27:12Z</time>
      </trkpt>
      <trkpt lat="45.31374" lon="5.8361">
        <ele>1708.4410400391</ele>
        <time>2017-12-17T08:27:16Z</time>
      </trkpt>
      <trkpt lat="45.31373" lon="5.83616">
        <ele>1710.4410400391</ele>
        <time>2017-12-17T08:27:22Z</time>
      </trkpt>
      <trkpt lat="45.31368" lon="5.83616">
        <ele>1725.4410400391</ele>
        <time>2017-12-17T08:27:27Z</time>
      </trkpt>
      <trkpt lat="45.31363" lon="5.83615">
        <ele>1717.4410400391</ele>
        <time>2017-12-17T08:27:34Z</time>
      </trkpt>
      <trkpt lat="45.31358" lon="5.83613">
        <ele>1718.4410400391</ele>
        <time>2017-12-17T08:27:40Z</time>
      </trkpt>
      <trkpt lat="45.31352" lon="5.83611">
        <ele>1720.4410400391</ele>
        <time>2017-12-17T08:27:46Z</time>
      </trkpt>
      <trkpt lat="45.31347" lon="5.83608">
        <ele>1720.4410400391</ele>
        <time>2017-12-17T08:27:53Z</time>
      </trkpt>
      <trkpt lat="45.31342" lon="5.83608">
        <ele>1721.4410400391</ele>
        <time>2017-12-17T08:27:59Z</time>
      </trkpt>
      <trkpt lat="45.31338" lon="5.83609">
        <ele>1721.4410400391</ele>
        <time>2017-12-17T08:28:05Z</time>
      </trkpt>
      <trkpt lat="45.31333" lon="5.8361">
        <ele>1720.4410400391</ele>
        <time>2017-12-17T08:28:11Z</time>
      </trkpt>
      <trkpt lat="45.31328" lon="5.83607">
        <ele>1722.4410400391</ele>
        <time>2017-12-17T08:28:17Z</time>
      </trkpt>
      <trkpt lat="45.31324" lon="5.83604">
        <ele>1724.4410400391</ele>
        <time>2017-12-17T08:28:21Z</time>
      </trkpt>
      <trkpt lat="45.3132" lon="5.836">
        <ele>1725.4410400391</ele>
        <time>2017-12-17T08:28:24Z</time>
      </trkpt>
      <trkpt lat="45.31315" lon="5.83595">
        <ele>1725.4410400391</ele>
        <time>2017-12-17T08:28:28Z</time>
      </trkpt>
      <trkpt lat="45.3131" lon="5.83595">
        <ele>1727.4410400391</ele>
        <time>2017-12-17T08:28:32Z</time>
      </trkpt>
      <trkpt lat="45.31306" lon="5.83593">
        <ele>1727.4410400391</ele>
        <time>2017-12-17T08:28:36Z</time>
      </trkpt>
      <trkpt lat="45.31301" lon="5.83592">
        <ele>1728.4410400391</ele>
        <time>2017-12-17T08:28:41Z</time>
      </trkpt>
      <trkpt lat="45.31297" lon="5.83594">
        <ele>1729.4410400391</ele>
        <time>2017-12-17T08:28:51Z</time>
      </trkpt>
      <trkpt lat="45.31292" lon="5.83594">
        <ele>1731.4410400391</ele>
        <time>2017-12-17T08:29:01Z</time>
      </trkpt>
      <trkpt lat="45.31287" lon="5.83594">
        <ele>1731.4410400391</ele>
        <time>2017-12-17T08:29:06Z</time>
      </trkpt>
      <trkpt lat="45.31282" lon="5.83593">
        <ele>1733.4410400391</ele>
        <time>2017-12-17T08:29:10Z</time>
      </trkpt>
      <trkpt lat="45.31277" lon="5.8359">
        <ele>1734.4410400391</ele>
        <time>2017-12-17T08:29:14Z</time>
      </trkpt>
      <trkpt lat="45.31272" lon="5.83587">
        <ele>1735.4399414062</ele>
        <time>2017-12-17T08:29:20Z</time>
      </trkpt>
      <trkpt lat="45.31267" lon="5.83585">
        <ele>1738.4399414062</ele>
        <time>2017-12-17T08:29:24Z</time>
      </trkpt>
      <trkpt lat="45.31261" lon="5.83584">
        <ele>1739.4399414062</ele>
        <time>2017-12-17T08:29:29Z</time>
      </trkpt>
      <trkpt lat="45.31256" lon="5.83583">
        <ele>1740.4399414062</ele>
        <time>2017-12-17T08:29:34Z</time>
      </trkpt>
      <trkpt lat="45.31251" lon="5.83581">
        <ele>1741.4399414062</ele>
        <time>2017-12-17T08:29:37Z</time>
      </trkpt>
      <trkpt lat="45.31246" lon="5.83582">
        <ele>1742.4399414062</ele>
        <time>2017-12-17T08:29:41Z</time>
      </trkpt>
      <trkpt lat="45.31242" lon="5.83582">
        <ele>1743.4399414062</ele>
        <time>2017-12-17T08:29:46Z</time>
      </trkpt>
      <trkpt lat="45.31238" lon="5.8358">
        <ele>1744.4399414062</ele>
        <time>2017-12-17T08:29:50Z</time>
      </trkpt>
      <trkpt lat="45.31233" lon="5.83579">
        <ele>1745.4399414062</ele>
        <time>2017-12-17T08:29:54Z</time>
      </trkpt>
      <trkpt lat="45.31228" lon="5.83579">
        <ele>1746.4399414062</ele>
        <time>2017-12-17T08:29:59Z</time>
      </trkpt>
      <trkpt lat="45.31223" lon="5.83577">
        <ele>1746.4399414062</ele>
        <time>2017-12-17T08:30:04Z</time>
      </trkpt>
      <trkpt lat="45.31218" lon="5.83574">
        <ele>1747.4399414062</ele>
        <time>2017-12-17T08:30:09Z</time>
      </trkpt>
      <trkpt lat="45.31214" lon="5.83571">
        <ele>1747.4399414062</ele>
        <time>2017-12-17T08:30:13Z</time>
      </trkpt>
      <trkpt lat="45.31208" lon="5.83568">
        <ele>1748.4399414062</ele>
        <time>2017-12-17T08:30:21Z</time>
      </trkpt>
      <trkpt lat="45.31202" lon="5.83569">
        <ele>1748.4399414062</ele>
        <time>2017-12-17T08:30:26Z</time>
      </trkpt>
      <trkpt lat="45.31197" lon="5.83568">
        <ele>1750.4399414062</ele>
        <time>2017-12-17T08:30:31Z</time>
      </trkpt>
      <trkpt lat="45.31193" lon="5.83565">
        <ele>1752.4399414062</ele>
        <time>2017-12-17T08:30:35Z</time>
      </trkpt>
      <trkpt lat="45.31189" lon="5.83564">
        <ele>1753.4399414062</ele>
        <time>2017-12-17T08:30:39Z</time>
      </trkpt>
      <trkpt lat="45.31184" lon="5.83561">
        <ele>1755.4399414062</ele>
        <time>2017-12-17T08:30:45Z</time>
      </trkpt>
      <trkpt lat="45.3118" lon="5.83559">
        <ele>1755.4399414062</ele>
        <time>2017-12-17T08:30:50Z</time>
      </trkpt>
      <trkpt lat="45.31175" lon="5.83557">
        <ele>1757.4399414062</ele>
        <time>2017-12-17T08:30:55Z</time>
      </trkpt>
      <trkpt lat="45.31169" lon="5.83554">
        <ele>1758.4399414062</ele>
        <time>2017-12-17T08:31:00Z</time>
      </trkpt>
      <trkpt lat="45.31164" lon="5.83553">
        <ele>1760.4399414062</ele>
        <time>2017-12-17T08:31:04Z</time>
      </trkpt>
      <trkpt lat="45.31159" lon="5.83553">
        <ele>1760.4399414062</ele>
        <time>2017-12-17T08:31:09Z</time>
      </trkpt>
      <trkpt lat="45.31154" lon="5.83551">
        <ele>1760.4399414062</ele>
        <time>2017-12-17T08:31:15Z</time>
      </trkpt>
      <trkpt lat="45.31148" lon="5.83552">
        <ele>1762.4399414062</ele>
        <time>2017-12-17T08:31:21Z</time>
      </trkpt>
      <trkpt lat="45.31144" lon="5.8355">
        <ele>1763.4399414062</ele>
        <time>2017-12-17T08:31:25Z</time>
      </trkpt>
      <trkpt lat="45.31139" lon="5.8355">
        <ele>1763.4399414062</ele>
        <time>2017-12-17T08:31:29Z</time>
      </trkpt>
      <trkpt lat="45.31135" lon="5.83549">
        <ele>1764.4399414062</ele>
        <time>2017-12-17T08:31:33Z</time>
      </trkpt>
      <trkpt lat="45.3113" lon="5.83548">
        <ele>1766.4399414062</ele>
        <time>2017-12-17T08:32:30Z</time>
      </trkpt>
      <trkpt lat="45.31125" lon="5.83546">
        <ele>1765.4399414062</ele>
        <time>2017-12-17T08:32:34Z</time>
      </trkpt>
      <trkpt lat="45.31117" lon="5.83546">
        <ele>1765.4399414062</ele>
        <time>2017-12-17T08:32:38Z</time>
      </trkpt>
      <trkpt lat="45.31113" lon="5.83547">
        <ele>1762.4399414062</ele>
        <time>2017-12-17T08:32:46Z</time>
      </trkpt>
      <trkpt lat="45.31109" lon="5.83555">
        <ele>1761.4399414062</ele>
        <time>2017-12-17T08:32:49Z</time>
      </trkpt>
      <trkpt lat="45.31104" lon="5.83564">
        <ele>1759.4399414062</ele>
        <time>2017-12-17T08:32:51Z</time>
      </trkpt>
      <trkpt lat="45.31097" lon="5.83563">
        <ele>1757.4399414062</ele>
        <time>2017-12-17T08:32:52Z</time>
      </trkpt>
      <trkpt lat="45.31085" lon="5.83566">
        <ele>1755.4399414062</ele>
        <time>2017-12-17T08:32:54Z</time>
      </trkpt>
      <trkpt lat="45.31071" lon="5.83568">
        <ele>1753.4399414062</ele>
        <time>2017-12-17T08:32:56Z</time>
      </trkpt>
      <trkpt lat="45.31059" lon="5.83569">
        <ele>1751.4399414062</ele>
        <time>2017-12-17T08:32:58Z</time>
      </trkpt>
      <trkpt lat="45.31051" lon="5.83566">
        <ele>1751.4399414062</ele>
        <time>2017-12-17T08:32:59Z</time>
      </trkpt>
      <trkpt lat="45.31038" lon="5.83565">
        <ele>1749.4399414062</ele>
        <time>2017-12-17T08:33:01Z</time>
      </trkpt>
      <trkpt lat="45.31028" lon="5.83564">
        <ele>1749.4399414062</ele>
        <time>2017-12-17T08:33:03Z</time>
      </trkpt>
      <trkpt lat="45.31022" lon="5.83559">
        <ele>1748.4399414062</ele>
        <time>2017-12-17T08:33:06Z</time>
      </trkpt>
      <trkpt lat="45.31025" lon="5.83554">
        <ele>1746.4399414062</ele>
        <time>2017-12-17T08:33:25Z</time>
      </trkpt>
      <trkpt lat="45.3103" lon="5.83554">
        <ele>1745.4399414062</ele>
        <time>2017-12-17T08:33:29Z</time>
      </trkpt>
      <trkpt lat="45.31037" lon="5.8355">
        <ele>1743.4399414062</ele>
        <time>2017-12-17T08:33:32Z</time>
      </trkpt>
      <trkpt lat="45.31047" lon="5.83539">
        <ele>1741.4399414062</ele>
        <time>2017-12-17T08:33:35Z</time>
      </trkpt>
      <trkpt lat="45.31054" lon="5.83532">
        <ele>1741.4399414062</ele>
        <time>2017-12-17T08:33:37Z</time>
      </trkpt>
      <trkpt lat="45.31058" lon="5.83524">
        <ele>1740.4399414062</ele>
        <time>2017-12-17T08:33:39Z</time>
      </trkpt>
      <trkpt lat="45.31064" lon="5.83508">
        <ele>1738.4399414062</ele>
        <time>2017-12-17T08:33:41Z</time>
      </trkpt>
      <trkpt lat="45.31067" lon="5.83486">
        <ele>1737.4399414062</ele>
        <time>2017-12-17T08:33:44Z</time>
      </trkpt>
      <trkpt lat="45.31065" lon="5.83477">
        <ele>1734.4399414062</ele>
        <time>2017-12-17T08:33:45Z</time>
      </trkpt>
      <trkpt lat="45.3106" lon="5.83462">
        <ele>1734.4399414062</ele>
        <time>2017-12-17T08:33:47Z</time>
      </trkpt>
      <trkpt lat="45.31052" lon="5.83449">
        <ele>1734.4399414062</ele>
        <time>2017-12-17T08:33:49Z</time>
      </trkpt>
      <trkpt lat="45.31044" lon="5.83437">
        <ele>1732.4399414062</ele>
        <time>2017-12-17T08:33:51Z</time>
      </trkpt>
      <trkpt lat="45.31039" lon="5.83417">
        <ele>1609.4399414062</ele>
        <time>2017-12-17T08:33:54Z</time>
      </trkpt>
      <trkpt lat="45.31034" lon="5.834">
        <ele>1646.4399414062</ele>
        <time>2017-12-17T08:33:56Z</time>
      </trkpt>
      <trkpt lat="45.31028" lon="5.83381">
        <ele>1667.4399414062</ele>
        <time>2017-12-17T08:33:59Z</time>
      </trkpt>
      <trkpt lat="45.31024" lon="5.83364">
        <ele>1675.4399414062</ele>
        <time>2017-12-17T08:34:01Z</time>
      </trkpt>
      <trkpt lat="45.31012" lon="5.8336">
        <ele>1679.4399414062</ele>
        <time>2017-12-17T08:34:03Z</time>
      </trkpt>
      <trkpt lat="45.31002" lon="5.83349">
        <ele>1680.4399414062</ele>
        <time>2017-12-17T08:34:05Z</time>
      </trkpt>
      <trkpt lat="45.30996" lon="5.83335">
        <ele>1679.4399414062</ele>
        <time>2017-12-17T08:34:07Z</time>
      </trkpt>
      <trkpt lat="45.30995" lon="5.83315">
        <ele>1673.4399414062</ele>
        <time>2017-12-17T08:34:09Z</time>
      </trkpt>
      <trkpt lat="45.30988" lon="5.83297">
        <ele>1672.4399414062</ele>
        <time>2017-12-17T08:34:11Z</time>
      </trkpt>
      <trkpt lat="45.3098" lon="5.83294">
        <ele>1666.4389648438</ele>
        <time>2017-12-17T08:34:13Z</time>
      </trkpt>
      <trkpt lat="45.30968" lon="5.83292">
        <ele>1662.4389648438</ele>
        <time>2017-12-17T08:34:15Z</time>
      </trkpt>
      <trkpt lat="45.30956" lon="5.83289">
        <ele>1657.4389648438</ele>
        <time>2017-12-17T08:34:17Z</time>
      </trkpt>
      <trkpt lat="45.30943" lon="5.83292">
        <ele>1651.4389648438</ele>
        <time>2017-12-17T08:34:19Z</time>
      </trkpt>
      <trkpt lat="45.30938" lon="5.83295">
        <ele>1650.4389648438</ele>
        <time>2017-12-17T08:34:20Z</time>
      </trkpt>
      <trkpt lat="45.30927" lon="5.833">
        <ele>1646.4389648438</ele>
        <time>2017-12-17T08:34:22Z</time>
      </trkpt>
      <trkpt lat="45.30922" lon="5.83303">
        <ele>1645.4389648438</ele>
        <time>2017-12-17T08:34:23Z</time>
      </trkpt>
      <trkpt lat="45.30925" lon="5.83308">
        <ele>1635.4389648438</ele>
        <time>2017-12-17T08:34:28Z</time>
      </trkpt>
      <trkpt lat="45.30912" lon="5.83307">
        <ele>1350.4389648438</ele>
        <time>2017-12-17T08:34:32Z</time>
      </trkpt>
      <trkpt lat="45.30899" lon="5.83306">
        <ele>1467.4389648438</ele>
        <time>2017-12-17T08:34:35Z</time>
      </trkpt>
      <trkpt lat="45.30889" lon="5.83292">
        <ele>1524.4389648438</ele>
        <time>2017-12-17T08:34:37Z</time>
      </trkpt>
      <trkpt lat="45.3088" lon="5.83281">
        <ele>1530.4389648438</ele>
        <time>2017-12-17T08:34:39Z</time>
      </trkpt>
      <trkpt lat="45.30864" lon="5.83266">
        <ele>1542.4389648438</ele>
        <time>2017-12-17T08:34:42Z</time>
      </trkpt>
      <trkpt lat="45.30859" lon="5.83263">
        <ele>1543.4389648438</ele>
        <time>2017-12-17T08:34:43Z</time>
      </trkpt>
      <trkpt lat="45.30854" lon="5.83254">
        <ele>1550.4389648438</ele>
        <time>2017-12-17T08:34:44Z</time>
      </trkpt>
      <trkpt lat="45.30849" lon="5.83239">
        <ele>1551.4389648438</ele>
        <time>2017-12-17T08:34:46Z</time>
      </trkpt>
      <trkpt lat="45.3085" lon="5.83221">
        <ele>1556.4389648438</ele>
        <time>2017-12-17T08:34:48Z</time>
      </trkpt>
      <trkpt lat="45.30847" lon="5.83208">
        <ele>1556.4389648438</ele>
        <time>2017-12-17T08:34:50Z</time>
      </trkpt>
      <trkpt lat="45.30851" lon="5.83195">
        <ele>1556.4389648438</ele>
        <time>2017-12-17T08:34:52Z</time>
      </trkpt>
      <trkpt lat="45.30851" lon="5.83179">
        <ele>1567.4389648438</ele>
        <time>2017-12-17T08:34:59Z</time>
      </trkpt>
      <trkpt lat="45.30855" lon="5.83175">
        <ele>1564.4389648438</ele>
        <time>2017-12-17T08:35:01Z</time>
      </trkpt>
      <trkpt lat="45.30861" lon="5.83179">
        <ele>1560.4389648438</ele>
        <time>2017-12-17T08:35:05Z</time>
      </trkpt>
      <trkpt lat="45.30866" lon="5.83174">
        <ele>1556.4389648438</ele>
        <time>2017-12-17T08:35:08Z</time>
      </trkpt>
      <trkpt lat="45.3086" lon="5.83166">
        <ele>1552.4389648438</ele>
        <time>2017-12-17T08:35:11Z</time>
      </trkpt>
      <trkpt lat="45.30855" lon="5.83158">
        <ele>1550.4389648438</ele>
        <time>2017-12-17T08:35:13Z</time>
      </trkpt>
      <trkpt lat="45.30849" lon="5.8315">
        <ele>1548.4389648438</ele>
        <time>2017-12-17T08:35:15Z</time>
      </trkpt>
      <trkpt lat="45.30846" lon="5.83143">
        <ele>1546.4389648438</ele>
        <time>2017-12-17T08:35:16Z</time>
      </trkpt>
      <trkpt lat="45.30844" lon="5.83136">
        <ele>1537.4389648438</ele>
        <time>2017-12-17T08:35:20Z</time>
      </trkpt>
      <trkpt lat="45.30844" lon="5.8313">
        <ele>1534.4389648438</ele>
        <time>2017-12-17T08:35:22Z</time>
      </trkpt>
      <trkpt lat="45.3084" lon="5.83125">
        <ele>1535.4389648438</ele>
        <time>2017-12-17T08:35:24Z</time>
      </trkpt>
      <trkpt lat="45.30834" lon="5.83113">
        <ele>1532.4389648438</ele>
        <time>2017-12-17T08:35:26Z</time>
      </trkpt>
      <trkpt lat="45.30826" lon="5.83098">
        <ele>1527.4389648438</ele>
        <time>2017-12-17T08:35:29Z</time>
      </trkpt>
      <trkpt lat="45.30824" lon="5.83087">
        <ele>1527.4389648438</ele>
        <time>2017-12-17T08:35:31Z</time>
      </trkpt>
      <trkpt lat="45.30824" lon="5.8308">
        <ele>1525.4389648438</ele>
        <time>2017-12-17T08:35:33Z</time>
      </trkpt>
      <trkpt lat="45.30823" lon="5.83073">
        <ele>1524.4389648438</ele>
        <time>2017-12-17T08:35:35Z</time>
      </trkpt>
      <trkpt lat="45.30821" lon="5.83064">
        <ele>1523.4389648438</ele>
        <time>2017-12-17T08:35:37Z</time>
      </trkpt>
      <trkpt lat="45.30815" lon="5.83052">
        <ele>1523.4389648438</ele>
        <time>2017-12-17T08:35:39Z</time>
      </trkpt>
      <trkpt lat="45.30809" lon="5.83051">
        <ele>1520.4389648438</ele>
        <time>2017-12-17T08:35:41Z</time>
      </trkpt>
      <trkpt lat="45.30794" lon="5.83049">
        <ele>1518.4389648438</ele>
        <time>2017-12-17T08:35:45Z</time>
      </trkpt>
      <trkpt lat="45.30784" lon="5.83046">
        <ele>1518.4389648438</ele>
        <time>2017-12-17T08:35:47Z</time>
      </trkpt>
      <trkpt lat="45.3077" lon="5.83036">
        <ele>1517.4389648438</ele>
        <time>2017-12-17T08:35:50Z</time>
      </trkpt>
      <trkpt lat="45.30759" lon="5.83031">
        <ele>1507.4389648438</ele>
        <time>2017-12-17T08:35:53Z</time>
      </trkpt>
      <trkpt lat="45.30756" lon="5.83025">
        <ele>1505.4389648438</ele>
        <time>2017-12-17T08:35:55Z</time>
      </trkpt>
      <trkpt lat="45.30748" lon="5.83012">
        <ele>1503.4389648438</ele>
        <time>2017-12-17T08:35:57Z</time>
      </trkpt>
      <trkpt lat="45.3074" lon="5.83011">
        <ele>1499.4389648438</ele>
        <time>2017-12-17T08:35:59Z</time>
      </trkpt>
      <trkpt lat="45.30728" lon="5.83014">
        <ele>1496.4389648438</ele>
        <time>2017-12-17T08:36:02Z</time>
      </trkpt>
      <trkpt lat="45.30721" lon="5.83018">
        <ele>1491.4389648438</ele>
        <time>2017-12-17T08:36:04Z</time>
      </trkpt>
      <trkpt lat="45.30714" lon="5.83025">
        <ele>1488.4389648438</ele>
        <time>2017-12-17T08:36:06Z</time>
      </trkpt>
      <trkpt lat="45.3071" lon="5.8303">
        <ele>1476.4389648438</ele>
        <time>2017-12-17T08:36:10Z</time>
      </trkpt>
      <trkpt lat="45.30706" lon="5.83027">
        <ele>1471.4389648438</ele>
        <time>2017-12-17T08:36:15Z</time>
      </trkpt>
      <trkpt lat="45.30701" lon="5.83027">
        <ele>1466.4389648438</ele>
        <time>2017-12-17T08:36:35Z</time>
      </trkpt>
      <trkpt lat="45.30694" lon="5.83028">
        <ele>1463.4389648438</ele>
        <time>2017-12-17T08:36:37Z</time>
      </trkpt>
      <trkpt lat="45.30689" lon="5.8303">
        <ele>1461.4389648438</ele>
        <time>2017-12-17T08:36:38Z</time>
      </trkpt>
      <trkpt lat="45.30686" lon="5.83025">
        <ele>1458.4389648438</ele>
        <time>2017-12-17T08:36:40Z</time>
      </trkpt>
      <trkpt lat="45.30678" lon="5.83024">
        <ele>1449.4379882812</ele>
        <time>2017-12-17T08:36:47Z</time>
      </trkpt>
      <trkpt lat="45.30669" lon="5.83025">
        <ele>1446.4379882812</ele>
        <time>2017-12-17T08:36:49Z</time>
      </trkpt>
      <trkpt lat="45.3066" lon="5.83019">
        <ele>1442.4379882812</ele>
        <time>2017-12-17T08:36:51Z</time>
      </trkpt>
      <trkpt lat="45.30653" lon="5.83025">
        <ele>1438.4379882812</ele>
        <time>2017-12-17T08:36:53Z</time>
      </trkpt>
      <trkpt lat="45.30647" lon="5.83026">
        <ele>1437.4379882812</ele>
        <time>2017-12-17T08:36:54Z</time>
      </trkpt>
      <trkpt lat="45.30642" lon="5.83027">
        <ele>1436.4379882812</ele>
        <time>2017-12-17T08:36:55Z</time>
      </trkpt>
      <trkpt lat="45.30628" lon="5.83019">
        <ele>1433.4379882812</ele>
        <time>2017-12-17T08:36:58Z</time>
      </trkpt>
      <trkpt lat="45.30618" lon="5.83011">
        <ele>1431.4379882812</ele>
        <time>2017-12-17T08:37:00Z</time>
      </trkpt>
      <trkpt lat="45.30618" lon="5.8303">
        <ele>1428.4379882812</ele>
        <time>2017-12-17T08:37:01Z</time>
      </trkpt>
      <trkpt lat="45.30612" lon="5.83045">
        <ele>1424.4379882812</ele>
        <time>2017-12-17T08:37:03Z</time>
      </trkpt>
      <trkpt lat="45.30606" lon="5.83058">
        <ele>1421.4379882812</ele>
        <time>2017-12-17T08:37:05Z</time>
      </trkpt>
      <trkpt lat="45.30601" lon="5.83068">
        <ele>1419.4379882812</ele>
        <time>2017-12-17T08:37:06Z</time>
      </trkpt>
      <trkpt lat="45.30597" lon="5.83073">
        <ele>1418.4379882812</ele>
        <time>2017-12-17T08:37:07Z</time>
      </trkpt>
      <trkpt lat="45.30592" lon="5.83079">
        <ele>1417.4379882812</ele>
        <time>2017-12-17T08:37:08Z</time>
      </trkpt>
      <trkpt lat="45.3058" lon="5.83087">
        <ele>1409.4379882812</ele>
        <time>2017-12-17T08:37:19Z</time>
      </trkpt>
      <trkpt lat="45.30563" lon="5.83088">
        <ele>1409.4379882812</ele>
        <time>2017-12-17T08:37:22Z</time>
      </trkpt>
      <trkpt lat="45.30552" lon="5.83081">
        <ele>1408.4379882812</ele>
        <time>2017-12-17T08:37:24Z</time>
      </trkpt>
      <trkpt lat="45.30538" lon="5.83076">
        <ele>1407.4379882812</ele>
        <time>2017-12-17T08:37:26Z</time>
      </trkpt>
      <trkpt lat="45.30528" lon="5.83072">
        <ele>1405.4379882812</ele>
        <time>2017-12-17T08:37:28Z</time>
      </trkpt>
      <trkpt lat="45.30516" lon="5.83053">
        <ele>1401.4379882812</ele>
        <time>2017-12-17T08:37:31Z</time>
      </trkpt>
      <trkpt lat="45.30512" lon="5.83048">
        <ele>1400.4379882812</ele>
        <time>2017-12-17T08:37:32Z</time>
      </trkpt>
      <trkpt lat="45.30504" lon="5.83047">
        <ele>1397.4379882812</ele>
        <time>2017-12-17T08:37:34Z</time>
      </trkpt>
      <trkpt lat="45.305" lon="5.83044">
        <ele>1397.4379882812</ele>
        <time>2017-12-17T08:37:35Z</time>
      </trkpt>
      <trkpt lat="45.30488" lon="5.83039">
        <ele>1389.4379882812</ele>
        <time>2017-12-17T08:37:38Z</time>
      </trkpt>
      <trkpt lat="45.30478" lon="5.83038">
        <ele>1385.4379882812</ele>
        <time>2017-12-17T08:37:40Z</time>
      </trkpt>
      <trkpt lat="45.30468" lon="5.83035">
        <ele>1383.4379882812</ele>
        <time>2017-12-17T08:37:42Z</time>
      </trkpt>
      <trkpt lat="45.30457" lon="5.83037">
        <ele>1378.4379882812</ele>
        <time>2017-12-17T08:37:44Z</time>
      </trkpt>
      <trkpt lat="45.30446" lon="5.83038">
        <ele>1368.4379882812</ele>
        <time>2017-12-17T08:37:47Z</time>
      </trkpt>
      <trkpt lat="45.30441" lon="5.83027">
        <ele>1363.4379882812</ele>
        <time>2017-12-17T08:37:50Z</time>
      </trkpt>
      <trkpt lat="45.30437" lon="5.83017">
        <ele>1360.4379882812</ele>
        <time>2017-12-17T08:37:52Z</time>
      </trkpt>
      <trkpt lat="45.30435" lon="5.83008">
        <ele>1359.4379882812</ele>
        <time>2017-12-17T08:37:56Z</time>
      </trkpt>
      <trkpt lat="45.30432" lon="5.83014">
        <ele>1348.4379882812</ele>
        <time>2017-12-17T08:39:38Z</time>
      </trkpt>
      <trkpt lat="45.30429" lon="5.8302">
        <ele>1345.4379882812</ele>
        <time>2017-12-17T08:39:42Z</time>
      </trkpt>
      <trkpt lat="45.30426" lon="5.83026">
        <ele>1342.4379882812</ele>
        <time>2017-12-17T08:39:47Z</time>
      </trkpt>
      <trkpt lat="45.30422" lon="5.83028">
        <ele>1344.4379882812</ele>
        <time>2017-12-17T08:39:52Z</time>
      </trkpt>
      <trkpt lat="45.30418" lon="5.83033">
        <ele>1344.4379882812</ele>
        <time>2017-12-17T08:39:56Z</time>
      </trkpt>
      <trkpt lat="45.30414" lon="5.83037">
        <ele>1342.4379882812</ele>
        <time>2017-12-17T08:40:00Z</time>
      </trkpt>
      <trkpt lat="45.3041" lon="5.8304">
        <ele>1341.4379882812</ele>
        <time>2017-12-17T08:40:04Z</time>
      </trkpt>
      <trkpt lat="45.30405" lon="5.83041">
        <ele>1343.4379882812</ele>
        <time>2017-12-17T08:40:08Z</time>
      </trkpt>
      <trkpt lat="45.30401" lon="5.83047">
        <ele>1344.4379882812</ele>
        <time>2017-12-17T08:40:14Z</time>
      </trkpt>
      <trkpt lat="45.30398" lon="5.83051">
        <ele>1343.4379882812</ele>
        <time>2017-12-17T08:40:18Z</time>
      </trkpt>
      <trkpt lat="45.30394" lon="5.83054">
        <ele>1345.4379882812</ele>
        <time>2017-12-17T08:40:22Z</time>
      </trkpt>
      <trkpt lat="45.30389" lon="5.83059">
        <ele>1345.4379882812</ele>
        <time>2017-12-17T08:40:31Z</time>
      </trkpt>
      <trkpt lat="45.30386" lon="5.83065">
        <ele>1344.4379882812</ele>
        <time>2017-12-17T08:40:34Z</time>
      </trkpt>
      <trkpt lat="45.30382" lon="5.83069">
        <ele>1346.4379882812</ele>
        <time>2017-12-17T08:40:37Z</time>
      </trkpt>
      <trkpt lat="45.30379" lon="5.83075">
        <ele>1344.4379882812</ele>
        <time>2017-12-17T08:40:40Z</time>
      </trkpt>
      <trkpt lat="45.30373" lon="5.83076">
        <ele>1347.4379882812</ele>
        <time>2017-12-17T08:40:44Z</time>
      </trkpt>
      <trkpt lat="45.30372" lon="5.83083">
        <ele>1345.4379882812</ele>
        <time>2017-12-17T08:40:49Z</time>
      </trkpt>
      <trkpt lat="45.30368" lon="5.83089">
        <ele>1346.4379882812</ele>
        <time>2017-12-17T08:40:53Z</time>
      </trkpt>
      <trkpt lat="45.30364" lon="5.83093">
        <ele>1351.4379882812</ele>
        <time>2017-12-17T08:40:58Z</time>
      </trkpt>
      <trkpt lat="45.30361" lon="5.83098">
        <ele>1350.4379882812</ele>
        <time>2017-12-17T08:41:03Z</time>
      </trkpt>
      <trkpt lat="45.30357" lon="5.83103">
        <ele>1351.4379882812</ele>
        <time>2017-12-17T08:41:08Z</time>
      </trkpt>
      <trkpt lat="45.30353" lon="5.83107">
        <ele>1354.4379882812</ele>
        <time>2017-12-17T08:41:12Z</time>
      </trkpt>
      <trkpt lat="45.30349" lon="5.83114">
        <ele>1353.4379882812</ele>
        <time>2017-12-17T08:41:18Z</time>
      </trkpt>
      <trkpt lat="45.30347" lon="5.8312">
        <ele>1352.4379882812</ele>
        <time>2017-12-17T08:41:23Z</time>
      </trkpt>
      <trkpt lat="45.30344" lon="5.83125">
        <ele>1354.4379882812</ele>
        <time>2017-12-17T08:41:28Z</time>
      </trkpt>
      <trkpt lat="45.3034" lon="5.8313">
        <ele>1356.4379882812</ele>
        <time>2017-12-17T08:41:34Z</time>
      </trkpt>
      <trkpt lat="45.30338" lon="5.83136">
        <ele>1357.4379882812</ele>
        <time>2017-12-17T08:41:38Z</time>
      </trkpt>
      <trkpt lat="45.30336" lon="5.83143">
        <ele>1356.4379882812</ele>
        <time>2017-12-17T08:41:41Z</time>
      </trkpt>
      <trkpt lat="45.30332" lon="5.83148">
        <ele>1361.4379882812</ele>
        <time>2017-12-17T08:41:47Z</time>
      </trkpt>
      <trkpt lat="45.30329" lon="5.83153">
        <ele>1361.4379882812</ele>
        <time>2017-12-17T08:41:51Z</time>
      </trkpt>
      <trkpt lat="45.30326" lon="5.83159">
        <ele>1361.4379882812</ele>
        <time>2017-12-17T08:41:55Z</time>
      </trkpt>
      <trkpt lat="45.30322" lon="5.83164">
        <ele>1363.4379882812</ele>
        <time>2017-12-17T08:42:00Z</time>
      </trkpt>
      <trkpt lat="45.30319" lon="5.83169">
        <ele>1363.4379882812</ele>
        <time>2017-12-17T08:42:04Z</time>
      </trkpt>
      <trkpt lat="45.30314" lon="5.83173">
        <ele>1365.4379882812</ele>
        <time>2017-12-17T08:42:09Z</time>
      </trkpt>
      <trkpt lat="45.30311" lon="5.83179">
        <ele>1367.4379882812</ele>
        <time>2017-12-17T08:42:14Z</time>
      </trkpt>
      <trkpt lat="45.30308" lon="5.83185">
        <ele>1367.4379882812</ele>
        <time>2017-12-17T08:42:19Z</time>
      </trkpt>
      <trkpt lat="45.30304" lon="5.83191">
        <ele>1365.4379882812</ele>
        <time>2017-12-17T08:42:24Z</time>
      </trkpt>
      <trkpt lat="45.30299" lon="5.83193">
        <ele>1367.4379882812</ele>
        <time>2017-12-17T08:42:29Z</time>
      </trkpt>
      <trkpt lat="45.30294" lon="5.83198">
        <ele>1372.4379882812</ele>
        <time>2017-12-17T08:42:35Z</time>
      </trkpt>
      <trkpt lat="45.3029" lon="5.83201">
        <ele>1374.4379882812</ele>
        <time>2017-12-17T08:42:39Z</time>
      </trkpt>
      <trkpt lat="45.30285" lon="5.83204">
        <ele>1376.4379882812</ele>
        <time>2017-12-17T08:42:43Z</time>
      </trkpt>
      <trkpt lat="45.30281" lon="5.8321">
        <ele>1377.4379882812</ele>
        <time>2017-12-17T08:42:48Z</time>
      </trkpt>
      <trkpt lat="45.30276" lon="5.83212">
        <ele>1379.4379882812</ele>
        <time>2017-12-17T08:42:52Z</time>
      </trkpt>
      <trkpt lat="45.30272" lon="5.83215">
        <ele>1383.4379882812</ele>
        <time>2017-12-17T08:42:56Z</time>
      </trkpt>
      <trkpt lat="45.30268" lon="5.8322">
        <ele>1384.4379882812</ele>
        <time>2017-12-17T08:43:01Z</time>
      </trkpt>
      <trkpt lat="45.30265" lon="5.83225">
        <ele>1385.4379882812</ele>
        <time>2017-12-17T08:43:06Z</time>
      </trkpt>
      <trkpt lat="45.30261" lon="5.83229">
        <ele>1388.4379882812</ele>
        <time>2017-12-17T08:43:10Z</time>
      </trkpt>
      <trkpt lat="45.30256" lon="5.83231">
        <ele>1390.4379882812</ele>
        <time>2017-12-17T08:43:13Z</time>
      </trkpt>
      <trkpt lat="45.30253" lon="5.83237">
        <ele>1390.4379882812</ele>
        <time>2017-12-17T08:43:18Z</time>
      </trkpt>
      <trkpt lat="45.30248" lon="5.83241">
        <ele>1389.4379882812</ele>
        <time>2017-12-17T08:43:22Z</time>
      </trkpt>
      <trkpt lat="45.30243" lon="5.83244">
        <ele>1389.4379882812</ele>
        <time>2017-12-17T08:43:27Z</time>
      </trkpt>
      <trkpt lat="45.30242" lon="5.8325">
        <ele>1387.4379882812</ele>
        <time>2017-12-17T08:43:31Z</time>
      </trkpt>
      <trkpt lat="45.30236" lon="5.83254">
        <ele>1389.4379882812</ele>
        <time>2017-12-17T08:43:36Z</time>
      </trkpt>
      <trkpt lat="45.30231" lon="5.83256">
        <ele>1387.4379882812</ele>
        <time>2017-12-17T08:43:41Z</time>
      </trkpt>
      <trkpt lat="45.30226" lon="5.83259">
        <ele>1387.4379882812</ele>
        <time>2017-12-17T08:43:45Z</time>
      </trkpt>
      <trkpt lat="45.30221" lon="5.83261">
        <ele>1387.4379882812</ele>
        <time>2017-12-17T08:43:48Z</time>
      </trkpt>
      <trkpt lat="45.30216" lon="5.83262">
        <ele>1387.4379882812</ele>
        <time>2017-12-17T08:43:51Z</time>
      </trkpt>
      <trkpt lat="45.3021" lon="5.83263">
        <ele>1385.4379882812</ele>
        <time>2017-12-17T08:43:55Z</time>
      </trkpt>
      <trkpt lat="45.30206" lon="5.83266">
        <ele>1385.4379882812</ele>
        <time>2017-12-17T08:43:58Z</time>
      </trkpt>
      <trkpt lat="45.302" lon="5.83267">
        <ele>1385.4379882812</ele>
        <time>2017-12-17T08:44:02Z</time>
      </trkpt>
      <trkpt lat="45.30197" lon="5.83272">
        <ele>1384.4379882812</ele>
        <time>2017-12-17T08:44:06Z</time>
      </trkpt>
      <trkpt lat="45.30192" lon="5.83276">
        <ele>1386.4379882812</ele>
        <time>2017-12-17T08:44:10Z</time>
      </trkpt>
      <trkpt lat="45.30188" lon="5.8328">
        <ele>1387.4379882812</ele>
        <time>2017-12-17T08:44:14Z</time>
      </trkpt>
      <trkpt lat="45.30183" lon="5.83284">
        <ele>1388.4379882812</ele>
        <time>2017-12-17T08:44:17Z</time>
      </trkpt>
      <trkpt lat="45.30178" lon="5.83287">
        <ele>1390.4379882812</ele>
        <time>2017-12-17T08:44:21Z</time>
      </trkpt>
      <trkpt lat="45.30172" lon="5.83287">
        <ele>1394.4379882812</ele>
        <time>2017-12-17T08:44:27Z</time>
      </trkpt>
      <trkpt lat="45.30166" lon="5.83288">
        <ele>1394.4379882812</ele>
        <time>2017-12-17T08:44:31Z</time>
      </trkpt>
      <trkpt lat="45.3016" lon="5.83288">
        <ele>1399.4379882812</ele>
        <time>2017-12-17T08:44:36Z</time>
      </trkpt>
      <trkpt lat="45.30157" lon="5.83293">
        <ele>1401.4379882812</ele>
        <time>2017-12-17T08:44:41Z</time>
      </trkpt>
      <trkpt lat="45.30153" lon="5.83299">
        <ele>1404.4379882812</ele>
        <time>2017-12-17T08:44:47Z</time>
      </trkpt>
      <trkpt lat="45.30149" lon="5.83303">
        <ele>1403.4379882812</ele>
        <time>2017-12-17T08:44:52Z</time>
      </trkpt>
      <trkpt lat="45.30146" lon="5.8331">
        <ele>1403.4379882812</ele>
        <time>2017-12-17T08:44:55Z</time>
      </trkpt>
      <trkpt lat="45.30142" lon="5.83316">
        <ele>1405.4379882812</ele>
        <time>2017-12-17T08:45:03Z</time>
      </trkpt>
      <trkpt lat="45.3014" lon="5.83321">
        <ele>1407.4379882812</ele>
        <time>2017-12-17T08:45:10Z</time>
      </trkpt>
      <trkpt lat="45.30134" lon="5.83327">
        <ele>1410.4379882812</ele>
        <time>2017-12-17T08:45:19Z</time>
      </trkpt>
      <trkpt lat="45.30129" lon="5.83326">
        <ele>1413.4379882812</ele>
        <time>2017-12-17T08:45:25Z</time>
      </trkpt>
      <trkpt lat="45.30126" lon="5.83321">
        <ele>1417.4379882812</ele>
        <time>2017-12-17T08:45:32Z</time>
      </trkpt>
      <trkpt lat="45.30121" lon="5.83323">
        <ele>1419.4379882812</ele>
        <time>2017-12-17T08:45:39Z</time>
      </trkpt>
      <trkpt lat="45.30117" lon="5.83328">
        <ele>1417.4379882812</ele>
        <time>2017-12-17T08:45:44Z</time>
      </trkpt>
      <trkpt lat="45.30113" lon="5.83332">
        <ele>1417.4379882812</ele>
        <time>2017-12-17T08:45:50Z</time>
      </trkpt>
      <trkpt lat="45.30108" lon="5.83329">
        <ele>1419.4379882812</ele>
        <time>2017-12-17T08:45:55Z</time>
      </trkpt>
      <trkpt lat="45.30109" lon="5.83322">
        <ele>1421.4379882812</ele>
        <time>2017-12-17T08:46:00Z</time>
      </trkpt>
      <trkpt lat="45.30105" lon="5.83329">
        <ele>1423.4379882812</ele>
        <time>2017-12-17T08:46:08Z</time>
      </trkpt>
      <trkpt lat="45.30101" lon="5.83332">
        <ele>1425.4379882812</ele>
        <time>2017-12-17T08:46:12Z</time>
      </trkpt>
      <trkpt lat="45.30096" lon="5.83336">
        <ele>1426.4379882812</ele>
        <time>2017-12-17T08:46:17Z</time>
      </trkpt>
      <trkpt lat="45.30091" lon="5.83339">
        <ele>1427.4379882812</ele>
        <time>2017-12-17T08:46:23Z</time>
      </trkpt>
      <trkpt lat="45.30086" lon="5.83341">
        <ele>1429.4379882812</ele>
        <time>2017-12-17T08:46:29Z</time>
      </trkpt>
      <trkpt lat="45.30081" lon="5.83342">
        <ele>1429.4379882812</ele>
        <time>2017-12-17T08:46:35Z</time>
      </trkpt>
      <trkpt lat="45.30077" lon="5.83347">
        <ele>1429.4379882812</ele>
        <time>2017-12-17T08:46:40Z</time>
      </trkpt>
      <trkpt lat="45.30073" lon="5.8335">
        <ele>1431.4379882812</ele>
        <time>2017-12-17T08:46:45Z</time>
      </trkpt>
      <trkpt lat="45.30068" lon="5.83353">
        <ele>1433.4379882812</ele>
        <time>2017-12-17T08:46:50Z</time>
      </trkpt>
      <trkpt lat="45.30065" lon="5.83357">
        <ele>1434.4379882812</ele>
        <time>2017-12-17T08:46:55Z</time>
      </trkpt>
      <trkpt lat="45.30061" lon="5.83361">
        <ele>1433.4379882812</ele>
        <time>2017-12-17T08:47:00Z</time>
      </trkpt>
      <trkpt lat="45.3006" lon="5.83367">
        <ele>1432.4379882812</ele>
        <time>2017-12-17T08:47:04Z</time>
      </trkpt>
      <trkpt lat="45.30056" lon="5.83372">
        <ele>1433.4379882812</ele>
        <time>2017-12-17T08:47:10Z</time>
      </trkpt>
      <trkpt lat="45.30055" lon="5.83379">
        <ele>1437.4379882812</ele>
        <time>2017-12-17T08:47:16Z</time>
      </trkpt>
      <trkpt lat="45.30049" lon="5.83375">
        <ele>1440.4379882812</ele>
        <time>2017-12-17T08:48:27Z</time>
      </trkpt>
      <trkpt lat="45.30045" lon="5.83377">
        <ele>1441.4379882812</ele>
        <time>2017-12-17T08:48:31Z</time>
      </trkpt>
      <trkpt lat="45.3004" lon="5.83377">
        <ele>1445.4379882812</ele>
        <time>2017-12-17T08:48:34Z</time>
      </trkpt>
      <trkpt lat="45.30037" lon="5.83383">
        <ele>1445.4379882812</ele>
        <time>2017-12-17T08:48:41Z</time>
      </trkpt>
      <trkpt lat="45.30034" lon="5.83389">
        <ele>1445.4379882812</ele>
        <time>2017-12-17T08:48:45Z</time>
      </trkpt>
      <trkpt lat="45.30032" lon="5.83396">
        <ele>1451.4379882812</ele>
        <time>2017-12-17T08:48:50Z</time>
      </trkpt>
      <trkpt lat="45.30027" lon="5.83399">
        <ele>1455.4379882812</ele>
        <time>2017-12-17T08:48:59Z</time>
      </trkpt>
      <trkpt lat="45.30022" lon="5.83401">
        <ele>1456.4379882812</ele>
        <time>2017-12-17T08:49:04Z</time>
      </trkpt>
      <trkpt lat="45.30017" lon="5.834">
        <ele>1460.4379882812</ele>
        <time>2017-12-17T08:49:12Z</time>
      </trkpt>
      <trkpt lat="45.30015" lon="5.83394">
        <ele>1462.4379882812</ele>
        <time>2017-12-17T08:49:16Z</time>
      </trkpt>
      <trkpt lat="45.30016" lon="5.83388">
        <ele>1463.4379882812</ele>
        <time>2017-12-17T08:49:19Z</time>
      </trkpt>
      <trkpt lat="45.30016" lon="5.83381">
        <ele>1465.4379882812</ele>
        <time>2017-12-17T08:49:22Z</time>
      </trkpt>
      <trkpt lat="45.30016" lon="5.83374">
        <ele>1467.4379882812</ele>
        <time>2017-12-17T08:49:27Z</time>
      </trkpt>
      <trkpt lat="45.30014" lon="5.83368">
        <ele>1467.4379882812</ele>
        <time>2017-12-17T08:49:31Z</time>
      </trkpt>
      <trkpt lat="45.30013" lon="5.83361">
        <ele>1468.4379882812</ele>
        <time>2017-12-17T08:49:36Z</time>
      </trkpt>
      <trkpt lat="45.30013" lon="5.83354">
        <ele>1468.4379882812</ele>
        <time>2017-12-17T08:49:42Z</time>
      </trkpt>
      <trkpt lat="45.30008" lon="5.83351">
        <ele>1468.4379882812</ele>
        <time>2017-12-17T08:49:47Z</time>
      </trkpt>
      <trkpt lat="45.30003" lon="5.83347">
        <ele>1473.4379882812</ele>
        <time>2017-12-17T08:49:51Z</time>
      </trkpt>
      <trkpt lat="45.29999" lon="5.83346">
        <ele>1471.4379882812</ele>
        <time>2017-12-17T08:49:54Z</time>
      </trkpt>
      <trkpt lat="45.29994" lon="5.83347">
        <ele>1468.4379882812</ele>
        <time>2017-12-17T08:49:59Z</time>
      </trkpt>
      <trkpt lat="45.29987" lon="5.83343">
        <ele>1470.4370117188</ele>
        <time>2017-12-17T08:50:03Z</time>
      </trkpt>
      <trkpt lat="45.29982" lon="5.83341">
        <ele>1469.4370117188</ele>
        <time>2017-12-17T08:50:06Z</time>
      </trkpt>
      <trkpt lat="45.29978" lon="5.83336">
        <ele>1471.4370117188</ele>
        <time>2017-12-17T08:50:09Z</time>
      </trkpt>
      <trkpt lat="45.29973" lon="5.83334">
        <ele>1470.4370117188</ele>
        <time>2017-12-17T08:50:12Z</time>
      </trkpt>
      <trkpt lat="45.29968" lon="5.83332">
        <ele>1472.4370117188</ele>
        <time>2017-12-17T08:50:15Z</time>
      </trkpt>
      <trkpt lat="45.29962" lon="5.83329">
        <ele>1472.4370117188</ele>
        <time>2017-12-17T08:50:18Z</time>
      </trkpt>
      <trkpt lat="45.29957" lon="5.83328">
        <ele>1471.4370117188</ele>
        <time>2017-12-17T08:50:21Z</time>
      </trkpt>
      <trkpt lat="45.29952" lon="5.83324">
        <ele>1472.4370117188</ele>
        <time>2017-12-17T08:50:24Z</time>
      </trkpt>
      <trkpt lat="45.29948" lon="5.83319">
        <ele>1474.4370117188</ele>
        <time>2017-12-17T08:50:27Z</time>
      </trkpt>
      <trkpt lat="45.29943" lon="5.83314">
        <ele>1475.4370117188</ele>
        <time>2017-12-17T08:50:30Z</time>
      </trkpt>
      <trkpt lat="45.29938" lon="5.83315">
        <ele>1475.4370117188</ele>
        <time>2017-12-17T08:50:36Z</time>
      </trkpt>
      <trkpt lat="45.29932" lon="5.83318">
        <ele>1475.4370117188</ele>
        <time>2017-12-17T08:50:41Z</time>
      </trkpt>
      <trkpt lat="45.29927" lon="5.83318">
        <ele>1476.4370117188</ele>
        <time>2017-12-17T08:50:44Z</time>
      </trkpt>
      <trkpt lat="45.29923" lon="5.8332">
        <ele>1475.4370117188</ele>
        <time>2017-12-17T08:50:48Z</time>
      </trkpt>
      <trkpt lat="45.29919" lon="5.83325">
        <ele>1472.4370117188</ele>
        <time>2017-12-17T08:50:53Z</time>
      </trkpt>
      <trkpt lat="45.29913" lon="5.83326">
        <ele>1473.4370117188</ele>
        <time>2017-12-17T08:50:57Z</time>
      </trkpt>
      <trkpt lat="45.29908" lon="5.83326">
        <ele>1472.4370117188</ele>
        <time>2017-12-17T08:51:04Z</time>
      </trkpt>
      <trkpt lat="45.29903" lon="5.83326">
        <ele>1474.4370117188</ele>
        <time>2017-12-17T08:51:10Z</time>
      </trkpt>
      <trkpt lat="45.29898" lon="5.83323">
        <ele>1478.4370117188</ele>
        <time>2017-12-17T08:51:15Z</time>
      </trkpt>
      <trkpt lat="45.29895" lon="5.83319">
        <ele>1479.4370117188</ele>
        <time>2017-12-17T08:51:19Z</time>
      </trkpt>
      <trkpt lat="45.29892" lon="5.83314">
        <ele>1482.4370117188</ele>
        <time>2017-12-17T08:51:24Z</time>
      </trkpt>
      <trkpt lat="45.29887" lon="5.83311">
        <ele>1482.4370117188</ele>
        <time>2017-12-17T08:51:29Z</time>
      </trkpt>
      <trkpt lat="45.29882" lon="5.83309">
        <ele>1485.4370117188</ele>
        <time>2017-12-17T08:51:35Z</time>
      </trkpt>
      <trkpt lat="45.29879" lon="5.83303">
        <ele>1487.4370117188</ele>
        <time>2017-12-17T08:51:42Z</time>
      </trkpt>
      <trkpt lat="45.2988" lon="5.83296">
        <ele>1487.4370117188</ele>
        <time>2017-12-17T08:51:49Z</time>
      </trkpt>
      <trkpt lat="45.29876" lon="5.83292">
        <ele>1490.4370117188</ele>
        <time>2017-12-17T08:51:54Z</time>
      </trkpt>
      <trkpt lat="45.29874" lon="5.83285">
        <ele>1493.4370117188</ele>
        <time>2017-12-17T08:51:59Z</time>
      </trkpt>
      <trkpt lat="45.29876" lon="5.83279">
        <ele>1494.4370117188</ele>
        <time>2017-12-17T08:52:04Z</time>
      </trkpt>
      <trkpt lat="45.29879" lon="5.83273">
        <ele>1496.4370117188</ele>
        <time>2017-12-17T08:52:08Z</time>
      </trkpt>
      <trkpt lat="45.29878" lon="5.83265">
        <ele>1498.4370117188</ele>
        <time>2017-12-17T08:52:15Z</time>
      </trkpt>
      <trkpt lat="45.29879" lon="5.83257">
        <ele>1501.4370117188</ele>
        <time>2017-12-17T08:52:20Z</time>
      </trkpt>
      <trkpt lat="45.2988" lon="5.8325">
        <ele>1526.4370117188</ele>
        <time>2017-12-17T08:52:25Z</time>
      </trkpt>
      <trkpt lat="45.29881" lon="5.83242">
        <ele>1513.4370117188</ele>
        <time>2017-12-17T08:52:30Z</time>
      </trkpt>
      <trkpt lat="45.29881" lon="5.83235">
        <ele>1509.4370117188</ele>
        <time>2017-12-17T08:52:34Z</time>
      </trkpt>
      <trkpt lat="45.29884" lon="5.83229">
        <ele>1509.4370117188</ele>
        <time>2017-12-17T08:52:38Z</time>
      </trkpt>
      <trkpt lat="45.29885" lon="5.83223">
        <ele>1510.4370117188</ele>
        <time>2017-12-17T08:52:43Z</time>
      </trkpt>
      <trkpt lat="45.29888" lon="5.83218">
        <ele>1512.4370117188</ele>
        <time>2017-12-17T08:52:47Z</time>
      </trkpt>
      <trkpt lat="45.29891" lon="5.83212">
        <ele>1511.4370117188</ele>
        <time>2017-12-17T08:52:52Z</time>
      </trkpt>
      <trkpt lat="45.29893" lon="5.83206">
        <ele>1513.4370117188</ele>
        <time>2017-12-17T08:52:57Z</time>
      </trkpt>
      <trkpt lat="45.29896" lon="5.832">
        <ele>1516.4370117188</ele>
        <time>2017-12-17T08:53:02Z</time>
      </trkpt>
      <trkpt lat="45.29894" lon="5.83193">
        <ele>1516.4370117188</ele>
        <time>2017-12-17T08:53:07Z</time>
      </trkpt>
      <trkpt lat="45.29893" lon="5.83187">
        <ele>1515.4370117188</ele>
        <time>2017-12-17T08:53:14Z</time>
      </trkpt>
      <trkpt lat="45.29892" lon="5.83179">
        <ele>1516.4370117188</ele>
        <time>2017-12-17T08:53:18Z</time>
      </trkpt>
      <trkpt lat="45.29893" lon="5.83172">
        <ele>1517.4370117188</ele>
        <time>2017-12-17T08:53:23Z</time>
      </trkpt>
      <trkpt lat="45.29895" lon="5.83165">
        <ele>1519.4370117188</ele>
        <time>2017-12-17T08:53:28Z</time>
      </trkpt>
      <trkpt lat="45.29896" lon="5.83158">
        <ele>1519.4370117188</ele>
        <time>2017-12-17T08:53:33Z</time>
      </trkpt>
      <trkpt lat="45.29891" lon="5.83153">
        <ele>1520.4370117188</ele>
        <time>2017-12-17T08:53:40Z</time>
      </trkpt>
      <trkpt lat="45.29886" lon="5.83151">
        <ele>1517.4370117188</ele>
        <time>2017-12-17T08:53:44Z</time>
      </trkpt>
      <trkpt lat="45.29881" lon="5.83151">
        <ele>1520.4370117188</ele>
        <time>2017-12-17T08:53:49Z</time>
      </trkpt>
      <trkpt lat="45.29876" lon="5.8315">
        <ele>1520.4370117188</ele>
        <time>2017-12-17T08:53:55Z</time>
      </trkpt>
      <trkpt lat="45.29875" lon="5.83143">
        <ele>1521.4370117188</ele>
        <time>2017-12-17T08:54:01Z</time>
      </trkpt>
      <trkpt lat="45.29877" lon="5.83136">
        <ele>1523.4370117188</ele>
        <time>2017-12-17T08:54:06Z</time>
      </trkpt>
      <trkpt lat="45.29881" lon="5.8313">
        <ele>1524.4370117188</ele>
        <time>2017-12-17T08:54:10Z</time>
      </trkpt>
      <trkpt lat="45.29883" lon="5.83124">
        <ele>1525.4370117188</ele>
        <time>2017-12-17T08:54:14Z</time>
      </trkpt>
      <trkpt lat="45.29885" lon="5.83118">
        <ele>1527.4370117188</ele>
        <time>2017-12-17T08:54:19Z</time>
      </trkpt>
      <trkpt lat="45.29889" lon="5.83112">
        <ele>1528.4370117188</ele>
        <time>2017-12-17T08:54:23Z</time>
      </trkpt>
      <trkpt lat="45.29893" lon="5.83106">
        <ele>1527.4370117188</ele>
        <time>2017-12-17T08:54:27Z</time>
      </trkpt>
      <trkpt lat="45.29897" lon="5.83103">
        <ele>1529.4370117188</ele>
        <time>2017-12-17T08:54:31Z</time>
      </trkpt>
      <trkpt lat="45.29902" lon="5.83098">
        <ele>1531.4370117188</ele>
        <time>2017-12-17T08:54:35Z</time>
      </trkpt>
      <trkpt lat="45.29902" lon="5.8309">
        <ele>1532.4370117188</ele>
        <time>2017-12-17T08:54:41Z</time>
      </trkpt>
      <trkpt lat="45.29897" lon="5.83088">
        <ele>1531.4370117188</ele>
        <time>2017-12-17T08:54:44Z</time>
      </trkpt>
      <trkpt lat="45.29892" lon="5.83083">
        <ele>1530.4370117188</ele>
        <time>2017-12-17T08:54:48Z</time>
      </trkpt>
      <trkpt lat="45.29888" lon="5.83076">
        <ele>1530.4370117188</ele>
        <time>2017-12-17T08:54:52Z</time>
      </trkpt>
      <trkpt lat="45.29883" lon="5.83072">
        <ele>1533.4370117188</ele>
        <time>2017-12-17T08:54:56Z</time>
      </trkpt>
      <trkpt lat="45.29878" lon="5.8307">
        <ele>1531.4370117188</ele>
        <time>2017-12-17T08:54:59Z</time>
      </trkpt>
      <trkpt lat="45.29873" lon="5.83067">
        <ele>1532.4370117188</ele>
        <time>2017-12-17T08:55:06Z</time>
      </trkpt>
      <trkpt lat="45.2987" lon="5.83061">
        <ele>1531.4370117188</ele>
        <time>2017-12-17T08:55:10Z</time>
      </trkpt>
      <trkpt lat="45.29866" lon="5.83058">
        <ele>1533.4370117188</ele>
        <time>2017-12-17T08:55:16Z</time>
      </trkpt>
      <trkpt lat="45.29862" lon="5.83055">
        <ele>1531.4370117188</ele>
        <time>2017-12-17T08:55:21Z</time>
      </trkpt>
      <trkpt lat="45.29864" lon="5.83046">
        <ele>1529.4370117188</ele>
        <time>2017-12-17T08:55:27Z</time>
      </trkpt>
      <trkpt lat="45.29868" lon="5.83044">
        <ele>1530.4370117188</ele>
        <time>2017-12-17T08:55:33Z</time>
      </trkpt>
      <trkpt lat="45.29873" lon="5.83039">
        <ele>1530.4370117188</ele>
        <time>2017-12-17T08:55:41Z</time>
      </trkpt>
      <trkpt lat="45.2987" lon="5.83033">
        <ele>1532.4370117188</ele>
        <time>2017-12-17T08:55:52Z</time>
      </trkpt>
      <trkpt lat="45.29868" lon="5.83026">
        <ele>1531.4370117188</ele>
        <time>2017-12-17T08:55:59Z</time>
      </trkpt>
      <trkpt lat="45.29865" lon="5.83021">
        <ele>1535.4370117188</ele>
        <time>2017-12-17T08:56:08Z</time>
      </trkpt>
      <trkpt lat="45.29862" lon="5.83015">
        <ele>1540.4370117188</ele>
        <time>2017-12-17T08:56:44Z</time>
      </trkpt>
      <trkpt lat="45.29861" lon="5.83008">
        <ele>1545.4370117188</ele>
        <time>2017-12-17T08:56:49Z</time>
      </trkpt>
      <trkpt lat="45.29857" lon="5.83003">
        <ele>1554.4370117188</ele>
        <time>2017-12-17T08:56:58Z</time>
      </trkpt>
      <trkpt lat="45.29856" lon="5.82996">
        <ele>1552.4370117188</ele>
        <time>2017-12-17T08:57:02Z</time>
      </trkpt>
      <trkpt lat="45.29857" lon="5.82986">
        <ele>1551.4370117188</ele>
        <time>2017-12-17T08:57:07Z</time>
      </trkpt>
      <trkpt lat="45.29852" lon="5.82983">
        <ele>1558.4370117188</ele>
        <time>2017-12-17T08:57:23Z</time>
      </trkpt>
      <trkpt lat="45.29858" lon="5.82977">
        <ele>1562.4370117188</ele>
        <time>2017-12-17T08:57:55Z</time>
      </trkpt>
      <trkpt lat="45.29864" lon="5.82967">
        <ele>1562.4370117188</ele>
        <time>2017-12-17T08:57:57Z</time>
      </trkpt>
      <trkpt lat="45.29868" lon="5.82962">
        <ele>1564.4370117188</ele>
        <time>2017-12-17T08:58:03Z</time>
      </trkpt>
      <trkpt lat="45.29873" lon="5.82958">
        <ele>1563.4370117188</ele>
        <time>2017-12-17T08:58:11Z</time>
      </trkpt>
      <trkpt lat="45.29877" lon="5.82955">
        <ele>1567.4370117188</ele>
        <time>2017-12-17T08:58:37Z</time>
      </trkpt>
      <trkpt lat="45.29882" lon="5.82952">
        <ele>1577.4370117188</ele>
        <time>2017-12-17T08:58:56Z</time>
      </trkpt>
      <trkpt lat="45.29887" lon="5.82952">
        <ele>1580.4370117188</ele>
        <time>2017-12-17T08:58:59Z</time>
      </trkpt>
      <trkpt lat="45.2989" lon="5.82947">
        <ele>1583.4370117188</ele>
        <time>2017-12-17T08:59:03Z</time>
      </trkpt>
      <trkpt lat="45.29894" lon="5.82945">
        <ele>1587.4370117188</ele>
        <time>2017-12-17T08:59:06Z</time>
      </trkpt>
      <trkpt lat="45.29899" lon="5.82944">
        <ele>1589.4370117188</ele>
        <time>2017-12-17T08:59:09Z</time>
      </trkpt>
      <trkpt lat="45.29903" lon="5.8294">
        <ele>1592.4370117188</ele>
        <time>2017-12-17T08:59:13Z</time>
      </trkpt>
      <trkpt lat="45.29907" lon="5.82935">
        <ele>1591.4370117188</ele>
        <time>2017-12-17T08:59:19Z</time>
      </trkpt>
      <trkpt lat="45.29905" lon="5.82928">
        <ele>1596.4370117188</ele>
        <time>2017-12-17T08:59:43Z</time>
      </trkpt>
      <trkpt lat="45.299" lon="5.82929">
        <ele>1603.4370117188</ele>
        <time>2017-12-17T09:00:03Z</time>
      </trkpt>
      <trkpt lat="45.29897" lon="5.82933">
        <ele>1613.4370117188</ele>
        <time>2017-12-17T09:00:21Z</time>
      </trkpt>
      <trkpt lat="45.29892" lon="5.82935">
        <ele>1611.4370117188</ele>
        <time>2017-12-17T09:00:33Z</time>
      </trkpt>
      <trkpt lat="45.29889" lon="5.8293">
        <ele>1612.4370117188</ele>
        <time>2017-12-17T09:00:43Z</time>
      </trkpt>
      <trkpt lat="45.29884" lon="5.82928">
        <ele>1617.4370117188</ele>
        <time>2017-12-17T09:00:59Z</time>
      </trkpt>
      <trkpt lat="45.29886" lon="5.82921">
        <ele>1622.4370117188</ele>
        <time>2017-12-17T09:01:04Z</time>
      </trkpt>
      <trkpt lat="45.29885" lon="5.82914">
        <ele>1625.4370117188</ele>
        <time>2017-12-17T09:01:09Z</time>
      </trkpt>
      <trkpt lat="45.29879" lon="5.82916">
        <ele>1626.4370117188</ele>
        <time>2017-12-17T09:01:19Z</time>
      </trkpt>
      <trkpt lat="45.29878" lon="5.82909">
        <ele>1629.4370117188</ele>
        <time>2017-12-17T09:01:25Z</time>
      </trkpt>
      <trkpt lat="45.29877" lon="5.82903">
        <ele>1630.4370117188</ele>
        <time>2017-12-17T09:01:29Z</time>
      </trkpt>
      <trkpt lat="45.29877" lon="5.82896">
        <ele>1630.4370117188</ele>
        <time>2017-12-17T09:01:34Z</time>
      </trkpt>
      <trkpt lat="45.29873" lon="5.82893">
        <ele>1632.4370117188</ele>
        <time>2017-12-17T09:01:39Z</time>
      </trkpt>
      <trkpt lat="45.29868" lon="5.82894">
        <ele>1640.4370117188</ele>
        <time>2017-12-17T09:01:48Z</time>
      </trkpt>
      <trkpt lat="45.2987" lon="5.82887">
        <ele>1643.4370117188</ele>
        <time>2017-12-17T09:02:01Z</time>
      </trkpt>
      <trkpt lat="45.29869" lon="5.82881">
        <ele>1646.4370117188</ele>
        <time>2017-12-17T09:02:06Z</time>
      </trkpt>
      <trkpt lat="45.29864" lon="5.82877">
        <ele>1645.4370117188</ele>
        <time>2017-12-17T09:02:11Z</time>
      </trkpt>
      <trkpt lat="45.29864" lon="5.8287">
        <ele>1646.4370117188</ele>
        <time>2017-12-17T09:02:18Z</time>
      </trkpt>
      <trkpt lat="45.2986" lon="5.8287">
        <ele>1650.4370117188</ele>
        <time>2017-12-17T09:02:31Z</time>
      </trkpt>
      <trkpt lat="45.29856" lon="5.82868">
        <ele>1648.4370117188</ele>
        <time>2017-12-17T09:02:55Z</time>
      </trkpt>
      <trkpt lat="45.29852" lon="5.82863">
        <ele>1650.4370117188</ele>
        <time>2017-12-17T09:02:58Z</time>
      </trkpt>
      <trkpt lat="45.29847" lon="5.82862">
        <ele>1649.4370117188</ele>
        <time>2017-12-17T09:03:02Z</time>
      </trkpt>
      <trkpt lat="45.29843" lon="5.82859">
        <ele>1649.4370117188</ele>
        <time>2017-12-17T09:03:04Z</time>
      </trkpt>
      <trkpt lat="45.29839" lon="5.82854">
        <ele>1655.4370117188</ele>
        <time>2017-12-17T09:03:10Z</time>
      </trkpt>
      <trkpt lat="45.29836" lon="5.8285">
        <ele>1659.4370117188</ele>
        <time>2017-12-17T09:03:16Z</time>
      </trkpt>
      <trkpt lat="45.29831" lon="5.82845">
        <ele>1659.4360351562</ele>
        <time>2017-12-17T09:03:21Z</time>
      </trkpt>
      <trkpt lat="45.29826" lon="5.82849">
        <ele>1659.4360351562</ele>
        <time>2017-12-17T09:03:27Z</time>
      </trkpt>
      <trkpt lat="45.29827" lon="5.82842">
        <ele>1667.4360351562</ele>
        <time>2017-12-17T09:03:34Z</time>
      </trkpt>
      <trkpt lat="45.29822" lon="5.82839">
        <ele>1667.4360351562</ele>
        <time>2017-12-17T09:03:40Z</time>
      </trkpt>
      <trkpt lat="45.29818" lon="5.82841">
        <ele>1668.4360351562</ele>
        <time>2017-12-17T09:03:50Z</time>
      </trkpt>
      <trkpt lat="45.29813" lon="5.82839">
        <ele>1671.4360351562</ele>
        <time>2017-12-17T09:03:58Z</time>
      </trkpt>
      <trkpt lat="45.2981" lon="5.82844">
        <ele>1674.4360351562</ele>
        <time>2017-12-17T09:04:05Z</time>
      </trkpt>
      <trkpt lat="45.29806" lon="5.8284">
        <ele>1676.4360351562</ele>
        <time>2017-12-17T09:04:11Z</time>
      </trkpt>
      <trkpt lat="45.29804" lon="5.82833">
        <ele>1682.4360351562</ele>
        <time>2017-12-17T09:04:18Z</time>
      </trkpt>
      <trkpt lat="45.298" lon="5.82829">
        <ele>1685.4360351562</ele>
        <time>2017-12-17T09:04:27Z</time>
      </trkpt>
      <trkpt lat="45.29796" lon="5.82834">
        <ele>1687.4360351562</ele>
        <time>2017-12-17T09:04:34Z</time>
      </trkpt>
      <trkpt lat="45.29797" lon="5.82826">
        <ele>1693.4360351562</ele>
        <time>2017-12-17T09:05:03Z</time>
      </trkpt>
      <trkpt lat="45.29793" lon="5.82822">
        <ele>1695.4360351562</ele>
        <time>2017-12-17T09:05:08Z</time>
      </trkpt>
      <trkpt lat="45.29788" lon="5.82821">
        <ele>1698.4360351562</ele>
        <time>2017-12-17T09:05:14Z</time>
      </trkpt>
      <trkpt lat="45.29783" lon="5.82821">
        <ele>1703.4360351562</ele>
        <time>2017-12-17T09:05:23Z</time>
      </trkpt>
      <trkpt lat="45.29778" lon="5.82818">
        <ele>1708.4360351562</ele>
        <time>2017-12-17T09:05:28Z</time>
      </trkpt>
      <trkpt lat="45.29774" lon="5.82816">
        <ele>1709.4360351562</ele>
        <time>2017-12-17T09:05:34Z</time>
      </trkpt>
      <trkpt lat="45.29771" lon="5.8281">
        <ele>1710.4360351562</ele>
        <time>2017-12-17T09:05:38Z</time>
      </trkpt>
      <trkpt lat="45.29766" lon="5.8281">
        <ele>1709.4360351562</ele>
        <time>2017-12-17T09:05:42Z</time>
      </trkpt>
      <trkpt lat="45.29765" lon="5.82818">
        <ele>1708.4360351562</ele>
        <time>2017-12-17T09:06:11Z</time>
      </trkpt>
      <trkpt lat="45.29763" lon="5.82824">
        <ele>1705.4360351562</ele>
        <time>2017-12-17T09:06:17Z</time>
      </trkpt>
      <trkpt lat="45.29757" lon="5.8282">
        <ele>1711.4360351562</ele>
        <time>2017-12-17T09:06:34Z</time>
      </trkpt>
      <trkpt lat="45.29753" lon="5.82816">
        <ele>1713.4360351562</ele>
        <time>2017-12-17T09:06:38Z</time>
      </trkpt>
      <trkpt lat="45.29748" lon="5.82814">
        <ele>1716.4360351562</ele>
        <time>2017-12-17T09:06:43Z</time>
      </trkpt>
      <trkpt lat="45.29745" lon="5.82809">
        <ele>1721.4360351562</ele>
        <time>2017-12-17T09:06:52Z</time>
      </trkpt>
      <trkpt lat="45.29741" lon="5.82807">
        <ele>1720.4360351562</ele>
        <time>2017-12-17T09:06:59Z</time>
      </trkpt>
      <trkpt lat="45.29739" lon="5.82813">
        <ele>1722.4360351562</ele>
        <time>2017-12-17T09:07:13Z</time>
      </trkpt>
      <trkpt lat="45.29733" lon="5.82812">
        <ele>1720.4360351562</ele>
        <time>2017-12-17T09:07:23Z</time>
      </trkpt>
      <trkpt lat="45.2973" lon="5.82807">
        <ele>1721.4360351562</ele>
        <time>2017-12-17T09:07:27Z</time>
      </trkpt>
      <trkpt lat="45.29726" lon="5.82805">
        <ele>1721.4360351562</ele>
        <time>2017-12-17T09:07:31Z</time>
      </trkpt>
      <trkpt lat="45.29721" lon="5.82803">
        <ele>1723.4360351562</ele>
        <time>2017-12-17T09:07:36Z</time>
      </trkpt>
      <trkpt lat="45.29717" lon="5.82799">
        <ele>1724.4360351562</ele>
        <time>2017-12-17T09:07:41Z</time>
      </trkpt>
      <trkpt lat="45.29713" lon="5.82796">
        <ele>1726.4360351562</ele>
        <time>2017-12-17T09:07:45Z</time>
      </trkpt>
      <trkpt lat="45.29707" lon="5.82796">
        <ele>1727.4360351562</ele>
        <time>2017-12-17T09:07:52Z</time>
      </trkpt>
      <trkpt lat="45.29703" lon="5.82798">
        <ele>1728.4360351562</ele>
        <time>2017-12-17T09:07:57Z</time>
      </trkpt>
      <trkpt lat="45.29698" lon="5.828">
        <ele>1728.4360351562</ele>
        <time>2017-12-17T09:08:02Z</time>
      </trkpt>
      <trkpt lat="45.29695" lon="5.82805">
        <ele>1728.4360351562</ele>
        <time>2017-12-17T09:08:07Z</time>
      </trkpt>
      <trkpt lat="45.2969" lon="5.82808">
        <ele>1731.4360351562</ele>
        <time>2017-12-17T09:08:12Z</time>
      </trkpt>
      <trkpt lat="45.29686" lon="5.82812">
        <ele>1733.4360351562</ele>
        <time>2017-12-17T09:08:16Z</time>
      </trkpt>
      <trkpt lat="45.29683" lon="5.82816">
        <ele>1735.4360351562</ele>
        <time>2017-12-17T09:08:20Z</time>
      </trkpt>
      <trkpt lat="45.29678" lon="5.8282">
        <ele>1738.4360351562</ele>
        <time>2017-12-17T09:08:24Z</time>
      </trkpt>
      <trkpt lat="45.29675" lon="5.82824">
        <ele>1739.4360351562</ele>
        <time>2017-12-17T09:08:28Z</time>
      </trkpt>
      <trkpt lat="45.29672" lon="5.8283">
        <ele>1737.4360351562</ele>
        <time>2017-12-17T09:08:32Z</time>
      </trkpt>
      <trkpt lat="45.29669" lon="5.82836">
        <ele>1736.4360351562</ele>
        <time>2017-12-17T09:08:40Z</time>
      </trkpt>
      <trkpt lat="45.29665" lon="5.82837">
        <ele>1738.4360351562</ele>
        <time>2017-12-17T09:11:07Z</time>
      </trkpt>
      <trkpt lat="45.29669" lon="5.82833">
        <ele>1740.4360351562</ele>
        <time>2017-12-17T09:11:19Z</time>
      </trkpt>
      <trkpt lat="45.29674" lon="5.82825">
        <ele>1742.4360351562</ele>
        <time>2017-12-17T09:11:21Z</time>
      </trkpt>
      <trkpt lat="45.29678" lon="5.82819">
        <ele>1741.4360351562</ele>
        <time>2017-12-17T09:11:23Z</time>
      </trkpt>
      <trkpt lat="45.29683" lon="5.82809">
        <ele>1742.4360351562</ele>
        <time>2017-12-17T09:11:25Z</time>
      </trkpt>
      <trkpt lat="45.29688" lon="5.82798">
        <ele>1742.4360351562</ele>
        <time>2017-12-17T09:11:27Z</time>
      </trkpt>
      <trkpt lat="45.29698" lon="5.82784">
        <ele>1739.4360351562</ele>
        <time>2017-12-17T09:11:29Z</time>
      </trkpt>
      <trkpt lat="45.29709" lon="5.82776">
        <ele>1737.4360351562</ele>
        <time>2017-12-17T09:11:31Z</time>
      </trkpt>
      <trkpt lat="45.29719" lon="5.82768">
        <ele>1732.4360351562</ele>
        <time>2017-12-17T09:11:33Z</time>
      </trkpt>
      <trkpt lat="45.29723" lon="5.82751">
        <ele>1728.4360351562</ele>
        <time>2017-12-17T09:11:35Z</time>
      </trkpt>
      <trkpt lat="45.29727" lon="5.82733">
        <ele>1727.4360351562</ele>
        <time>2017-12-17T09:11:37Z</time>
      </trkpt>
      <trkpt lat="45.29729" lon="5.82717">
        <ele>1724.4360351562</ele>
        <time>2017-12-17T09:11:39Z</time>
      </trkpt>
      <trkpt lat="45.29735" lon="5.82705">
        <ele>1723.4360351562</ele>
        <time>2017-12-17T09:11:41Z</time>
      </trkpt>
      <trkpt lat="45.29747" lon="5.82695">
        <ele>1719.4360351562</ele>
        <time>2017-12-17T09:11:44Z</time>
      </trkpt>
      <trkpt lat="45.2975" lon="5.82689">
        <ele>1716.4360351562</ele>
        <time>2017-12-17T09:11:46Z</time>
      </trkpt>
      <trkpt lat="45.29754" lon="5.82684">
        <ele>1718.4360351562</ele>
        <time>2017-12-17T09:11:48Z</time>
      </trkpt>
      <trkpt lat="45.29758" lon="5.82683">
        <ele>1713.4360351562</ele>
        <time>2017-12-17T09:11:51Z</time>
      </trkpt>
      <trkpt lat="45.29762" lon="5.82688">
        <ele>1707.4360351562</ele>
        <time>2017-12-17T09:11:56Z</time>
      </trkpt>
      <trkpt lat="45.29764" lon="5.82697">
        <ele>1700.4360351562</ele>
        <time>2017-12-17T09:12:02Z</time>
      </trkpt>
      <trkpt lat="45.29763" lon="5.82704">
        <ele>1699.4360351562</ele>
        <time>2017-12-17T09:12:06Z</time>
      </trkpt>
      <trkpt lat="45.29766" lon="5.82711">
        <ele>1696.4360351562</ele>
        <time>2017-12-17T09:12:10Z</time>
      </trkpt>
      <trkpt lat="45.29774" lon="5.8271">
        <ele>1694.4360351562</ele>
        <time>2017-12-17T09:12:12Z</time>
      </trkpt>
      <trkpt lat="45.2978" lon="5.82706">
        <ele>1692.4360351562</ele>
        <time>2017-12-17T09:12:17Z</time>
      </trkpt>
      <trkpt lat="45.29788" lon="5.82702">
        <ele>1690.4360351562</ele>
        <time>2017-12-17T09:12:19Z</time>
      </trkpt>
      <trkpt lat="45.29796" lon="5.82696">
        <ele>1690.4360351562</ele>
        <time>2017-12-17T09:12:21Z</time>
      </trkpt>
      <trkpt lat="45.29802" lon="5.82693">
        <ele>1688.4360351562</ele>
        <time>2017-12-17T09:12:23Z</time>
      </trkpt>
      <trkpt lat="45.29807" lon="5.82689">
        <ele>1686.4360351562</ele>
        <time>2017-12-17T09:12:25Z</time>
      </trkpt>
      <trkpt lat="45.29813" lon="5.82687">
        <ele>1682.4360351562</ele>
        <time>2017-12-17T09:12:27Z</time>
      </trkpt>
      <trkpt lat="45.29822" lon="5.82687">
        <ele>1680.4360351562</ele>
        <time>2017-12-17T09:12:29Z</time>
      </trkpt>
      <trkpt lat="45.29832" lon="5.82692">
        <ele>1676.4360351562</ele>
        <time>2017-12-17T09:12:33Z</time>
      </trkpt>
      <trkpt lat="45.29837" lon="5.82692">
        <ele>1678.4360351562</ele>
        <time>2017-12-17T09:12:40Z</time>
      </trkpt>
      <trkpt lat="45.29847" lon="5.82695">
        <ele>1672.4360351562</ele>
        <time>2017-12-17T09:12:48Z</time>
      </trkpt>
      <trkpt lat="45.2986" lon="5.82696">
        <ele>1669.4360351562</ele>
        <time>2017-12-17T09:12:50Z</time>
      </trkpt>
      <trkpt lat="45.29872" lon="5.82699">
        <ele>1663.4360351562</ele>
        <time>2017-12-17T09:12:52Z</time>
      </trkpt>
      <trkpt lat="45.29886" lon="5.82697">
        <ele>1664.4360351562</ele>
        <time>2017-12-17T09:12:54Z</time>
      </trkpt>
      <trkpt lat="45.29898" lon="5.82696">
        <ele>1661.4360351562</ele>
        <time>2017-12-17T09:12:56Z</time>
      </trkpt>
      <trkpt lat="45.29906" lon="5.82692">
        <ele>1659.4360351562</ele>
        <time>2017-12-17T09:12:57Z</time>
      </trkpt>
      <trkpt lat="45.29916" lon="5.82689">
        <ele>1652.4360351562</ele>
        <time>2017-12-17T09:13:00Z</time>
      </trkpt>
      <trkpt lat="45.29921" lon="5.82694">
        <ele>1645.4360351562</ele>
        <time>2017-12-17T09:13:04Z</time>
      </trkpt>
      <trkpt lat="45.29929" lon="5.82692">
        <ele>1641.4360351562</ele>
        <time>2017-12-17T09:13:06Z</time>
      </trkpt>
      <trkpt lat="45.29934" lon="5.82693">
        <ele>1634.4360351562</ele>
        <time>2017-12-17T09:13:08Z</time>
      </trkpt>
      <trkpt lat="45.29939" lon="5.82693">
        <ele>1631.4370117188</ele>
        <time>2017-12-17T09:13:11Z</time>
      </trkpt>
      <trkpt lat="45.29942" lon="5.82683">
        <ele>1624.4370117188</ele>
        <time>2017-12-17T09:13:20Z</time>
      </trkpt>
      <trkpt lat="45.29948" lon="5.82678">
        <ele>1620.4370117188</ele>
        <time>2017-12-17T09:13:22Z</time>
      </trkpt>
      <trkpt lat="45.29954" lon="5.82683">
        <ele>1614.4370117188</ele>
        <time>2017-12-17T09:13:26Z</time>
      </trkpt>
      <trkpt lat="45.29959" lon="5.82687">
        <ele>1612.4370117188</ele>
        <time>2017-12-17T09:13:28Z</time>
      </trkpt>
      <trkpt lat="45.29965" lon="5.82689">
        <ele>1607.4370117188</ele>
        <time>2017-12-17T09:13:31Z</time>
      </trkpt>
      <trkpt lat="45.29975" lon="5.82683">
        <ele>1599.4370117188</ele>
        <time>2017-12-17T09:13:34Z</time>
      </trkpt>
      <trkpt lat="45.2998" lon="5.82685">
        <ele>1597.4370117188</ele>
        <time>2017-12-17T09:13:36Z</time>
      </trkpt>
      <trkpt lat="45.29987" lon="5.82683">
        <ele>1594.4370117188</ele>
        <time>2017-12-17T09:13:38Z</time>
      </trkpt>
      <trkpt lat="45.3" lon="5.82686">
        <ele>1569.4370117188</ele>
        <time>2017-12-17T09:13:57Z</time>
      </trkpt>
      <trkpt lat="45.30012" lon="5.82686">
        <ele>1565.4370117188</ele>
        <time>2017-12-17T09:13:59Z</time>
      </trkpt>
      <trkpt lat="45.30025" lon="5.82686">
        <ele>1559.4370117188</ele>
        <time>2017-12-17T09:14:02Z</time>
      </trkpt>
      <trkpt lat="45.30037" lon="5.82686">
        <ele>1552.4370117188</ele>
        <time>2017-12-17T09:14:05Z</time>
      </trkpt>
      <trkpt lat="45.30046" lon="5.82689">
        <ele>1548.4370117188</ele>
        <time>2017-12-17T09:14:07Z</time>
      </trkpt>
      <trkpt lat="45.30054" lon="5.82692">
        <ele>1543.4370117188</ele>
        <time>2017-12-17T09:14:09Z</time>
      </trkpt>
      <trkpt lat="45.30063" lon="5.8269">
        <ele>1541.4370117188</ele>
        <time>2017-12-17T09:14:11Z</time>
      </trkpt>
      <trkpt lat="45.30072" lon="5.82691">
        <ele>1537.4370117188</ele>
        <time>2017-12-17T09:14:13Z</time>
      </trkpt>
      <trkpt lat="45.30081" lon="5.8269">
        <ele>1534.4370117188</ele>
        <time>2017-12-17T09:14:15Z</time>
      </trkpt>
      <trkpt lat="45.30091" lon="5.82689">
        <ele>1532.4370117188</ele>
        <time>2017-12-17T09:14:17Z</time>
      </trkpt>
      <trkpt lat="45.30103" lon="5.82687">
        <ele>1526.4370117188</ele>
        <time>2017-12-17T09:14:20Z</time>
      </trkpt>
      <trkpt lat="45.30107" lon="5.82694">
        <ele>1519.4370117188</ele>
        <time>2017-12-17T09:14:24Z</time>
      </trkpt>
      <trkpt lat="45.3011" lon="5.827">
        <ele>1514.4370117188</ele>
        <time>2017-12-17T09:14:28Z</time>
      </trkpt>
      <trkpt lat="45.30118" lon="5.82692">
        <ele>1502.4370117188</ele>
        <time>2017-12-17T09:14:38Z</time>
      </trkpt>
      <trkpt lat="45.30128" lon="5.82687">
        <ele>1499.4370117188</ele>
        <time>2017-12-17T09:14:40Z</time>
      </trkpt>
      <trkpt lat="45.30135" lon="5.82679">
        <ele>1499.4370117188</ele>
        <time>2017-12-17T09:14:42Z</time>
      </trkpt>
      <trkpt lat="45.30145" lon="5.8268">
        <ele>1495.4370117188</ele>
        <time>2017-12-17T09:14:44Z</time>
      </trkpt>
      <trkpt lat="45.30158" lon="5.82682">
        <ele>1494.4370117188</ele>
        <time>2017-12-17T09:14:46Z</time>
      </trkpt>
      <trkpt lat="45.30173" lon="5.82679">
        <ele>1492.4370117188</ele>
        <time>2017-12-17T09:14:48Z</time>
      </trkpt>
      <trkpt lat="45.30189" lon="5.82677">
        <ele>1489.4370117188</ele>
        <time>2017-12-17T09:14:50Z</time>
      </trkpt>
      <trkpt lat="45.30206" lon="5.82677">
        <ele>1485.4370117188</ele>
        <time>2017-12-17T09:14:52Z</time>
      </trkpt>
      <trkpt lat="45.30221" lon="5.82667">
        <ele>1482.4370117188</ele>
        <time>2017-12-17T09:14:55Z</time>
      </trkpt>
      <trkpt lat="45.30234" lon="5.82669">
        <ele>1475.4370117188</ele>
        <time>2017-12-17T09:14:57Z</time>
      </trkpt>
      <trkpt lat="45.30246" lon="5.82667">
        <ele>1473.4370117188</ele>
        <time>2017-12-17T09:14:59Z</time>
      </trkpt>
      <trkpt lat="45.30261" lon="5.82659">
        <ele>1467.4370117188</ele>
        <time>2017-12-17T09:15:02Z</time>
      </trkpt>
      <trkpt lat="45.30267" lon="5.82663">
        <ele>1465.4370117188</ele>
        <time>2017-12-17T09:15:03Z</time>
      </trkpt>
      <trkpt lat="45.30292" lon="5.82657">
        <ele>1462.4370117188</ele>
        <time>2017-12-17T09:15:06Z</time>
      </trkpt>
      <trkpt lat="45.30307" lon="5.82655">
        <ele>1454.4370117188</ele>
        <time>2017-12-17T09:15:09Z</time>
      </trkpt>
      <trkpt lat="45.30313" lon="5.82654">
        <ele>1452.4370117188</ele>
        <time>2017-12-17T09:15:11Z</time>
      </trkpt>
      <trkpt lat="45.3032" lon="5.82656">
        <ele>1451.4370117188</ele>
        <time>2017-12-17T09:15:12Z</time>
      </trkpt>
      <trkpt lat="45.30326" lon="5.82669">
        <ele>1443.4370117188</ele>
        <time>2017-12-17T09:15:16Z</time>
      </trkpt>
      <trkpt lat="45.30327" lon="5.82679">
        <ele>1438.4370117188</ele>
        <time>2017-12-17T09:15:19Z</time>
      </trkpt>
      <trkpt lat="45.30335" lon="5.8269">
        <ele>1403.4370117188</ele>
        <time>2017-12-17T09:15:28Z</time>
      </trkpt>
      <trkpt lat="45.30339" lon="5.82693">
        <ele>1401.4370117188</ele>
        <time>2017-12-17T09:15:29Z</time>
      </trkpt>
      <trkpt lat="45.30344" lon="5.82697">
        <ele>1396.4370117188</ele>
        <time>2017-12-17T09:15:31Z</time>
      </trkpt>
      <trkpt lat="45.30352" lon="5.82697">
        <ele>1393.4370117188</ele>
        <time>2017-12-17T09:15:33Z</time>
      </trkpt>
      <trkpt lat="45.3037" lon="5.82697">
        <ele>1388.4370117188</ele>
        <time>2017-12-17T09:15:36Z</time>
      </trkpt>
      <trkpt lat="45.30385" lon="5.82701">
        <ele>1380.4370117188</ele>
        <time>2017-12-17T09:15:39Z</time>
      </trkpt>
      <trkpt lat="45.30391" lon="5.82707">
        <ele>1378.4370117188</ele>
        <time>2017-12-17T09:15:41Z</time>
      </trkpt>
      <trkpt lat="45.30395" lon="5.82715">
        <ele>1370.4370117188</ele>
        <time>2017-12-17T09:15:45Z</time>
      </trkpt>
      <trkpt lat="45.30399" lon="5.8271">
        <ele>1365.4370117188</ele>
        <time>2017-12-17T09:15:49Z</time>
      </trkpt>
      <trkpt lat="45.30402" lon="5.82704">
        <ele>1362.4370117188</ele>
        <time>2017-12-17T09:15:52Z</time>
      </trkpt>
      <trkpt lat="45.30408" lon="5.82709">
        <ele>1360.4379882812</ele>
        <time>2017-12-17T09:15:58Z</time>
      </trkpt>
      <trkpt lat="45.30409" lon="5.82715">
        <ele>1360.4379882812</ele>
        <time>2017-12-17T09:16:02Z</time>
      </trkpt>
      <trkpt lat="45.30409" lon="5.82697">
        <ele>1357.4370117188</ele>
        <time>2017-12-17T09:16:06Z</time>
      </trkpt>
      <trkpt lat="45.30411" lon="5.82703">
        <ele>1358.4379882812</ele>
        <time>2017-12-17T09:16:09Z</time>
      </trkpt>
      <trkpt lat="45.30414" lon="5.82708">
        <ele>1351.4379882812</ele>
        <time>2017-12-17T09:16:28Z</time>
      </trkpt>
      <trkpt lat="45.30419" lon="5.82708">
        <ele>1349.4379882812</ele>
        <time>2017-12-17T09:18:35Z</time>
      </trkpt>
      <trkpt lat="45.30419" lon="5.82716">
        <ele>1343.4379882812</ele>
        <time>2017-12-17T09:19:16Z</time>
      </trkpt>
      <trkpt lat="45.30413" lon="5.82719">
        <ele>1339.4379882812</ele>
        <time>2017-12-17T09:19:19Z</time>
      </trkpt>
      <trkpt lat="45.30411" lon="5.82726">
        <ele>1340.4379882812</ele>
        <time>2017-12-17T09:19:21Z</time>
      </trkpt>
      <trkpt lat="45.30407" lon="5.8273">
        <ele>1338.4379882812</ele>
        <time>2017-12-17T09:19:23Z</time>
      </trkpt>
      <trkpt lat="45.30402" lon="5.82737">
        <ele>1339.4379882812</ele>
        <time>2017-12-17T09:19:26Z</time>
      </trkpt>
      <trkpt lat="45.30405" lon="5.82754">
        <ele>1340.4379882812</ele>
        <time>2017-12-17T09:19:29Z</time>
      </trkpt>
      <trkpt lat="45.30399" lon="5.82756">
        <ele>1340.4379882812</ele>
        <time>2017-12-17T09:19:32Z</time>
      </trkpt>
      <trkpt lat="45.30399" lon="5.82763">
        <ele>1338.4379882812</ele>
        <time>2017-12-17T09:19:34Z</time>
      </trkpt>
      <trkpt lat="45.30396" lon="5.82768">
        <ele>1339.4379882812</ele>
        <time>2017-12-17T09:19:36Z</time>
      </trkpt>
      <trkpt lat="45.30401" lon="5.82781">
        <ele>1337.4379882812</ele>
        <time>2017-12-17T09:19:39Z</time>
      </trkpt>
      <trkpt lat="45.30394" lon="5.82774">
        <ele>1337.4379882812</ele>
        <time>2017-12-17T09:19:41Z</time>
      </trkpt>
      <trkpt lat="45.3039" lon="5.8278">
        <ele>1334.4379882812</ele>
        <time>2017-12-17T09:19:47Z</time>
      </trkpt>
      <trkpt lat="45.30387" lon="5.82787">
        <ele>1333.4379882812</ele>
        <time>2017-12-17T09:19:49Z</time>
      </trkpt>
      <trkpt lat="45.30379" lon="5.82792">
        <ele>1330.4379882812</ele>
        <time>2017-12-17T09:19:51Z</time>
      </trkpt>
      <trkpt lat="45.30375" lon="5.82796">
        <ele>1332.4379882812</ele>
        <time>2017-12-17T09:19:53Z</time>
      </trkpt>
      <trkpt lat="45.30376" lon="5.82803">
        <ele>1332.4379882812</ele>
        <time>2017-12-17T09:19:58Z</time>
      </trkpt>
      <trkpt lat="45.30377" lon="5.82811">
        <ele>1332.4379882812</ele>
        <time>2017-12-17T09:20:03Z</time>
      </trkpt>
      <trkpt lat="45.30373" lon="5.82815">
        <ele>1336.4379882812</ele>
        <time>2017-12-17T09:20:07Z</time>
      </trkpt>
      <trkpt lat="45.30368" lon="5.82816">
        <ele>1336.4379882812</ele>
        <time>2017-12-17T09:20:10Z</time>
      </trkpt>
      <trkpt lat="45.30363" lon="5.82819">
        <ele>1336.4379882812</ele>
        <time>2017-12-17T09:20:13Z</time>
      </trkpt>
      <trkpt lat="45.30359" lon="5.82822">
        <ele>1336.4379882812</ele>
        <time>2017-12-17T09:20:16Z</time>
      </trkpt>
      <trkpt lat="45.3036" lon="5.82828">
        <ele>1336.4379882812</ele>
        <time>2017-12-17T09:20:19Z</time>
      </trkpt>
      <trkpt lat="45.30361" lon="5.82837">
        <ele>1333.4379882812</ele>
        <time>2017-12-17T09:20:22Z</time>
      </trkpt>
      <trkpt lat="45.30348" lon="5.82836">
        <ele>1333.4379882812</ele>
        <time>2017-12-17T09:20:25Z</time>
      </trkpt>
      <trkpt lat="45.30354" lon="5.82839">
        <ele>1334.4379882812</ele>
        <time>2017-12-17T09:20:26Z</time>
      </trkpt>
      <trkpt lat="45.30352" lon="5.82847">
        <ele>1333.4379882812</ele>
        <time>2017-12-17T09:20:32Z</time>
      </trkpt>
      <trkpt lat="45.30353" lon="5.82854">
        <ele>1333.4379882812</ele>
        <time>2017-12-17T09:20:34Z</time>
      </trkpt>
      <trkpt lat="45.30353" lon="5.82861">
        <ele>1332.4379882812</ele>
        <time>2017-12-17T09:20:37Z</time>
      </trkpt>
      <trkpt lat="45.3035" lon="5.82866">
        <ele>1331.4379882812</ele>
        <time>2017-12-17T09:20:40Z</time>
      </trkpt>
      <trkpt lat="45.30352" lon="5.82872">
        <ele>1335.4379882812</ele>
        <time>2017-12-17T09:20:45Z</time>
      </trkpt>
      <trkpt lat="45.30354" lon="5.82881">
        <ele>1336.4379882812</ele>
        <time>2017-12-17T09:20:50Z</time>
      </trkpt>
      <trkpt lat="45.30357" lon="5.82886">
        <ele>1338.4379882812</ele>
        <time>2017-12-17T09:20:55Z</time>
      </trkpt>
      <trkpt lat="45.30359" lon="5.82894">
        <ele>1340.4379882812</ele>
        <time>2017-12-17T09:21:00Z</time>
      </trkpt>
      <trkpt lat="45.30363" lon="5.829">
        <ele>1339.4379882812</ele>
        <time>2017-12-17T09:21:05Z</time>
      </trkpt>
      <trkpt lat="45.30367" lon="5.82904">
        <ele>1340.4379882812</ele>
        <time>2017-12-17T09:21:09Z</time>
      </trkpt>
      <trkpt lat="45.3037" lon="5.82908">
        <ele>1341.4379882812</ele>
        <time>2017-12-17T09:21:15Z</time>
      </trkpt>
      <trkpt lat="45.30375" lon="5.82913">
        <ele>1339.4379882812</ele>
        <time>2017-12-17T09:21:18Z</time>
      </trkpt>
      <trkpt lat="45.30381" lon="5.82914">
        <ele>1342.4379882812</ele>
        <time>2017-12-17T09:21:24Z</time>
      </trkpt>
      <trkpt lat="45.30387" lon="5.82914">
        <ele>1343.4379882812</ele>
        <time>2017-12-17T09:21:30Z</time>
      </trkpt>
      <trkpt lat="45.30391" lon="5.82913">
        <ele>1345.4379882812</ele>
        <time>2017-12-17T09:21:33Z</time>
      </trkpt>
      <trkpt lat="45.30397" lon="5.82915">
        <ele>1346.4379882812</ele>
        <time>2017-12-17T09:21:36Z</time>
      </trkpt>
      <trkpt lat="45.30401" lon="5.82917">
        <ele>1345.4379882812</ele>
        <time>2017-12-17T09:21:39Z</time>
      </trkpt>
      <trkpt lat="45.30408" lon="5.82915">
        <ele>1343.4379882812</ele>
        <time>2017-12-17T09:21:44Z</time>
      </trkpt>
      <trkpt lat="45.30411" lon="5.82909">
        <ele>1345.4379882812</ele>
        <time>2017-12-17T09:21:48Z</time>
      </trkpt>
      <trkpt lat="45.30417" lon="5.82909">
        <ele>1346.4379882812</ele>
        <time>2017-12-17T09:21:51Z</time>
      </trkpt>
      <trkpt lat="45.30421" lon="5.82906">
        <ele>1346.4379882812</ele>
        <time>2017-12-17T09:21:54Z</time>
      </trkpt>
      <trkpt lat="45.30427" lon="5.82905">
        <ele>1345.4379882812</ele>
        <time>2017-12-17T09:21:58Z</time>
      </trkpt>
      <trkpt lat="45.30432" lon="5.82902">
        <ele>1346.4379882812</ele>
        <time>2017-12-17T09:22:02Z</time>
      </trkpt>
      <trkpt lat="45.30438" lon="5.82901">
        <ele>1348.4379882812</ele>
        <time>2017-12-17T09:22:05Z</time>
      </trkpt>
      <trkpt lat="45.30443" lon="5.82902">
        <ele>1348.4379882812</ele>
        <time>2017-12-17T09:22:09Z</time>
      </trkpt>
      <trkpt lat="45.30448" lon="5.82902">
        <ele>1346.4379882812</ele>
        <time>2017-12-17T09:22:12Z</time>
      </trkpt>
      <trkpt lat="45.30453" lon="5.82903">
        <ele>1348.4379882812</ele>
        <time>2017-12-17T09:22:15Z</time>
      </trkpt>
      <trkpt lat="45.30459" lon="5.82905">
        <ele>1349.4379882812</ele>
        <time>2017-12-17T09:22:19Z</time>
      </trkpt>
      <trkpt lat="45.30465" lon="5.82907">
        <ele>1346.4379882812</ele>
        <time>2017-12-17T09:22:22Z</time>
      </trkpt>
      <trkpt lat="45.3047" lon="5.8291">
        <ele>1344.4379882812</ele>
        <time>2017-12-17T09:22:25Z</time>
      </trkpt>
      <trkpt lat="45.30472" lon="5.82916">
        <ele>1341.4379882812</ele>
        <time>2017-12-17T09:22:28Z</time>
      </trkpt>
      <trkpt lat="45.30473" lon="5.82924">
        <ele>1343.4379882812</ele>
        <time>2017-12-17T09:22:33Z</time>
      </trkpt>
      <trkpt lat="45.30474" lon="5.82931">
        <ele>1339.4379882812</ele>
        <time>2017-12-17T09:22:37Z</time>
      </trkpt>
      <trkpt lat="45.30474" lon="5.82938">
        <ele>1339.4379882812</ele>
        <time>2017-12-17T09:22:40Z</time>
      </trkpt>
      <trkpt lat="45.30472" lon="5.82946">
        <ele>1339.4379882812</ele>
        <time>2017-12-17T09:22:44Z</time>
      </trkpt>
      <trkpt lat="45.3047" lon="5.82952">
        <ele>1338.4379882812</ele>
        <time>2017-12-17T09:22:47Z</time>
      </trkpt>
      <trkpt lat="45.30468" lon="5.82958">
        <ele>1338.4379882812</ele>
        <time>2017-12-17T09:22:50Z</time>
      </trkpt>
      <trkpt lat="45.30468" lon="5.82965">
        <ele>1336.4379882812</ele>
        <time>2017-12-17T09:22:54Z</time>
      </trkpt>
      <trkpt lat="45.3047" lon="5.82972">
        <ele>1335.4379882812</ele>
        <time>2017-12-17T09:22:58Z</time>
      </trkpt>
      <trkpt lat="45.30473" lon="5.82978">
        <ele>1335.4379882812</ele>
        <time>2017-12-17T09:23:03Z</time>
      </trkpt>
      <trkpt lat="45.30477" lon="5.82982">
        <ele>1335.4379882812</ele>
        <time>2017-12-17T09:23:07Z</time>
      </trkpt>
      <trkpt lat="45.30481" lon="5.82986">
        <ele>1338.4379882812</ele>
        <time>2017-12-17T09:23:12Z</time>
      </trkpt>
      <trkpt lat="45.30485" lon="5.8299">
        <ele>1338.4379882812</ele>
        <time>2017-12-17T09:23:16Z</time>
      </trkpt>
      <trkpt lat="45.3049" lon="5.82993">
        <ele>1339.4379882812</ele>
        <time>2017-12-17T09:23:20Z</time>
      </trkpt>
      <trkpt lat="45.30494" lon="5.82992">
        <ele>1339.4379882812</ele>
        <time>2017-12-17T09:23:23Z</time>
      </trkpt>
      <trkpt lat="45.30499" lon="5.8299">
        <ele>1340.4379882812</ele>
        <time>2017-12-17T09:23:26Z</time>
      </trkpt>
      <trkpt lat="45.30504" lon="5.82993">
        <ele>1342.4379882812</ele>
        <time>2017-12-17T09:23:33Z</time>
      </trkpt>
      <trkpt lat="45.30506" lon="5.82999">
        <ele>1345.4379882812</ele>
        <time>2017-12-17T09:23:39Z</time>
      </trkpt>
      <trkpt lat="45.3051" lon="5.83005">
        <ele>1344.4379882812</ele>
        <time>2017-12-17T09:23:43Z</time>
      </trkpt>
      <trkpt lat="45.30514" lon="5.83008">
        <ele>1344.4379882812</ele>
        <time>2017-12-17T09:23:46Z</time>
      </trkpt>
      <trkpt lat="45.30513" lon="5.83015">
        <ele>1345.4379882812</ele>
        <time>2017-12-17T09:23:51Z</time>
      </trkpt>
      <trkpt lat="45.30513" lon="5.83021">
        <ele>1346.4379882812</ele>
        <time>2017-12-17T09:23:56Z</time>
      </trkpt>
      <trkpt lat="45.30516" lon="5.83025">
        <ele>1347.4379882812</ele>
        <time>2017-12-17T09:24:01Z</time>
      </trkpt>
      <trkpt lat="45.3052" lon="5.8303">
        <ele>1346.4379882812</ele>
        <time>2017-12-17T09:24:05Z</time>
      </trkpt>
      <trkpt lat="45.30523" lon="5.83036">
        <ele>1343.4379882812</ele>
        <time>2017-12-17T09:24:10Z</time>
      </trkpt>
      <trkpt lat="45.30526" lon="5.83043">
        <ele>1344.4379882812</ele>
        <time>2017-12-17T09:24:17Z</time>
      </trkpt>
      <trkpt lat="45.30525" lon="5.83051">
        <ele>1347.4379882812</ele>
        <time>2017-12-17T09:24:22Z</time>
      </trkpt>
      <trkpt lat="45.30528" lon="5.83055">
        <ele>1345.4379882812</ele>
        <time>2017-12-17T09:24:26Z</time>
      </trkpt>
      <trkpt lat="45.30534" lon="5.83055">
        <ele>1353.4379882812</ele>
        <time>2017-12-17T09:24:34Z</time>
      </trkpt>
      <trkpt lat="45.30537" lon="5.83051">
        <ele>1356.4379882812</ele>
        <time>2017-12-17T09:24:40Z</time>
      </trkpt>
      <trkpt lat="45.30541" lon="5.83046">
        <ele>1360.4379882812</ele>
        <time>2017-12-17T09:24:44Z</time>
      </trkpt>
      <trkpt lat="45.30545" lon="5.83042">
        <ele>1362.4379882812</ele>
        <time>2017-12-17T09:24:49Z</time>
      </trkpt>
      <trkpt lat="45.30551" lon="5.83041">
        <ele>1364.4379882812</ele>
        <time>2017-12-17T09:24:53Z</time>
      </trkpt>
      <trkpt lat="45.30555" lon="5.83036">
        <ele>1368.4379882812</ele>
        <time>2017-12-17T09:24:59Z</time>
      </trkpt>
      <trkpt lat="45.30554" lon="5.83043">
        <ele>1369.4379882812</ele>
        <time>2017-12-17T09:25:04Z</time>
      </trkpt>
      <trkpt lat="45.30554" lon="5.83051">
        <ele>1370.4379882812</ele>
        <time>2017-12-17T09:25:09Z</time>
      </trkpt>
      <trkpt lat="45.30556" lon="5.83059">
        <ele>1373.4379882812</ele>
        <time>2017-12-17T09:25:14Z</time>
      </trkpt>
      <trkpt lat="45.30561" lon="5.83058">
        <ele>1376.4379882812</ele>
        <time>2017-12-17T09:25:19Z</time>
      </trkpt>
      <trkpt lat="45.30565" lon="5.83058">
        <ele>1378.4379882812</ele>
        <time>2017-12-17T09:25:23Z</time>
      </trkpt>
      <trkpt lat="45.3057" lon="5.83058">
        <ele>1379.4379882812</ele>
        <time>2017-12-17T09:25:28Z</time>
      </trkpt>
      <trkpt lat="45.30574" lon="5.83056">
        <ele>1383.4379882812</ele>
        <time>2017-12-17T09:25:32Z</time>
      </trkpt>
      <trkpt lat="45.30579" lon="5.83052">
        <ele>1383.4379882812</ele>
        <time>2017-12-17T09:25:36Z</time>
      </trkpt>
      <trkpt lat="45.30582" lon="5.83057">
        <ele>1382.4379882812</ele>
        <time>2017-12-17T09:25:48Z</time>
      </trkpt>
      <trkpt lat="45.30586" lon="5.83062">
        <ele>1385.4379882812</ele>
        <time>2017-12-17T09:25:54Z</time>
      </trkpt>
      <trkpt lat="45.30589" lon="5.83058">
        <ele>1388.4379882812</ele>
        <time>2017-12-17T09:25:59Z</time>
      </trkpt>
      <trkpt lat="45.30587" lon="5.83064">
        <ele>1384.4379882812</ele>
        <time>2017-12-17T09:26:03Z</time>
      </trkpt>
      <trkpt lat="45.30584" lon="5.8307">
        <ele>1384.4379882812</ele>
        <time>2017-12-17T09:26:06Z</time>
      </trkpt>
      <trkpt lat="45.30582" lon="5.83078">
        <ele>1390.4379882812</ele>
        <time>2017-12-17T09:26:15Z</time>
      </trkpt>
      <trkpt lat="45.30584" lon="5.83085">
        <ele>1391.4379882812</ele>
        <time>2017-12-17T09:26:21Z</time>
      </trkpt>
      <trkpt lat="45.30587" lon="5.83079">
        <ele>1397.4379882812</ele>
        <time>2017-12-17T09:26:25Z</time>
      </trkpt>
      <trkpt lat="45.30591" lon="5.83077">
        <ele>1404.4379882812</ele>
        <time>2017-12-17T09:26:31Z</time>
      </trkpt>
      <trkpt lat="45.3059" lon="5.83084">
        <ele>1404.4379882812</ele>
        <time>2017-12-17T09:26:40Z</time>
      </trkpt>
      <trkpt lat="45.30592" lon="5.83091">
        <ele>1401.4379882812</ele>
        <time>2017-12-17T09:26:45Z</time>
      </trkpt>
      <trkpt lat="45.30596" lon="5.83085">
        <ele>1404.4379882812</ele>
        <time>2017-12-17T09:26:51Z</time>
      </trkpt>
      <trkpt lat="45.306" lon="5.83079">
        <ele>1410.4379882812</ele>
        <time>2017-12-17T09:26:55Z</time>
      </trkpt>
      <trkpt lat="45.30603" lon="5.83073">
        <ele>1415.4379882812</ele>
        <time>2017-12-17T09:26:59Z</time>
      </trkpt>
      <trkpt lat="45.30606" lon="5.83069">
        <ele>1416.4379882812</ele>
        <time>2017-12-17T09:27:03Z</time>
      </trkpt>
      <trkpt lat="45.3061" lon="5.83064">
        <ele>1419.4379882812</ele>
        <time>2017-12-17T09:27:07Z</time>
      </trkpt>
      <trkpt lat="45.30614" lon="5.83057">
        <ele>1420.4379882812</ele>
        <time>2017-12-17T09:27:11Z</time>
      </trkpt>
      <trkpt lat="45.30616" lon="5.8305">
        <ele>1422.4379882812</ele>
        <time>2017-12-17T09:27:15Z</time>
      </trkpt>
      <trkpt lat="45.30617" lon="5.83043">
        <ele>1423.4379882812</ele>
        <time>2017-12-17T09:27:21Z</time>
      </trkpt>
      <trkpt lat="45.30619" lon="5.83037">
        <ele>1426.4379882812</ele>
        <time>2017-12-17T09:27:24Z</time>
      </trkpt>
      <trkpt lat="45.30621" lon="5.8303">
        <ele>1426.4379882812</ele>
        <time>2017-12-17T09:27:28Z</time>
      </trkpt>
      <trkpt lat="45.30622" lon="5.83023">
        <ele>1429.4379882812</ele>
        <time>2017-12-17T09:27:31Z</time>
      </trkpt>
      <trkpt lat="45.30623" lon="5.83017">
        <ele>1429.4379882812</ele>
        <time>2017-12-17T09:27:34Z</time>
      </trkpt>
      <trkpt lat="45.30624" lon="5.83009">
        <ele>1431.4379882812</ele>
        <time>2017-12-17T09:27:38Z</time>
      </trkpt>
      <trkpt lat="45.30626" lon="5.83001">
        <ele>1432.4379882812</ele>
        <time>2017-12-17T09:27:42Z</time>
      </trkpt>
      <trkpt lat="45.30627" lon="5.82995">
        <ele>1436.4379882812</ele>
        <time>2017-12-17T09:27:45Z</time>
      </trkpt>
      <trkpt lat="45.30629" lon="5.82988">
        <ele>1439.4379882812</ele>
        <time>2017-12-17T09:27:49Z</time>
      </trkpt>
      <trkpt lat="45.30631" lon="5.82982">
        <ele>1442.4379882812</ele>
        <time>2017-12-17T09:27:52Z</time>
      </trkpt>
      <trkpt lat="45.30634" lon="5.82976">
        <ele>1444.4379882812</ele>
        <time>2017-12-17T09:27:56Z</time>
      </trkpt>
      <trkpt lat="45.30639" lon="5.8297">
        <ele>1444.4379882812</ele>
        <time>2017-12-17T09:28:01Z</time>
      </trkpt>
      <trkpt lat="45.30642" lon="5.82963">
        <ele>1444.4379882812</ele>
        <time>2017-12-17T09:28:05Z</time>
      </trkpt>
      <trkpt lat="45.30646" lon="5.82959">
        <ele>1444.4379882812</ele>
        <time>2017-12-17T09:28:09Z</time>
      </trkpt>
      <trkpt lat="45.30648" lon="5.82953">
        <ele>1444.4379882812</ele>
        <time>2017-12-17T09:28:13Z</time>
      </trkpt>
      <trkpt lat="45.3065" lon="5.82946">
        <ele>1444.4379882812</ele>
        <time>2017-12-17T09:28:16Z</time>
      </trkpt>
      <trkpt lat="45.30653" lon="5.82942">
        <ele>1444.4379882812</ele>
        <time>2017-12-17T09:28:19Z</time>
      </trkpt>
      <trkpt lat="45.30656" lon="5.82936">
        <ele>1443.4379882812</ele>
        <time>2017-12-17T09:28:22Z</time>
      </trkpt>
      <trkpt lat="45.30659" lon="5.8293">
        <ele>1443.4379882812</ele>
        <time>2017-12-17T09:28:26Z</time>
      </trkpt>
      <trkpt lat="45.30663" lon="5.82926">
        <ele>1444.4379882812</ele>
        <time>2017-12-17T09:28:29Z</time>
      </trkpt>
      <trkpt lat="45.30666" lon="5.82921">
        <ele>1444.4379882812</ele>
        <time>2017-12-17T09:28:32Z</time>
      </trkpt>
      <trkpt lat="45.3067" lon="5.82916">
        <ele>1447.4379882812</ele>
        <time>2017-12-17T09:28:36Z</time>
      </trkpt>
      <trkpt lat="45.30674" lon="5.82911">
        <ele>1444.4379882812</ele>
        <time>2017-12-17T09:28:41Z</time>
      </trkpt>
      <trkpt lat="45.30676" lon="5.82903">
        <ele>1444.4379882812</ele>
        <time>2017-12-17T09:28:46Z</time>
      </trkpt>
      <trkpt lat="45.30681" lon="5.82896">
        <ele>1445.4379882812</ele>
        <time>2017-12-17T09:28:56Z</time>
      </trkpt>
      <trkpt lat="45.30686" lon="5.82895">
        <ele>1447.4379882812</ele>
        <time>2017-12-17T09:28:58Z</time>
      </trkpt>
      <trkpt lat="45.30687" lon="5.82887">
        <ele>1446.4379882812</ele>
        <time>2017-12-17T09:29:01Z</time>
      </trkpt>
      <trkpt lat="45.30689" lon="5.82877">
        <ele>1446.4379882812</ele>
        <time>2017-12-17T09:29:05Z</time>
      </trkpt>
      <trkpt lat="45.30694" lon="5.82873">
        <ele>1440.4379882812</ele>
        <time>2017-12-17T09:29:11Z</time>
      </trkpt>
      <trkpt lat="45.30697" lon="5.82867">
        <ele>1443.4379882812</ele>
        <time>2017-12-17T09:29:14Z</time>
      </trkpt>
      <trkpt lat="45.30701" lon="5.82862">
        <ele>1445.4379882812</ele>
        <time>2017-12-17T09:29:17Z</time>
      </trkpt>
      <trkpt lat="45.30705" lon="5.82857">
        <ele>1445.4379882812</ele>
        <time>2017-12-17T09:29:20Z</time>
      </trkpt>
      <trkpt lat="45.3071" lon="5.82852">
        <ele>1450.4379882812</ele>
        <time>2017-12-17T09:29:24Z</time>
      </trkpt>
      <trkpt lat="45.30714" lon="5.82847">
        <ele>1451.4379882812</ele>
        <time>2017-12-17T09:29:27Z</time>
      </trkpt>
      <trkpt lat="45.3072" lon="5.82844">
        <ele>1453.4379882812</ele>
        <time>2017-12-17T09:29:31Z</time>
      </trkpt>
      <trkpt lat="45.30717" lon="5.82837">
        <ele>1456.4379882812</ele>
        <time>2017-12-17T09:29:34Z</time>
      </trkpt>
      <trkpt lat="45.30722" lon="5.82833">
        <ele>1456.4379882812</ele>
        <time>2017-12-17T09:29:37Z</time>
      </trkpt>
      <trkpt lat="45.30727" lon="5.82829">
        <ele>1455.4379882812</ele>
        <time>2017-12-17T09:29:42Z</time>
      </trkpt>
      <trkpt lat="45.3073" lon="5.82823">
        <ele>1456.4379882812</ele>
        <time>2017-12-17T09:29:46Z</time>
      </trkpt>
      <trkpt lat="45.30733" lon="5.82819">
        <ele>1459.4379882812</ele>
        <time>2017-12-17T09:29:49Z</time>
      </trkpt>
      <trkpt lat="45.30737" lon="5.82816">
        <ele>1459.4379882812</ele>
        <time>2017-12-17T09:29:53Z</time>
      </trkpt>
      <trkpt lat="45.30742" lon="5.82809">
        <ele>1457.4379882812</ele>
        <time>2017-12-17T09:29:59Z</time>
      </trkpt>
      <trkpt lat="45.30741" lon="5.82802">
        <ele>1455.4379882812</ele>
        <time>2017-12-17T09:30:02Z</time>
      </trkpt>
      <trkpt lat="45.30745" lon="5.82797">
        <ele>1458.4379882812</ele>
        <time>2017-12-17T09:30:04Z</time>
      </trkpt>
      <trkpt lat="45.30749" lon="5.82791">
        <ele>1459.4379882812</ele>
        <time>2017-12-17T09:30:08Z</time>
      </trkpt>
      <trkpt lat="45.3075" lon="5.82784">
        <ele>1459.4379882812</ele>
        <time>2017-12-17T09:30:12Z</time>
      </trkpt>
      <trkpt lat="45.30753" lon="5.82778">
        <ele>1459.4379882812</ele>
        <time>2017-12-17T09:30:15Z</time>
      </trkpt>
      <trkpt lat="45.30752" lon="5.82772">
        <ele>1459.4379882812</ele>
        <time>2017-12-17T09:30:18Z</time>
      </trkpt>
      <trkpt lat="45.30753" lon="5.82765">
        <ele>1459.4379882812</ele>
        <time>2017-12-17T09:30:22Z</time>
      </trkpt>
      <trkpt lat="45.30758" lon="5.82758">
        <ele>1460.4379882812</ele>
        <time>2017-12-17T09:30:26Z</time>
      </trkpt>
      <trkpt lat="45.30755" lon="5.8275">
        <ele>1461.4379882812</ele>
        <time>2017-12-17T09:30:29Z</time>
      </trkpt>
      <trkpt lat="45.30755" lon="5.82742">
        <ele>1461.4379882812</ele>
        <time>2017-12-17T09:30:32Z</time>
      </trkpt>
      <trkpt lat="45.30761" lon="5.8274">
        <ele>1464.4379882812</ele>
        <time>2017-12-17T09:30:36Z</time>
      </trkpt>
      <trkpt lat="45.30765" lon="5.82734">
        <ele>1464.4379882812</ele>
        <time>2017-12-17T09:30:40Z</time>
      </trkpt>
      <trkpt lat="45.30768" lon="5.82729">
        <ele>1468.4379882812</ele>
        <time>2017-12-17T09:30:43Z</time>
      </trkpt>
      <trkpt lat="45.30769" lon="5.82723">
        <ele>1469.4379882812</ele>
        <time>2017-12-17T09:30:46Z</time>
      </trkpt>
      <trkpt lat="45.30772" lon="5.82716">
        <ele>1463.4379882812</ele>
        <time>2017-12-17T09:30:53Z</time>
      </trkpt>
      <trkpt lat="45.30775" lon="5.82711">
        <ele>1461.4379882812</ele>
        <time>2017-12-17T09:30:58Z</time>
      </trkpt>
      <trkpt lat="45.3078" lon="5.82707">
        <ele>1461.4379882812</ele>
        <time>2017-12-17T09:31:03Z</time>
      </trkpt>
      <trkpt lat="45.30783" lon="5.82702">
        <ele>1463.4379882812</ele>
        <time>2017-12-17T09:31:06Z</time>
      </trkpt>
      <trkpt lat="45.30787" lon="5.82697">
        <ele>1464.4379882812</ele>
        <time>2017-12-17T09:31:09Z</time>
      </trkpt>
      <trkpt lat="45.30791" lon="5.82692">
        <ele>1465.4379882812</ele>
        <time>2017-12-17T09:31:13Z</time>
      </trkpt>
      <trkpt lat="45.30796" lon="5.8269">
        <ele>1465.4379882812</ele>
        <time>2017-12-17T09:31:16Z</time>
      </trkpt>
      <trkpt lat="45.308" lon="5.82684">
        <ele>1468.4379882812</ele>
        <time>2017-12-17T09:31:21Z</time>
      </trkpt>
      <trkpt lat="45.30804" lon="5.82678">
        <ele>1469.4379882812</ele>
        <time>2017-12-17T09:31:24Z</time>
      </trkpt>
      <trkpt lat="45.30808" lon="5.82671">
        <ele>1472.4379882812</ele>
        <time>2017-12-17T09:31:28Z</time>
      </trkpt>
      <trkpt lat="45.30812" lon="5.82667">
        <ele>1476.4379882812</ele>
        <time>2017-12-17T09:31:31Z</time>
      </trkpt>
      <trkpt lat="45.30815" lon="5.8266">
        <ele>1479.4379882812</ele>
        <time>2017-12-17T09:31:34Z</time>
      </trkpt>
      <trkpt lat="45.3082" lon="5.82657">
        <ele>1482.4379882812</ele>
        <time>2017-12-17T09:31:37Z</time>
      </trkpt>
      <trkpt lat="45.30821" lon="5.82648">
        <ele>1481.4379882812</ele>
        <time>2017-12-17T09:31:42Z</time>
      </trkpt>
      <trkpt lat="45.30824" lon="5.82642">
        <ele>1483.4379882812</ele>
        <time>2017-12-17T09:31:49Z</time>
      </trkpt>
      <trkpt lat="45.30828" lon="5.82638">
        <ele>1483.4379882812</ele>
        <time>2017-12-17T09:31:53Z</time>
      </trkpt>
      <trkpt lat="45.30831" lon="5.82632">
        <ele>1481.4379882812</ele>
        <time>2017-12-17T09:31:58Z</time>
      </trkpt>
      <trkpt lat="45.30835" lon="5.82625">
        <ele>1478.4379882812</ele>
        <time>2017-12-17T09:32:02Z</time>
      </trkpt>
      <trkpt lat="45.30839" lon="5.82622">
        <ele>1477.4379882812</ele>
        <time>2017-12-17T09:32:06Z</time>
      </trkpt>
      <trkpt lat="45.30843" lon="5.82617">
        <ele>1480.4379882812</ele>
        <time>2017-12-17T09:32:10Z</time>
      </trkpt>
      <trkpt lat="45.30844" lon="5.82609">
        <ele>1484.4379882812</ele>
        <time>2017-12-17T09:32:14Z</time>
      </trkpt>
      <trkpt lat="45.30851" lon="5.82608">
        <ele>1483.4379882812</ele>
        <time>2017-12-17T09:32:17Z</time>
      </trkpt>
      <trkpt lat="45.30854" lon="5.82602">
        <ele>1478.4379882812</ele>
        <time>2017-12-17T09:32:21Z</time>
      </trkpt>
      <trkpt lat="45.30855" lon="5.82594">
        <ele>1479.4379882812</ele>
        <time>2017-12-17T09:32:25Z</time>
      </trkpt>
      <trkpt lat="45.3086" lon="5.82589">
        <ele>1479.4379882812</ele>
        <time>2017-12-17T09:32:29Z</time>
      </trkpt>
      <trkpt lat="45.30864" lon="5.82587">
        <ele>1479.4379882812</ele>
        <time>2017-12-17T09:32:36Z</time>
      </trkpt>
      <trkpt lat="45.30868" lon="5.82589">
        <ele>1476.4379882812</ele>
        <time>2017-12-17T09:32:39Z</time>
      </trkpt>
      <trkpt lat="45.30874" lon="5.82591">
        <ele>1474.4379882812</ele>
        <time>2017-12-17T09:32:42Z</time>
      </trkpt>
      <trkpt lat="45.30879" lon="5.82591">
        <ele>1472.4379882812</ele>
        <time>2017-12-17T09:32:46Z</time>
      </trkpt>
      <trkpt lat="45.30884" lon="5.82591">
        <ele>1468.4379882812</ele>
        <time>2017-12-17T09:32:51Z</time>
      </trkpt>
      <trkpt lat="45.30889" lon="5.8259">
        <ele>1469.4379882812</ele>
        <time>2017-12-17T09:32:57Z</time>
      </trkpt>
      <trkpt lat="45.30894" lon="5.82594">
        <ele>1465.4379882812</ele>
        <time>2017-12-17T09:33:00Z</time>
      </trkpt>
      <trkpt lat="45.30895" lon="5.82601">
        <ele>1463.4379882812</ele>
        <time>2017-12-17T09:33:07Z</time>
      </trkpt>
      <trkpt lat="45.30893" lon="5.82608">
        <ele>1462.4379882812</ele>
        <time>2017-12-17T09:33:12Z</time>
      </trkpt>
      <trkpt lat="45.30891" lon="5.82614">
        <ele>1463.4379882812</ele>
        <time>2017-12-17T09:33:16Z</time>
      </trkpt>
      <trkpt lat="45.3089" lon="5.82621">
        <ele>1464.4379882812</ele>
        <time>2017-12-17T09:33:20Z</time>
      </trkpt>
      <trkpt lat="45.30887" lon="5.82626">
        <ele>1465.4379882812</ele>
        <time>2017-12-17T09:33:24Z</time>
      </trkpt>
      <trkpt lat="45.30887" lon="5.82633">
        <ele>1466.4379882812</ele>
        <time>2017-12-17T09:33:29Z</time>
      </trkpt>
      <trkpt lat="45.30887" lon="5.82641">
        <ele>1414.4379882812</ele>
        <time>2017-12-17T09:33:35Z</time>
      </trkpt>
      <trkpt lat="45.30884" lon="5.82646">
        <ele>1447.4379882812</ele>
        <time>2017-12-17T09:33:40Z</time>
      </trkpt>
      <trkpt lat="45.30883" lon="5.82654">
        <ele>1455.4379882812</ele>
        <time>2017-12-17T09:33:45Z</time>
      </trkpt>
      <trkpt lat="45.30883" lon="5.82662">
        <ele>1465.4379882812</ele>
        <time>2017-12-17T09:33:52Z</time>
      </trkpt>
      <trkpt lat="45.30881" lon="5.82668">
        <ele>1470.4379882812</ele>
        <time>2017-12-17T09:33:57Z</time>
      </trkpt>
      <trkpt lat="45.3088" lon="5.82675">
        <ele>1472.4379882812</ele>
        <time>2017-12-17T09:34:02Z</time>
      </trkpt>
      <trkpt lat="45.30885" lon="5.82673">
        <ele>1483.4379882812</ele>
        <time>2017-12-17T09:34:11Z</time>
      </trkpt>
      <trkpt lat="45.30889" lon="5.82669">
        <ele>1487.4379882812</ele>
        <time>2017-12-17T09:34:15Z</time>
      </trkpt>
      <trkpt lat="45.30892" lon="5.82662">
        <ele>1492.4379882812</ele>
        <time>2017-12-17T09:34:20Z</time>
      </trkpt>
      <trkpt lat="45.30896" lon="5.82658">
        <ele>1496.4379882812</ele>
        <time>2017-12-17T09:34:27Z</time>
      </trkpt>
      <trkpt lat="45.30902" lon="5.82658">
        <ele>1498.4379882812</ele>
        <time>2017-12-17T09:34:33Z</time>
      </trkpt>
      <trkpt lat="45.30907" lon="5.82656">
        <ele>1501.4379882812</ele>
        <time>2017-12-17T09:34:39Z</time>
      </trkpt>
      <trkpt lat="45.30907" lon="5.82663">
        <ele>1502.4379882812</ele>
        <time>2017-12-17T09:34:43Z</time>
      </trkpt>
      <trkpt lat="45.30908" lon="5.82669">
        <ele>1498.4389648438</ele>
        <time>2017-12-17T09:34:46Z</time>
      </trkpt>
      <trkpt lat="45.30907" lon="5.82676">
        <ele>1488.4389648438</ele>
        <time>2017-12-17T09:34:52Z</time>
      </trkpt>
      <trkpt lat="45.30908" lon="5.82684">
        <ele>1495.4389648438</ele>
        <time>2017-12-17T09:34:59Z</time>
      </trkpt>
      <trkpt lat="45.30909" lon="5.82691">
        <ele>1494.4389648438</ele>
        <time>2017-12-17T09:35:06Z</time>
      </trkpt>
      <trkpt lat="45.30906" lon="5.82697">
        <ele>1497.4389648438</ele>
        <time>2017-12-17T09:35:10Z</time>
      </trkpt>
      <trkpt lat="45.3091" lon="5.827">
        <ele>1502.4389648438</ele>
        <time>2017-12-17T09:35:18Z</time>
      </trkpt>
      <trkpt lat="45.30916" lon="5.827">
        <ele>1503.4389648438</ele>
        <time>2017-12-17T09:35:23Z</time>
      </trkpt>
      <trkpt lat="45.3092" lon="5.82703">
        <ele>1503.4389648438</ele>
        <time>2017-12-17T09:35:27Z</time>
      </trkpt>
      <trkpt lat="45.30924" lon="5.82706">
        <ele>1505.4389648438</ele>
        <time>2017-12-17T09:35:33Z</time>
      </trkpt>
      <trkpt lat="45.30929" lon="5.82708">
        <ele>1508.4389648438</ele>
        <time>2017-12-17T09:35:38Z</time>
      </trkpt>
      <trkpt lat="45.30935" lon="5.82711">
        <ele>1504.4389648438</ele>
        <time>2017-12-17T09:35:42Z</time>
      </trkpt>
      <trkpt lat="45.30939" lon="5.82715">
        <ele>1502.4389648438</ele>
        <time>2017-12-17T09:35:46Z</time>
      </trkpt>
      <trkpt lat="45.30943" lon="5.82718">
        <ele>1503.4389648438</ele>
        <time>2017-12-17T09:35:51Z</time>
      </trkpt>
      <trkpt lat="45.30948" lon="5.8272">
        <ele>1507.4389648438</ele>
        <time>2017-12-17T09:35:55Z</time>
      </trkpt>
      <trkpt lat="45.30952" lon="5.82721">
        <ele>1508.4389648438</ele>
        <time>2017-12-17T09:36:00Z</time>
      </trkpt>
      <trkpt lat="45.30957" lon="5.82725">
        <ele>1506.4389648438</ele>
        <time>2017-12-17T09:36:04Z</time>
      </trkpt>
      <trkpt lat="45.30961" lon="5.82729">
        <ele>1507.4389648438</ele>
        <time>2017-12-17T09:36:11Z</time>
      </trkpt>
      <trkpt lat="45.30964" lon="5.82733">
        <ele>1509.4389648438</ele>
        <time>2017-12-17T09:36:16Z</time>
      </trkpt>
      <trkpt lat="45.30969" lon="5.82735">
        <ele>1509.4389648438</ele>
        <time>2017-12-17T09:36:21Z</time>
      </trkpt>
      <trkpt lat="45.30973" lon="5.8274">
        <ele>1508.4389648438</ele>
        <time>2017-12-17T09:36:27Z</time>
      </trkpt>
      <trkpt lat="45.30975" lon="5.82747">
        <ele>1509.4389648438</ele>
        <time>2017-12-17T09:36:32Z</time>
      </trkpt>
      <trkpt lat="45.30975" lon="5.82754">
        <ele>1510.4389648438</ele>
        <time>2017-12-17T09:36:36Z</time>
      </trkpt>
      <trkpt lat="45.30973" lon="5.82761">
        <ele>1512.4389648438</ele>
        <time>2017-12-17T09:36:42Z</time>
      </trkpt>
      <trkpt lat="45.30971" lon="5.82767">
        <ele>1513.4389648438</ele>
        <time>2017-12-17T09:36:47Z</time>
      </trkpt>
      <trkpt lat="45.30972" lon="5.82775">
        <ele>1513.4389648438</ele>
        <time>2017-12-17T09:36:53Z</time>
      </trkpt>
      <trkpt lat="45.30975" lon="5.82781">
        <ele>1513.4389648438</ele>
        <time>2017-12-17T09:36:59Z</time>
      </trkpt>
      <trkpt lat="45.30979" lon="5.82787">
        <ele>1515.4389648438</ele>
        <time>2017-12-17T09:37:05Z</time>
      </trkpt>
      <trkpt lat="45.30981" lon="5.82794">
        <ele>1516.4389648438</ele>
        <time>2017-12-17T09:37:10Z</time>
      </trkpt>
      <trkpt lat="45.30985" lon="5.82799">
        <ele>1521.4389648438</ele>
        <time>2017-12-17T09:37:16Z</time>
      </trkpt>
      <trkpt lat="45.3099" lon="5.82798">
        <ele>1519.4389648438</ele>
        <time>2017-12-17T09:37:19Z</time>
      </trkpt>
      <trkpt lat="45.30994" lon="5.82803">
        <ele>1521.4389648438</ele>
        <time>2017-12-17T09:37:25Z</time>
      </trkpt>
      <trkpt lat="45.30998" lon="5.82808">
        <ele>1521.4389648438</ele>
        <time>2017-12-17T09:37:30Z</time>
      </trkpt>
      <trkpt lat="45.31002" lon="5.82812">
        <ele>1521.4389648438</ele>
        <time>2017-12-17T09:37:35Z</time>
      </trkpt>
      <trkpt lat="45.31005" lon="5.82817">
        <ele>1522.4389648438</ele>
        <time>2017-12-17T09:37:40Z</time>
      </trkpt>
      <trkpt lat="45.31007" lon="5.82824">
        <ele>1523.4389648438</ele>
        <time>2017-12-17T09:37:45Z</time>
      </trkpt>
      <trkpt lat="45.31012" lon="5.82826">
        <ele>1526.4389648438</ele>
        <time>2017-12-17T09:37:50Z</time>
      </trkpt>
      <trkpt lat="45.31016" lon="5.82829">
        <ele>1528.4389648438</ele>
        <time>2017-12-17T09:37:57Z</time>
      </trkpt>
      <trkpt lat="45.3102" lon="5.82835">
        <ele>1529.4389648438</ele>
        <time>2017-12-17T09:38:03Z</time>
      </trkpt>
      <trkpt lat="45.31025" lon="5.82839">
        <ele>1531.4389648438</ele>
        <time>2017-12-17T09:38:09Z</time>
      </trkpt>
      <trkpt lat="45.31029" lon="5.82844">
        <ele>1533.4389648438</ele>
        <time>2017-12-17T09:38:15Z</time>
      </trkpt>
      <trkpt lat="45.31033" lon="5.82849">
        <ele>1533.4389648438</ele>
        <time>2017-12-17T09:38:21Z</time>
      </trkpt>
      <trkpt lat="45.31035" lon="5.82854">
        <ele>1535.4389648438</ele>
        <time>2017-12-17T09:38:27Z</time>
      </trkpt>
      <trkpt lat="45.31039" lon="5.82859">
        <ele>1538.4389648438</ele>
        <time>2017-12-17T09:38:32Z</time>
      </trkpt>
      <trkpt lat="45.31042" lon="5.82863">
        <ele>1536.4389648438</ele>
        <time>2017-12-17T09:38:38Z</time>
      </trkpt>
      <trkpt lat="45.31046" lon="5.82866">
        <ele>1537.4389648438</ele>
        <time>2017-12-17T09:38:44Z</time>
      </trkpt>
      <trkpt lat="45.31052" lon="5.82866">
        <ele>1538.4389648438</ele>
        <time>2017-12-17T09:38:49Z</time>
      </trkpt>
      <trkpt lat="45.31053" lon="5.82872">
        <ele>1542.4389648438</ele>
        <time>2017-12-17T09:38:53Z</time>
      </trkpt>
      <trkpt lat="45.31054" lon="5.8288">
        <ele>1543.4389648438</ele>
        <time>2017-12-17T09:38:58Z</time>
      </trkpt>
      <trkpt lat="45.31056" lon="5.82887">
        <ele>1543.4389648438</ele>
        <time>2017-12-17T09:39:05Z</time>
      </trkpt>
      <trkpt lat="45.31059" lon="5.82892">
        <ele>1549.4389648438</ele>
        <time>2017-12-17T09:41:04Z</time>
      </trkpt>
      <trkpt lat="45.31063" lon="5.82892">
        <ele>1558.4389648438</ele>
        <time>2017-12-17T09:42:36Z</time>
      </trkpt>
      <trkpt lat="45.31068" lon="5.82891">
        <ele>1558.4389648438</ele>
        <time>2017-12-17T09:42:41Z</time>
      </trkpt>
      <trkpt lat="45.31073" lon="5.82892">
        <ele>1559.4389648438</ele>
        <time>2017-12-17T09:42:45Z</time>
      </trkpt>
      <trkpt lat="45.31078" lon="5.82893">
        <ele>1561.4389648438</ele>
        <time>2017-12-17T09:42:50Z</time>
      </trkpt>
      <trkpt lat="45.31083" lon="5.82895">
        <ele>1561.4389648438</ele>
        <time>2017-12-17T09:42:55Z</time>
      </trkpt>
      <trkpt lat="45.31087" lon="5.82897">
        <ele>1562.4389648438</ele>
        <time>2017-12-17T09:42:59Z</time>
      </trkpt>
      <trkpt lat="45.31092" lon="5.82899">
        <ele>1562.4389648438</ele>
        <time>2017-12-17T09:43:02Z</time>
      </trkpt>
      <trkpt lat="45.31097" lon="5.82899">
        <ele>1564.4389648438</ele>
        <time>2017-12-17T09:43:08Z</time>
      </trkpt>
      <trkpt lat="45.31101" lon="5.82895">
        <ele>1563.4389648438</ele>
        <time>2017-12-17T09:43:13Z</time>
      </trkpt>
      <trkpt lat="45.31106" lon="5.82898">
        <ele>1565.4389648438</ele>
        <time>2017-12-17T09:43:17Z</time>
      </trkpt>
      <trkpt lat="45.31111" lon="5.829">
        <ele>1569.4389648438</ele>
        <time>2017-12-17T09:43:23Z</time>
      </trkpt>
      <trkpt lat="45.31116" lon="5.82902">
        <ele>1571.4389648438</ele>
        <time>2017-12-17T09:43:27Z</time>
      </trkpt>
      <trkpt lat="45.31121" lon="5.82904">
        <ele>1571.4389648438</ele>
        <time>2017-12-17T09:43:31Z</time>
      </trkpt>
      <trkpt lat="45.31125" lon="5.82906">
        <ele>1571.4389648438</ele>
        <time>2017-12-17T09:43:35Z</time>
      </trkpt>
      <trkpt lat="45.3113" lon="5.82907">
        <ele>1571.4389648438</ele>
        <time>2017-12-17T09:43:39Z</time>
      </trkpt>
      <trkpt lat="45.31135" lon="5.82907">
        <ele>1571.4389648438</ele>
        <time>2017-12-17T09:43:44Z</time>
      </trkpt>
      <trkpt lat="45.3114" lon="5.8291">
        <ele>1571.4389648438</ele>
        <time>2017-12-17T09:43:48Z</time>
      </trkpt>
      <trkpt lat="45.31144" lon="5.82909">
        <ele>1570.4389648438</ele>
        <time>2017-12-17T09:43:52Z</time>
      </trkpt>
      <trkpt lat="45.31149" lon="5.82906">
        <ele>1571.4389648438</ele>
        <time>2017-12-17T09:43:55Z</time>
      </trkpt>
      <trkpt lat="45.31154" lon="5.82908">
        <ele>1571.4389648438</ele>
        <time>2017-12-17T09:43:59Z</time>
      </trkpt>
      <trkpt lat="45.31158" lon="5.82911">
        <ele>1574.4389648438</ele>
        <time>2017-12-17T09:44:03Z</time>
      </trkpt>
      <trkpt lat="45.31162" lon="5.82915">
        <ele>1573.4389648438</ele>
        <time>2017-12-17T09:44:10Z</time>
      </trkpt>
      <trkpt lat="45.31167" lon="5.82916">
        <ele>1573.4389648438</ele>
        <time>2017-12-17T09:44:15Z</time>
      </trkpt>
      <trkpt lat="45.3117" lon="5.8292">
        <ele>1574.4389648438</ele>
        <time>2017-12-17T09:44:20Z</time>
      </trkpt>
      <trkpt lat="45.31175" lon="5.82923">
        <ele>1575.4389648438</ele>
        <time>2017-12-17T09:44:24Z</time>
      </trkpt>
      <trkpt lat="45.31179" lon="5.82928">
        <ele>1578.4389648438</ele>
        <time>2017-12-17T09:44:30Z</time>
      </trkpt>
      <trkpt lat="45.31184" lon="5.82931">
        <ele>1581.4389648438</ele>
        <time>2017-12-17T09:44:36Z</time>
      </trkpt>
      <trkpt lat="45.31184" lon="5.82938">
        <ele>1581.4389648438</ele>
        <time>2017-12-17T09:44:40Z</time>
      </trkpt>
      <trkpt lat="45.31187" lon="5.82943">
        <ele>1584.4389648438</ele>
        <time>2017-12-17T09:44:45Z</time>
      </trkpt>
      <trkpt lat="45.3119" lon="5.8295">
        <ele>1584.4389648438</ele>
        <time>2017-12-17T09:44:51Z</time>
      </trkpt>
      <trkpt lat="45.3119" lon="5.82957">
        <ele>1586.4389648438</ele>
        <time>2017-12-17T09:44:57Z</time>
      </trkpt>
      <trkpt lat="45.31194" lon="5.82961">
        <ele>1587.4389648438</ele>
        <time>2017-12-17T09:45:03Z</time>
      </trkpt>
      <trkpt lat="45.31197" lon="5.82966">
        <ele>1588.4399414062</ele>
        <time>2017-12-17T09:45:09Z</time>
      </trkpt>
      <trkpt lat="45.312" lon="5.82972">
        <ele>1590.4399414062</ele>
        <time>2017-12-17T09:45:13Z</time>
      </trkpt>
      <trkpt lat="45.31201" lon="5.8298">
        <ele>1592.4399414062</ele>
        <time>2017-12-17T09:45:18Z</time>
      </trkpt>
      <trkpt lat="45.31205" lon="5.82984">
        <ele>1594.4399414062</ele>
        <time>2017-12-17T09:45:22Z</time>
      </trkpt>
      <trkpt lat="45.31209" lon="5.82987">
        <ele>1593.4399414062</ele>
        <time>2017-12-17T09:45:27Z</time>
      </trkpt>
      <trkpt lat="45.31213" lon="5.82991">
        <ele>1594.4399414062</ele>
        <time>2017-12-17T09:45:32Z</time>
      </trkpt>
      <trkpt lat="45.31216" lon="5.82996">
        <ele>1594.4399414062</ele>
        <time>2017-12-17T09:45:37Z</time>
      </trkpt>
      <trkpt lat="45.3122" lon="5.83001">
        <ele>1596.4399414062</ele>
        <time>2017-12-17T09:45:43Z</time>
      </trkpt>
      <trkpt lat="45.31222" lon="5.83007">
        <ele>1597.4399414062</ele>
        <time>2017-12-17T09:45:48Z</time>
      </trkpt>
      <trkpt lat="45.31224" lon="5.83013">
        <ele>1597.4399414062</ele>
        <time>2017-12-17T09:45:53Z</time>
      </trkpt>
      <trkpt lat="45.31227" lon="5.83018">
        <ele>1597.4399414062</ele>
        <time>2017-12-17T09:45:58Z</time>
      </trkpt>
      <trkpt lat="45.3123" lon="5.83024">
        <ele>1599.4399414062</ele>
        <time>2017-12-17T09:46:03Z</time>
      </trkpt>
      <trkpt lat="45.31233" lon="5.83031">
        <ele>1599.4399414062</ele>
        <time>2017-12-17T09:46:10Z</time>
      </trkpt>
      <trkpt lat="45.31237" lon="5.83036">
        <ele>1601.4399414062</ele>
        <time>2017-12-17T09:46:16Z</time>
      </trkpt>
      <trkpt lat="45.3124" lon="5.83043">
        <ele>1602.4399414062</ele>
        <time>2017-12-17T09:46:22Z</time>
      </trkpt>
      <trkpt lat="45.31243" lon="5.83049">
        <ele>1602.4399414062</ele>
        <time>2017-12-17T09:46:27Z</time>
      </trkpt>
      <trkpt lat="45.31247" lon="5.83053">
        <ele>1604.4399414062</ele>
        <time>2017-12-17T09:46:32Z</time>
      </trkpt>
      <trkpt lat="45.31251" lon="5.83059">
        <ele>1606.4399414062</ele>
        <time>2017-12-17T09:46:38Z</time>
      </trkpt>
      <trkpt lat="45.31253" lon="5.83066">
        <ele>1607.4399414062</ele>
        <time>2017-12-17T09:46:43Z</time>
      </trkpt>
      <trkpt lat="45.31257" lon="5.8307">
        <ele>1607.4399414062</ele>
        <time>2017-12-17T09:46:49Z</time>
      </trkpt>
      <trkpt lat="45.3126" lon="5.83075">
        <ele>1608.4399414062</ele>
        <time>2017-12-17T09:46:55Z</time>
      </trkpt>
      <trkpt lat="45.31263" lon="5.83081">
        <ele>1610.4399414062</ele>
        <time>2017-12-17T09:47:01Z</time>
      </trkpt>
      <trkpt lat="45.31264" lon="5.83089">
        <ele>1611.4399414062</ele>
        <time>2017-12-17T09:47:06Z</time>
      </trkpt>
      <trkpt lat="45.31265" lon="5.83095">
        <ele>1611.4399414062</ele>
        <time>2017-12-17T09:47:13Z</time>
      </trkpt>
      <trkpt lat="45.31267" lon="5.83102">
        <ele>1612.4399414062</ele>
        <time>2017-12-17T09:47:19Z</time>
      </trkpt>
      <trkpt lat="45.31268" lon="5.83109">
        <ele>1613.4399414062</ele>
        <time>2017-12-17T09:47:24Z</time>
      </trkpt>
      <trkpt lat="45.3127" lon="5.83117">
        <ele>1614.4399414062</ele>
        <time>2017-12-17T09:47:29Z</time>
      </trkpt>
      <trkpt lat="45.3127" lon="5.83123">
        <ele>1615.4399414062</ele>
        <time>2017-12-17T09:47:34Z</time>
      </trkpt>
      <trkpt lat="45.3127" lon="5.8313">
        <ele>1617.4399414062</ele>
        <time>2017-12-17T09:47:39Z</time>
      </trkpt>
      <trkpt lat="45.3127" lon="5.83137">
        <ele>1618.4399414062</ele>
        <time>2017-12-17T09:47:45Z</time>
      </trkpt>
      <trkpt lat="45.31272" lon="5.83144">
        <ele>1620.4399414062</ele>
        <time>2017-12-17T09:47:51Z</time>
      </trkpt>
      <trkpt lat="45.31273" lon="5.83151">
        <ele>1621.4399414062</ele>
        <time>2017-12-17T09:47:56Z</time>
      </trkpt>
      <trkpt lat="45.31272" lon="5.83158">
        <ele>1623.4399414062</ele>
        <time>2017-12-17T09:48:00Z</time>
      </trkpt>
      <trkpt lat="45.31273" lon="5.83164">
        <ele>1622.4399414062</ele>
        <time>2017-12-17T09:48:06Z</time>
      </trkpt>
      <trkpt lat="45.31275" lon="5.8317">
        <ele>1624.4399414062</ele>
        <time>2017-12-17T09:48:12Z</time>
      </trkpt>
      <trkpt lat="45.31277" lon="5.83177">
        <ele>1625.4399414062</ele>
        <time>2017-12-17T09:48:17Z</time>
      </trkpt>
      <trkpt lat="45.31276" lon="5.83184">
        <ele>1629.4399414062</ele>
        <time>2017-12-17T09:48:23Z</time>
      </trkpt>
      <trkpt lat="45.31275" lon="5.8319">
        <ele>1628.4399414062</ele>
        <time>2017-12-17T09:48:27Z</time>
      </trkpt>
      <trkpt lat="45.31275" lon="5.83198">
        <ele>1628.4399414062</ele>
        <time>2017-12-17T09:48:37Z</time>
      </trkpt>
      <trkpt lat="45.31275" lon="5.83204">
        <ele>1627.4399414062</ele>
        <time>2017-12-17T09:48:42Z</time>
      </trkpt>
      <trkpt lat="45.31277" lon="5.83211">
        <ele>1626.4399414062</ele>
        <time>2017-12-17T09:48:47Z</time>
      </trkpt>
      <trkpt lat="45.31277" lon="5.83217">
        <ele>1626.4399414062</ele>
        <time>2017-12-17T09:48:51Z</time>
      </trkpt>
      <trkpt lat="45.31276" lon="5.83226">
        <ele>1630.4399414062</ele>
        <time>2017-12-17T09:48:55Z</time>
      </trkpt>
      <trkpt lat="45.31275" lon="5.83234">
        <ele>1632.4399414062</ele>
        <time>2017-12-17T09:48:59Z</time>
      </trkpt>
      <trkpt lat="45.31274" lon="5.8324">
        <ele>1634.4399414062</ele>
        <time>2017-12-17T09:49:03Z</time>
      </trkpt>
      <trkpt lat="45.31274" lon="5.83248">
        <ele>1636.4399414062</ele>
        <time>2017-12-17T09:49:08Z</time>
      </trkpt>
      <trkpt lat="45.31275" lon="5.83255">
        <ele>1638.4399414062</ele>
        <time>2017-12-17T09:49:13Z</time>
      </trkpt>
      <trkpt lat="45.31276" lon="5.83262">
        <ele>1640.4399414062</ele>
        <time>2017-12-17T09:49:17Z</time>
      </trkpt>
      <trkpt lat="45.31274" lon="5.83268">
        <ele>1640.4399414062</ele>
        <time>2017-12-17T09:49:21Z</time>
      </trkpt>
      <trkpt lat="45.31274" lon="5.83275">
        <ele>1641.4399414062</ele>
        <time>2017-12-17T09:49:26Z</time>
      </trkpt>
      <trkpt lat="45.31274" lon="5.83281">
        <ele>1641.4399414062</ele>
        <time>2017-12-17T09:49:30Z</time>
      </trkpt>
      <trkpt lat="45.31273" lon="5.83289">
        <ele>1643.4399414062</ele>
        <time>2017-12-17T09:49:35Z</time>
      </trkpt>
      <trkpt lat="45.31272" lon="5.83297">
        <ele>1645.4399414062</ele>
        <time>2017-12-17T09:49:39Z</time>
      </trkpt>
      <trkpt lat="45.31272" lon="5.83304">
        <ele>1646.4399414062</ele>
        <time>2017-12-17T09:49:43Z</time>
      </trkpt>
      <trkpt lat="45.31272" lon="5.83312">
        <ele>1646.4399414062</ele>
        <time>2017-12-17T09:49:48Z</time>
      </trkpt>
      <trkpt lat="45.31272" lon="5.8332">
        <ele>1646.4399414062</ele>
        <time>2017-12-17T09:49:52Z</time>
      </trkpt>
      <trkpt lat="45.31271" lon="5.83326">
        <ele>1648.4399414062</ele>
        <time>2017-12-17T09:49:56Z</time>
      </trkpt>
      <trkpt lat="45.3127" lon="5.83333">
        <ele>1648.4399414062</ele>
        <time>2017-12-17T09:50:00Z</time>
      </trkpt>
      <trkpt lat="45.3127" lon="5.83342">
        <ele>1648.4399414062</ele>
        <time>2017-12-17T09:50:04Z</time>
      </trkpt>
      <trkpt lat="45.31269" lon="5.8335">
        <ele>1648.4399414062</ele>
        <time>2017-12-17T09:50:09Z</time>
      </trkpt>
      <trkpt lat="45.31269" lon="5.83358">
        <ele>1647.4399414062</ele>
        <time>2017-12-17T09:50:16Z</time>
      </trkpt>
      <trkpt lat="45.31268" lon="5.83364">
        <ele>1644.4399414062</ele>
        <time>2017-12-17T09:50:29Z</time>
      </trkpt>
      <trkpt lat="45.31266" lon="5.83371">
        <ele>1646.4399414062</ele>
        <time>2017-12-17T09:50:43Z</time>
      </trkpt>
      <trkpt lat="45.31266" lon="5.83377">
        <ele>1648.4399414062</ele>
        <time>2017-12-17T09:51:00Z</time>
      </trkpt>
      <trkpt lat="45.31265" lon="5.83384">
        <ele>1651.4399414062</ele>
        <time>2017-12-17T09:51:58Z</time>
      </trkpt>
      <trkpt lat="45.31265" lon="5.83391">
        <ele>1653.4399414062</ele>
        <time>2017-12-17T09:52:02Z</time>
      </trkpt>
      <trkpt lat="45.31266" lon="5.83399">
        <ele>1654.4399414062</ele>
        <time>2017-12-17T09:52:07Z</time>
      </trkpt>
      <trkpt lat="45.31269" lon="5.83405">
        <ele>1657.4399414062</ele>
        <time>2017-12-17T09:52:13Z</time>
      </trkpt>
      <trkpt lat="45.31271" lon="5.83411">
        <ele>1656.4399414062</ele>
        <time>2017-12-17T09:52:17Z</time>
      </trkpt>
      <trkpt lat="45.31275" lon="5.83416">
        <ele>1658.4399414062</ele>
        <time>2017-12-17T09:52:21Z</time>
      </trkpt>
      <trkpt lat="45.31279" lon="5.83422">
        <ele>1657.4399414062</ele>
        <time>2017-12-17T09:52:25Z</time>
      </trkpt>
      <trkpt lat="45.3128" lon="5.83429">
        <ele>1660.4399414062</ele>
        <time>2017-12-17T09:52:29Z</time>
      </trkpt>
      <trkpt lat="45.31282" lon="5.83435">
        <ele>1660.4399414062</ele>
        <time>2017-12-17T09:52:32Z</time>
      </trkpt>
      <trkpt lat="45.31287" lon="5.83439">
        <ele>1662.4399414062</ele>
        <time>2017-12-17T09:52:37Z</time>
      </trkpt>
      <trkpt lat="45.31291" lon="5.83442">
        <ele>1663.4399414062</ele>
        <time>2017-12-17T09:52:41Z</time>
      </trkpt>
      <trkpt lat="45.31296" lon="5.83444">
        <ele>1668.4399414062</ele>
        <time>2017-12-17T09:52:46Z</time>
      </trkpt>
      <trkpt lat="45.31299" lon="5.83448">
        <ele>1670.4399414062</ele>
        <time>2017-12-17T09:52:51Z</time>
      </trkpt>
      <trkpt lat="45.31303" lon="5.83451">
        <ele>1674.4399414062</ele>
        <time>2017-12-17T09:52:56Z</time>
      </trkpt>
      <trkpt lat="45.31308" lon="5.83454">
        <ele>1674.4399414062</ele>
        <time>2017-12-17T09:53:07Z</time>
      </trkpt>
      <trkpt lat="45.31312" lon="5.83455">
        <ele>1671.4399414062</ele>
        <time>2017-12-17T09:53:11Z</time>
      </trkpt>
      <trkpt lat="45.31315" lon="5.8346">
        <ele>1665.4399414062</ele>
        <time>2017-12-17T09:53:15Z</time>
      </trkpt>
      <trkpt lat="45.3132" lon="5.83463">
        <ele>1671.4399414062</ele>
        <time>2017-12-17T09:53:21Z</time>
      </trkpt>
      <trkpt lat="45.31324" lon="5.83469">
        <ele>1676.4399414062</ele>
        <time>2017-12-17T09:53:28Z</time>
      </trkpt>
      <trkpt lat="45.31327" lon="5.83474">
        <ele>1677.4399414062</ele>
        <time>2017-12-17T09:53:34Z</time>
      </trkpt>
      <trkpt lat="45.31332" lon="5.83477">
        <ele>1678.4399414062</ele>
        <time>2017-12-17T09:53:40Z</time>
      </trkpt>
      <trkpt lat="45.31336" lon="5.83482">
        <ele>1677.4399414062</ele>
        <time>2017-12-17T09:53:46Z</time>
      </trkpt>
      <trkpt lat="45.31339" lon="5.83487">
        <ele>1670.4399414062</ele>
        <time>2017-12-17T09:53:52Z</time>
      </trkpt>
      <trkpt lat="45.31343" lon="5.8349">
        <ele>1680.4410400391</ele>
        <time>2017-12-17T09:53:57Z</time>
      </trkpt>
      <trkpt lat="45.31348" lon="5.83492">
        <ele>1680.4410400391</ele>
        <time>2017-12-17T09:54:02Z</time>
      </trkpt>
      <trkpt lat="45.31352" lon="5.83496">
        <ele>1684.4410400391</ele>
        <time>2017-12-17T09:54:07Z</time>
      </trkpt>
      <trkpt lat="45.31357" lon="5.83497">
        <ele>1685.4410400391</ele>
        <time>2017-12-17T09:54:12Z</time>
      </trkpt>
      <trkpt lat="45.31361" lon="5.83499">
        <ele>1685.4410400391</ele>
        <time>2017-12-17T09:54:15Z</time>
      </trkpt>
      <trkpt lat="45.31365" lon="5.83501">
        <ele>1685.4410400391</ele>
        <time>2017-12-17T09:54:20Z</time>
      </trkpt>
      <trkpt lat="45.3137" lon="5.83505">
        <ele>1685.4410400391</ele>
        <time>2017-12-17T09:54:25Z</time>
      </trkpt>
      <trkpt lat="45.31374" lon="5.83509">
        <ele>1687.4410400391</ele>
        <time>2017-12-17T09:54:30Z</time>
      </trkpt>
      <trkpt lat="45.31378" lon="5.83513">
        <ele>1688.4410400391</ele>
        <time>2017-12-17T09:54:35Z</time>
      </trkpt>
      <trkpt lat="45.31381" lon="5.83519">
        <ele>1689.4410400391</ele>
        <time>2017-12-17T09:54:41Z</time>
      </trkpt>
      <trkpt lat="45.31382" lon="5.83526">
        <ele>1691.4410400391</ele>
        <time>2017-12-17T09:54:48Z</time>
      </trkpt>
      <trkpt lat="45.31382" lon="5.83533">
        <ele>1693.4410400391</ele>
        <time>2017-12-17T09:54:52Z</time>
      </trkpt>
      <trkpt lat="45.3138" lon="5.83541">
        <ele>1693.4410400391</ele>
        <time>2017-12-17T09:54:58Z</time>
      </trkpt>
      <trkpt lat="45.31379" lon="5.83548">
        <ele>1695.4410400391</ele>
        <time>2017-12-17T09:55:02Z</time>
      </trkpt>
      <trkpt lat="45.3138" lon="5.83555">
        <ele>1697.4410400391</ele>
        <time>2017-12-17T09:55:09Z</time>
      </trkpt>
      <trkpt lat="45.3138" lon="5.83563">
        <ele>1697.4410400391</ele>
        <time>2017-12-17T09:55:14Z</time>
      </trkpt>
      <trkpt lat="45.31378" lon="5.83571">
        <ele>1698.4410400391</ele>
        <time>2017-12-17T09:55:19Z</time>
      </trkpt>
      <trkpt lat="45.31377" lon="5.83578">
        <ele>1700.4410400391</ele>
        <time>2017-12-17T09:55:23Z</time>
      </trkpt>
      <trkpt lat="45.31378" lon="5.83585">
        <ele>1702.4410400391</ele>
        <time>2017-12-17T09:55:28Z</time>
      </trkpt>
      <trkpt lat="45.31379" lon="5.83591">
        <ele>1703.4410400391</ele>
        <time>2017-12-17T09:55:33Z</time>
      </trkpt>
      <trkpt lat="45.31378" lon="5.83598">
        <ele>1705.4410400391</ele>
        <time>2017-12-17T09:55:38Z</time>
      </trkpt>
      <trkpt lat="45.31377" lon="5.83605">
        <ele>1707.4410400391</ele>
        <time>2017-12-17T09:55:42Z</time>
      </trkpt>
      <trkpt lat="45.31372" lon="5.83608">
        <ele>1711.4410400391</ele>
        <time>2017-12-17T09:55:48Z</time>
      </trkpt>
      <trkpt lat="45.31367" lon="5.83607">
        <ele>1710.4410400391</ele>
        <time>2017-12-17T09:55:58Z</time>
      </trkpt>
      <trkpt lat="45.31361" lon="5.83609">
        <ele>1712.4410400391</ele>
        <time>2017-12-17T09:56:04Z</time>
      </trkpt>
      <trkpt lat="45.31356" lon="5.8361">
        <ele>1714.4410400391</ele>
        <time>2017-12-17T09:56:13Z</time>
      </trkpt>
      <trkpt lat="45.31351" lon="5.83608">
        <ele>1718.4410400391</ele>
        <time>2017-12-17T09:56:18Z</time>
      </trkpt>
      <trkpt lat="45.31346" lon="5.83606">
        <ele>1720.4410400391</ele>
        <time>2017-12-17T09:56:24Z</time>
      </trkpt>
      <trkpt lat="45.31341" lon="5.83604">
        <ele>1722.4410400391</ele>
        <time>2017-12-17T09:56:30Z</time>
      </trkpt>
      <trkpt lat="45.31336" lon="5.83603">
        <ele>1722.4410400391</ele>
        <time>2017-12-17T09:56:38Z</time>
      </trkpt>
      <trkpt lat="45.31332" lon="5.836">
        <ele>1723.4410400391</ele>
        <time>2017-12-17T09:56:42Z</time>
      </trkpt>
      <trkpt lat="45.31327" lon="5.83598">
        <ele>1727.4410400391</ele>
        <time>2017-12-17T09:56:49Z</time>
      </trkpt>
      <trkpt lat="45.31322" lon="5.83595">
        <ele>1729.4410400391</ele>
        <time>2017-12-17T09:56:52Z</time>
      </trkpt>
      <trkpt lat="45.31317" lon="5.83594">
        <ele>1731.4410400391</ele>
        <time>2017-12-17T09:56:57Z</time>
      </trkpt>
      <trkpt lat="45.31311" lon="5.83591">
        <ele>1731.4410400391</ele>
        <time>2017-12-17T09:57:00Z</time>
      </trkpt>
      <trkpt lat="45.31307" lon="5.8359">
        <ele>1731.4410400391</ele>
        <time>2017-12-17T09:57:05Z</time>
      </trkpt>
      <trkpt lat="45.31302" lon="5.83591">
        <ele>1729.4410400391</ele>
        <time>2017-12-17T09:57:10Z</time>
      </trkpt>
      <trkpt lat="45.31298" lon="5.8359">
        <ele>1731.4410400391</ele>
        <time>2017-12-17T09:57:14Z</time>
      </trkpt>
      <trkpt lat="45.31291" lon="5.83588">
        <ele>1731.4410400391</ele>
        <time>2017-12-17T09:57:21Z</time>
      </trkpt>
      <trkpt lat="45.31285" lon="5.83586">
        <ele>1729.4410400391</ele>
        <time>2017-12-17T09:57:26Z</time>
      </trkpt>
      <trkpt lat="45.3128" lon="5.83583">
        <ele>1728.4410400391</ele>
        <time>2017-12-17T09:57:30Z</time>
      </trkpt>
      <trkpt lat="45.31275" lon="5.8358">
        <ele>1730.4399414062</ele>
        <time>2017-12-17T09:57:35Z</time>
      </trkpt>
      <trkpt lat="45.3127" lon="5.83579">
        <ele>1731.4399414062</ele>
        <time>2017-12-17T09:57:39Z</time>
      </trkpt>
      <trkpt lat="45.31265" lon="5.83578">
        <ele>1732.4399414062</ele>
        <time>2017-12-17T09:57:44Z</time>
      </trkpt>
      <trkpt lat="45.31259" lon="5.83578">
        <ele>1734.4399414062</ele>
        <time>2017-12-17T09:57:49Z</time>
      </trkpt>
      <trkpt lat="45.31254" lon="5.83577">
        <ele>1737.4399414062</ele>
        <time>2017-12-17T09:57:53Z</time>
      </trkpt>
      <trkpt lat="45.31249" lon="5.83575">
        <ele>1738.4399414062</ele>
        <time>2017-12-17T09:58:03Z</time>
      </trkpt>
      <trkpt lat="45.31244" lon="5.83573">
        <ele>1740.4399414062</ele>
        <time>2017-12-17T09:58:07Z</time>
      </trkpt>
      <trkpt lat="45.31239" lon="5.83572">
        <ele>1741.4399414062</ele>
        <time>2017-12-17T09:58:11Z</time>
      </trkpt>
      <trkpt lat="45.31234" lon="5.83571">
        <ele>1741.4399414062</ele>
        <time>2017-12-17T09:58:18Z</time>
      </trkpt>
      <trkpt lat="45.3123" lon="5.83568">
        <ele>1741.4399414062</ele>
        <time>2017-12-17T09:58:21Z</time>
      </trkpt>
      <trkpt lat="45.31225" lon="5.83565">
        <ele>1744.4399414062</ele>
        <time>2017-12-17T09:58:25Z</time>
      </trkpt>
      <trkpt lat="45.31221" lon="5.83563">
        <ele>1747.4399414062</ele>
        <time>2017-12-17T09:58:29Z</time>
      </trkpt>
      <trkpt lat="45.31216" lon="5.83561">
        <ele>1750.4399414062</ele>
        <time>2017-12-17T09:58:33Z</time>
      </trkpt>
      <trkpt lat="45.31211" lon="5.8356">
        <ele>1751.4399414062</ele>
        <time>2017-12-17T09:58:38Z</time>
      </trkpt>
      <trkpt lat="45.31207" lon="5.83557">
        <ele>1751.4399414062</ele>
        <time>2017-12-17T09:58:42Z</time>
      </trkpt>
      <trkpt lat="45.31201" lon="5.83556">
        <ele>1752.4399414062</ele>
        <time>2017-12-17T09:58:48Z</time>
      </trkpt>
      <trkpt lat="45.31197" lon="5.83556">
        <ele>1750.4399414062</ele>
        <time>2017-12-17T09:58:53Z</time>
      </trkpt>
      <trkpt lat="45.31192" lon="5.83555">
        <ele>1752.4399414062</ele>
        <time>2017-12-17T09:58:57Z</time>
      </trkpt>
      <trkpt lat="45.31188" lon="5.83551">
        <ele>1752.4399414062</ele>
        <time>2017-12-17T09:59:00Z</time>
      </trkpt>
      <trkpt lat="45.31183" lon="5.8355">
        <ele>1755.4399414062</ele>
        <time>2017-12-17T09:59:06Z</time>
      </trkpt>
      <trkpt lat="45.31177" lon="5.83547">
        <ele>1758.4399414062</ele>
        <time>2017-12-17T09:59:12Z</time>
      </trkpt>
      <trkpt lat="45.31172" lon="5.83545">
        <ele>1758.4399414062</ele>
        <time>2017-12-17T09:59:17Z</time>
      </trkpt>
      <trkpt lat="45.31167" lon="5.83546">
        <ele>1761.4399414062</ele>
        <time>2017-12-17T09:59:22Z</time>
      </trkpt>
      <trkpt lat="45.31161" lon="5.83544">
        <ele>1764.4399414062</ele>
        <time>2017-12-17T09:59:27Z</time>
      </trkpt>
      <trkpt lat="45.31157" lon="5.83543">
        <ele>1764.4399414062</ele>
        <time>2017-12-17T09:59:31Z</time>
      </trkpt>
      <trkpt lat="45.31152" lon="5.83544">
        <ele>1764.4399414062</ele>
        <time>2017-12-17T09:59:36Z</time>
      </trkpt>
      <trkpt lat="45.31147" lon="5.83543">
        <ele>1764.4399414062</ele>
        <time>2017-12-17T09:59:40Z</time>
      </trkpt>
      <trkpt lat="45.31142" lon="5.83543">
        <ele>1763.4399414062</ele>
        <time>2017-12-17T09:59:45Z</time>
      </trkpt>
      <trkpt lat="45.31137" lon="5.83543">
        <ele>1763.4399414062</ele>
        <time>2017-12-17T09:59:57Z</time>
      </trkpt>
      <trkpt lat="45.31132" lon="5.83545">
        <ele>1763.4399414062</ele>
        <time>2017-12-17T10:05:31Z</time>
      </trkpt>
      <trkpt lat="45.31126" lon="5.83547">
        <ele>1763.4399414062</ele>
        <time>2017-12-17T10:05:37Z</time>
      </trkpt>
      <trkpt lat="45.3112" lon="5.83549">
        <ele>1763.4399414062</ele>
        <time>2017-12-17T10:05:55Z</time>
      </trkpt>
      <trkpt lat="45.31113" lon="5.83553">
        <ele>1761.4399414062</ele>
        <time>2017-12-17T10:05:57Z</time>
      </trkpt>
      <trkpt lat="45.31103" lon="5.83561">
        <ele>1757.4399414062</ele>
        <time>2017-12-17T10:05:59Z</time>
      </trkpt>
      <trkpt lat="45.31089" lon="5.83565">
        <ele>1755.4399414062</ele>
        <time>2017-12-17T10:06:01Z</time>
      </trkpt>
      <trkpt lat="45.31073" lon="5.83567">
        <ele>1754.4399414062</ele>
        <time>2017-12-17T10:06:03Z</time>
      </trkpt>
      <trkpt lat="45.31059" lon="5.83568">
        <ele>1755.4399414062</ele>
        <time>2017-12-17T10:06:05Z</time>
      </trkpt>
      <trkpt lat="45.3105" lon="5.83568">
        <ele>1757.4399414062</ele>
        <time>2017-12-17T10:06:07Z</time>
      </trkpt>
      <trkpt lat="45.31039" lon="5.83565">
        <ele>1756.4399414062</ele>
        <time>2017-12-17T10:06:09Z</time>
      </trkpt>
      <trkpt lat="45.31032" lon="5.83565">
        <ele>1757.4399414062</ele>
        <time>2017-12-17T10:06:11Z</time>
      </trkpt>
      <trkpt lat="45.31035" lon="5.8357">
        <ele>1752.4399414062</ele>
        <time>2017-12-17T10:06:12Z</time>
      </trkpt>
      <trkpt lat="45.31027" lon="5.83577">
        <ele>1748.4399414062</ele>
        <time>2017-12-17T10:06:14Z</time>
      </trkpt>
      <trkpt lat="45.31015" lon="5.83576">
        <ele>1748.4399414062</ele>
        <time>2017-12-17T10:06:17Z</time>
      </trkpt>
      <trkpt lat="45.31009" lon="5.83576">
        <ele>1747.4399414062</ele>
        <time>2017-12-17T10:06:19Z</time>
      </trkpt>
      <trkpt lat="45.30997" lon="5.83589">
        <ele>1735.4399414062</ele>
        <time>2017-12-17T10:06:22Z</time>
      </trkpt>
      <trkpt lat="45.3099" lon="5.83603">
        <ele>1722.4399414062</ele>
        <time>2017-12-17T10:06:24Z</time>
      </trkpt>
      <trkpt lat="45.30984" lon="5.83621">
        <ele>1707.4399414062</ele>
        <time>2017-12-17T10:06:26Z</time>
      </trkpt>
      <trkpt lat="45.30971" lon="5.8363">
        <ele>1701.4399414062</ele>
        <time>2017-12-17T10:06:28Z</time>
      </trkpt>
      <trkpt lat="45.30958" lon="5.8364">
        <ele>1694.4399414062</ele>
        <time>2017-12-17T10:06:30Z</time>
      </trkpt>
      <trkpt lat="45.30956" lon="5.83655">
        <ele>1682.4399414062</ele>
        <time>2017-12-17T10:06:32Z</time>
      </trkpt>
      <trkpt lat="45.30949" lon="5.83665">
        <ele>1677.4399414062</ele>
        <time>2017-12-17T10:06:34Z</time>
      </trkpt>
      <trkpt lat="45.30945" lon="5.83673">
        <ele>1671.4399414062</ele>
        <time>2017-12-17T10:06:36Z</time>
      </trkpt>
      <trkpt lat="45.30942" lon="5.83692">
        <ele>1668.4399414062</ele>
        <time>2017-12-17T10:06:38Z</time>
      </trkpt>
      <trkpt lat="45.3094" lon="5.83708">
        <ele>1661.4399414062</ele>
        <time>2017-12-17T10:06:40Z</time>
      </trkpt>
      <trkpt lat="45.30934" lon="5.83725">
        <ele>1654.4399414062</ele>
        <time>2017-12-17T10:06:42Z</time>
      </trkpt>
      <trkpt lat="45.30925" lon="5.83744">
        <ele>1648.4399414062</ele>
        <time>2017-12-17T10:06:45Z</time>
      </trkpt>
      <trkpt lat="45.3092" lon="5.83759">
        <ele>1641.4399414062</ele>
        <time>2017-12-17T10:06:47Z</time>
      </trkpt>
      <trkpt lat="45.30912" lon="5.83772">
        <ele>1630.4399414062</ele>
        <time>2017-12-17T10:06:49Z</time>
      </trkpt>
      <trkpt lat="45.30913" lon="5.83788">
        <ele>1620.4399414062</ele>
        <time>2017-12-17T10:06:51Z</time>
      </trkpt>
      <trkpt lat="45.30916" lon="5.83795">
        <ele>1615.4399414062</ele>
        <time>2017-12-17T10:06:52Z</time>
      </trkpt>
      <trkpt lat="45.30922" lon="5.83806">
        <ele>1612.4399414062</ele>
        <time>2017-12-17T10:06:54Z</time>
      </trkpt>
      <trkpt lat="45.30922" lon="5.83821">
        <ele>1609.4399414062</ele>
        <time>2017-12-17T10:06:56Z</time>
      </trkpt>
      <trkpt lat="45.30915" lon="5.83834">
        <ele>1602.4399414062</ele>
        <time>2017-12-17T10:06:58Z</time>
      </trkpt>
      <trkpt lat="45.30908" lon="5.83848">
        <ele>1596.4399414062</ele>
        <time>2017-12-17T10:07:00Z</time>
      </trkpt>
      <trkpt lat="45.30902" lon="5.83862">
        <ele>1590.4399414062</ele>
        <time>2017-12-17T10:07:02Z</time>
      </trkpt>
      <trkpt lat="45.30897" lon="5.83877">
        <ele>1588.4399414062</ele>
        <time>2017-12-17T10:07:04Z</time>
      </trkpt>
      <trkpt lat="45.30902" lon="5.83888">
        <ele>1586.4399414062</ele>
        <time>2017-12-17T10:07:05Z</time>
      </trkpt>
      <trkpt lat="45.309" lon="5.83904">
        <ele>1584.4399414062</ele>
        <time>2017-12-17T10:07:07Z</time>
      </trkpt>
      <trkpt lat="45.309" lon="5.83914">
        <ele>1577.4399414062</ele>
        <time>2017-12-17T10:07:08Z</time>
      </trkpt>
      <trkpt lat="45.30896" lon="5.83935">
        <ele>1571.4399414062</ele>
        <time>2017-12-17T10:07:10Z</time>
      </trkpt>
      <trkpt lat="45.30893" lon="5.83963">
        <ele>1560.4399414062</ele>
        <time>2017-12-17T10:07:13Z</time>
      </trkpt>
      <trkpt lat="45.3089" lon="5.83973">
        <ele>1555.4399414062</ele>
        <time>2017-12-17T10:07:14Z</time>
      </trkpt>
      <trkpt lat="45.3088" lon="5.83989">
        <ele>1553.4399414062</ele>
        <time>2017-12-17T10:07:16Z</time>
      </trkpt>
      <trkpt lat="45.30868" lon="5.84001">
        <ele>1544.4399414062</ele>
        <time>2017-12-17T10:07:18Z</time>
      </trkpt>
      <trkpt lat="45.30861" lon="5.84009">
        <ele>1542.4399414062</ele>
        <time>2017-12-17T10:07:19Z</time>
      </trkpt>
      <trkpt lat="45.30848" lon="5.84021">
        <ele>1534.4399414062</ele>
        <time>2017-12-17T10:07:21Z</time>
      </trkpt>
      <trkpt lat="45.30834" lon="5.8403">
        <ele>1531.4399414062</ele>
        <time>2017-12-17T10:07:23Z</time>
      </trkpt>
      <trkpt lat="45.30829" lon="5.8403">
        <ele>1528.4399414062</ele>
        <time>2017-12-17T10:07:24Z</time>
      </trkpt>
      <trkpt lat="45.30822" lon="5.84019">
        <ele>1525.4399414062</ele>
        <time>2017-12-17T10:07:27Z</time>
      </trkpt>
      <trkpt lat="45.30818" lon="5.84026">
        <ele>1513.4399414062</ele>
        <time>2017-12-17T10:08:07Z</time>
      </trkpt>
      <trkpt lat="45.30817" lon="5.84033">
        <ele>1511.4399414062</ele>
        <time>2017-12-17T10:08:08Z</time>
      </trkpt>
      <trkpt lat="45.30816" lon="5.84051">
        <ele>1509.4399414062</ele>
        <time>2017-12-17T10:08:10Z</time>
      </trkpt>
      <trkpt lat="45.30816" lon="5.8407">
        <ele>1504.4399414062</ele>
        <time>2017-12-17T10:08:12Z</time>
      </trkpt>
      <trkpt lat="45.30816" lon="5.84088">
        <ele>1501.4399414062</ele>
        <time>2017-12-17T10:08:14Z</time>
      </trkpt>
      <trkpt lat="45.30816" lon="5.84096">
        <ele>1500.4399414062</ele>
        <time>2017-12-17T10:08:15Z</time>
      </trkpt>
      <trkpt lat="45.30816" lon="5.84113">
        <ele>1495.4399414062</ele>
        <time>2017-12-17T10:08:17Z</time>
      </trkpt>
      <trkpt lat="45.30814" lon="5.84128">
        <ele>1493.4399414062</ele>
        <time>2017-12-17T10:08:20Z</time>
      </trkpt>
      <trkpt lat="45.30818" lon="5.84131">
        <ele>1486.4399414062</ele>
        <time>2017-12-17T10:10:01Z</time>
      </trkpt>
      <trkpt lat="45.3082" lon="5.84138">
        <ele>1483.4399414062</ele>
        <time>2017-12-17T10:10:05Z</time>
      </trkpt>
      <trkpt lat="45.3082" lon="5.84146">
        <ele>1486.4399414062</ele>
        <time>2017-12-17T10:10:52Z</time>
      </trkpt>
      <trkpt lat="45.30822" lon="5.84153">
        <ele>1486.4399414062</ele>
        <time>2017-12-17T10:10:56Z</time>
      </trkpt>
      <trkpt lat="45.30824" lon="5.84159">
        <ele>1487.4399414062</ele>
        <time>2017-12-17T10:11:01Z</time>
      </trkpt>
      <trkpt lat="45.30826" lon="5.84165">
        <ele>1487.4399414062</ele>
        <time>2017-12-17T10:11:05Z</time>
      </trkpt>
      <trkpt lat="45.30829" lon="5.84174">
        <ele>1486.4399414062</ele>
        <time>2017-12-17T10:11:11Z</time>
      </trkpt>
      <trkpt lat="45.30832" lon="5.84179">
        <ele>1486.4399414062</ele>
        <time>2017-12-17T10:11:15Z</time>
      </trkpt>
      <trkpt lat="45.30834" lon="5.84185">
        <ele>1488.4399414062</ele>
        <time>2017-12-17T10:11:19Z</time>
      </trkpt>
      <trkpt lat="45.30838" lon="5.84189">
        <ele>1494.4399414062</ele>
        <time>2017-12-17T10:11:29Z</time>
      </trkpt>
      <trkpt lat="45.30841" lon="5.84196">
        <ele>1495.4399414062</ele>
        <time>2017-12-17T10:11:35Z</time>
      </trkpt>
      <trkpt lat="45.30843" lon="5.84201">
        <ele>1496.4399414062</ele>
        <time>2017-12-17T10:11:39Z</time>
      </trkpt>
      <trkpt lat="45.30843" lon="5.84209">
        <ele>1495.4399414062</ele>
        <time>2017-12-17T10:11:44Z</time>
      </trkpt>
      <trkpt lat="45.30842" lon="5.84216">
        <ele>1496.4399414062</ele>
        <time>2017-12-17T10:11:48Z</time>
      </trkpt>
      <trkpt lat="45.30843" lon="5.84226">
        <ele>1498.4399414062</ele>
        <time>2017-12-17T10:11:57Z</time>
      </trkpt>
      <trkpt lat="45.30845" lon="5.84232">
        <ele>1499.4399414062</ele>
        <time>2017-12-17T10:12:02Z</time>
      </trkpt>
      <trkpt lat="45.30845" lon="5.8424">
        <ele>1500.4399414062</ele>
        <time>2017-12-17T10:12:11Z</time>
      </trkpt>
      <trkpt lat="45.30845" lon="5.84247">
        <ele>1499.4399414062</ele>
        <time>2017-12-17T10:12:15Z</time>
      </trkpt>
      <trkpt lat="45.30845" lon="5.84253">
        <ele>1502.4410400391</ele>
        <time>2017-12-17T10:12:23Z</time>
      </trkpt>
      <trkpt lat="45.30845" lon="5.84259">
        <ele>1502.4410400391</ele>
        <time>2017-12-17T10:12:28Z</time>
      </trkpt>
      <trkpt lat="45.30843" lon="5.84265">
        <ele>1503.4410400391</ele>
        <time>2017-12-17T10:12:33Z</time>
      </trkpt>
      <trkpt lat="45.30841" lon="5.84273">
        <ele>1507.4410400391</ele>
        <time>2017-12-17T10:12:38Z</time>
      </trkpt>
      <trkpt lat="45.3084" lon="5.84279">
        <ele>1508.4410400391</ele>
        <time>2017-12-17T10:12:44Z</time>
      </trkpt>
      <trkpt lat="45.30839" lon="5.84287">
        <ele>1507.4410400391</ele>
        <time>2017-12-17T10:12:49Z</time>
      </trkpt>
      <trkpt lat="45.30845" lon="5.84288">
        <ele>1516.4410400391</ele>
        <time>2017-12-17T10:13:03Z</time>
      </trkpt>
      <trkpt lat="45.3085" lon="5.84286">
        <ele>1516.4410400391</ele>
        <time>2017-12-17T10:13:10Z</time>
      </trkpt>
      <trkpt lat="45.30855" lon="5.84283">
        <ele>1515.4410400391</ele>
        <time>2017-12-17T10:13:15Z</time>
      </trkpt>
      <trkpt lat="45.30859" lon="5.84282">
        <ele>1513.4410400391</ele>
        <time>2017-12-17T10:13:19Z</time>
      </trkpt>
      <trkpt lat="45.30864" lon="5.8428">
        <ele>1515.4410400391</ele>
        <time>2017-12-17T10:13:23Z</time>
      </trkpt>
      <trkpt lat="45.30869" lon="5.84282">
        <ele>1518.4410400391</ele>
        <time>2017-12-17T10:13:30Z</time>
      </trkpt>
      <trkpt lat="45.30875" lon="5.84283">
        <ele>1522.4410400391</ele>
        <time>2017-12-17T10:13:35Z</time>
      </trkpt>
      <trkpt lat="45.30879" lon="5.84288">
        <ele>1523.4410400391</ele>
        <time>2017-12-17T10:13:41Z</time>
      </trkpt>
      <trkpt lat="45.3088" lon="5.84294">
        <ele>1526.4410400391</ele>
        <time>2017-12-17T10:13:48Z</time>
      </trkpt>
      <trkpt lat="45.30883" lon="5.84301">
        <ele>1527.4410400391</ele>
        <time>2017-12-17T10:13:55Z</time>
      </trkpt>
      <trkpt lat="45.30886" lon="5.84307">
        <ele>1526.4410400391</ele>
        <time>2017-12-17T10:14:04Z</time>
      </trkpt>
      <trkpt lat="45.30885" lon="5.84314">
        <ele>1529.4410400391</ele>
        <time>2017-12-17T10:14:16Z</time>
      </trkpt>
      <trkpt lat="45.30882" lon="5.8432">
        <ele>1531.4410400391</ele>
        <time>2017-12-17T10:14:22Z</time>
      </trkpt>
      <trkpt lat="45.30881" lon="5.84327">
        <ele>1534.4410400391</ele>
        <time>2017-12-17T10:14:32Z</time>
      </trkpt>
      <trkpt lat="45.30877" lon="5.84331">
        <ele>1536.4410400391</ele>
        <time>2017-12-17T10:14:37Z</time>
      </trkpt>
      <trkpt lat="45.3088" lon="5.84336">
        <ele>1534.4410400391</ele>
        <time>2017-12-17T10:14:43Z</time>
      </trkpt>
      <trkpt lat="45.30878" lon="5.84343">
        <ele>1538.4410400391</ele>
        <time>2017-12-17T10:14:48Z</time>
      </trkpt>
      <trkpt lat="45.30876" lon="5.84349">
        <ele>1540.4410400391</ele>
        <time>2017-12-17T10:14:55Z</time>
      </trkpt>
      <trkpt lat="45.30874" lon="5.84356">
        <ele>1539.4410400391</ele>
        <time>2017-12-17T10:15:00Z</time>
      </trkpt>
      <trkpt lat="45.30873" lon="5.84363">
        <ele>1540.4410400391</ele>
        <time>2017-12-17T10:15:07Z</time>
      </trkpt>
      <trkpt lat="45.30872" lon="5.8437">
        <ele>1539.4410400391</ele>
        <time>2017-12-17T10:15:16Z</time>
      </trkpt>
      <trkpt lat="45.30872" lon="5.84377">
        <ele>1538.4410400391</ele>
        <time>2017-12-17T10:15:23Z</time>
      </trkpt>
      <trkpt lat="45.3087" lon="5.84383">
        <ele>1540.4410400391</ele>
        <time>2017-12-17T10:15:28Z</time>
      </trkpt>
      <trkpt lat="45.30867" lon="5.8439">
        <ele>1545.4410400391</ele>
        <time>2017-12-17T10:15:34Z</time>
      </trkpt>
      <trkpt lat="45.30864" lon="5.84395">
        <ele>1531.4410400391</ele>
        <time>2017-12-17T10:15:42Z</time>
      </trkpt>
      <trkpt lat="45.3086" lon="5.84398">
        <ele>1540.4410400391</ele>
        <time>2017-12-17T10:15:45Z</time>
      </trkpt>
      <trkpt lat="45.30857" lon="5.84403">
        <ele>1546.4410400391</ele>
        <time>2017-12-17T10:15:51Z</time>
      </trkpt>
      <trkpt lat="45.30853" lon="5.84408">
        <ele>1548.4410400391</ele>
        <time>2017-12-17T10:15:56Z</time>
      </trkpt>
      <trkpt lat="45.30852" lon="5.84415">
        <ele>1551.4410400391</ele>
        <time>2017-12-17T10:16:01Z</time>
      </trkpt>
      <trkpt lat="45.30849" lon="5.8442">
        <ele>1550.4410400391</ele>
        <time>2017-12-17T10:16:08Z</time>
      </trkpt>
      <trkpt lat="45.30846" lon="5.84426">
        <ele>1549.4410400391</ele>
        <time>2017-12-17T10:16:18Z</time>
      </trkpt>
      <trkpt lat="45.30842" lon="5.84431">
        <ele>1552.4410400391</ele>
        <time>2017-12-17T10:16:23Z</time>
      </trkpt>
      <trkpt lat="45.30841" lon="5.84438">
        <ele>1553.4410400391</ele>
        <time>2017-12-17T10:16:27Z</time>
      </trkpt>
      <trkpt lat="45.30838" lon="5.84444">
        <ele>1555.4410400391</ele>
        <time>2017-12-17T10:16:34Z</time>
      </trkpt>
      <trkpt lat="45.30835" lon="5.84451">
        <ele>1555.4410400391</ele>
        <time>2017-12-17T10:16:41Z</time>
      </trkpt>
      <trkpt lat="45.30831" lon="5.84455">
        <ele>1559.4410400391</ele>
        <time>2017-12-17T10:16:50Z</time>
      </trkpt>
      <trkpt lat="45.30836" lon="5.84454">
        <ele>1566.4410400391</ele>
        <time>2017-12-17T10:16:56Z</time>
      </trkpt>
      <trkpt lat="45.3084" lon="5.84458">
        <ele>1566.4410400391</ele>
        <time>2017-12-17T10:17:01Z</time>
      </trkpt>
      <trkpt lat="45.30845" lon="5.84462">
        <ele>1574.4410400391</ele>
        <time>2017-12-17T10:17:12Z</time>
      </trkpt>
      <trkpt lat="45.3085" lon="5.84461">
        <ele>1574.4410400391</ele>
        <time>2017-12-17T10:17:17Z</time>
      </trkpt>
      <trkpt lat="45.30855" lon="5.84462">
        <ele>1575.4410400391</ele>
        <time>2017-12-17T10:17:22Z</time>
      </trkpt>
      <trkpt lat="45.3086" lon="5.84463">
        <ele>1574.4410400391</ele>
        <time>2017-12-17T10:17:27Z</time>
      </trkpt>
      <trkpt lat="45.30865" lon="5.84462">
        <ele>1580.4410400391</ele>
        <time>2017-12-17T10:17:36Z</time>
      </trkpt>
      <trkpt lat="45.3087" lon="5.84462">
        <ele>1585.4410400391</ele>
        <time>2017-12-17T10:17:43Z</time>
      </trkpt>
      <trkpt lat="45.30875" lon="5.84465">
        <ele>1587.4410400391</ele>
        <time>2017-12-17T10:17:49Z</time>
      </trkpt>
      <trkpt lat="45.3088" lon="5.84468">
        <ele>1587.4410400391</ele>
        <time>2017-12-17T10:17:56Z</time>
      </trkpt>
      <trkpt lat="45.30885" lon="5.84468">
        <ele>1589.4410400391</ele>
        <time>2017-12-17T10:18:03Z</time>
      </trkpt>
      <trkpt lat="45.30889" lon="5.84471">
        <ele>1589.4410400391</ele>
        <time>2017-12-17T10:18:11Z</time>
      </trkpt>
      <trkpt lat="45.30887" lon="5.84477">
        <ele>1585.4410400391</ele>
        <time>2017-12-17T10:18:18Z</time>
      </trkpt>
      <trkpt lat="45.30884" lon="5.84481">
        <ele>1587.4410400391</ele>
        <time>2017-12-17T10:18:23Z</time>
      </trkpt>
      <trkpt lat="45.3088" lon="5.84487">
        <ele>1589.4410400391</ele>
        <time>2017-12-17T10:18:29Z</time>
      </trkpt>
      <trkpt lat="45.30877" lon="5.84494">
        <ele>1591.4410400391</ele>
        <time>2017-12-17T10:18:34Z</time>
      </trkpt>
      <trkpt lat="45.30876" lon="5.845">
        <ele>1591.4410400391</ele>
        <time>2017-12-17T10:18:43Z</time>
      </trkpt>
      <trkpt lat="45.30872" lon="5.84505">
        <ele>1594.4410400391</ele>
        <time>2017-12-17T10:18:47Z</time>
      </trkpt>
      <trkpt lat="45.30869" lon="5.84512">
        <ele>1593.4410400391</ele>
        <time>2017-12-17T10:18:54Z</time>
      </trkpt>
      <trkpt lat="45.30865" lon="5.84517">
        <ele>1596.4410400391</ele>
        <time>2017-12-17T10:19:01Z</time>
      </trkpt>
      <trkpt lat="45.30861" lon="5.84523">
        <ele>1595.4410400391</ele>
        <time>2017-12-17T10:19:08Z</time>
      </trkpt>
      <trkpt lat="45.30856" lon="5.84527">
        <ele>1598.4410400391</ele>
        <time>2017-12-17T10:19:15Z</time>
      </trkpt>
      <trkpt lat="45.30854" lon="5.84532">
        <ele>1599.4410400391</ele>
        <time>2017-12-17T10:19:22Z</time>
      </trkpt>
      <trkpt lat="45.3085" lon="5.84538">
        <ele>1600.4410400391</ele>
        <time>2017-12-17T10:19:28Z</time>
      </trkpt>
      <trkpt lat="45.30847" lon="5.84543">
        <ele>1600.4410400391</ele>
        <time>2017-12-17T10:19:33Z</time>
      </trkpt>
      <trkpt lat="45.30844" lon="5.84548">
        <ele>1600.4410400391</ele>
        <time>2017-12-17T10:19:39Z</time>
      </trkpt>
      <trkpt lat="45.3084" lon="5.84552">
        <ele>1602.4410400391</ele>
        <time>2017-12-17T10:19:43Z</time>
      </trkpt>
      <trkpt lat="45.30837" lon="5.84558">
        <ele>1601.4410400391</ele>
        <time>2017-12-17T10:19:47Z</time>
      </trkpt>
      <trkpt lat="45.30833" lon="5.84562">
        <ele>1603.4410400391</ele>
        <time>2017-12-17T10:19:54Z</time>
      </trkpt>
      <trkpt lat="45.30828" lon="5.84566">
        <ele>1604.4410400391</ele>
        <time>2017-12-17T10:20:00Z</time>
      </trkpt>
      <trkpt lat="45.30825" lon="5.84572">
        <ele>1607.4410400391</ele>
        <time>2017-12-17T10:20:05Z</time>
      </trkpt>
      <trkpt lat="45.30823" lon="5.84578">
        <ele>1606.4410400391</ele>
        <time>2017-12-17T10:20:13Z</time>
      </trkpt>
      <trkpt lat="45.30819" lon="5.84583">
        <ele>1613.4410400391</ele>
        <time>2017-12-17T10:20:18Z</time>
      </trkpt>
      <trkpt lat="45.30816" lon="5.84589">
        <ele>1616.4410400391</ele>
        <time>2017-12-17T10:20:22Z</time>
      </trkpt>
      <trkpt lat="45.30813" lon="5.84595">
        <ele>1619.4410400391</ele>
        <time>2017-12-17T10:20:26Z</time>
      </trkpt>
      <trkpt lat="45.30811" lon="5.84601">
        <ele>1621.4410400391</ele>
        <time>2017-12-17T10:20:30Z</time>
      </trkpt>
      <trkpt lat="45.30808" lon="5.84607">
        <ele>1623.4410400391</ele>
        <time>2017-12-17T10:20:37Z</time>
      </trkpt>
      <trkpt lat="45.30806" lon="5.84614">
        <ele>1623.4410400391</ele>
        <time>2017-12-17T10:20:43Z</time>
      </trkpt>
      <trkpt lat="45.30804" lon="5.84622">
        <ele>1626.4410400391</ele>
        <time>2017-12-17T10:20:49Z</time>
      </trkpt>
      <trkpt lat="45.30803" lon="5.84628">
        <ele>1626.4410400391</ele>
        <time>2017-12-17T10:20:54Z</time>
      </trkpt>
      <trkpt lat="45.30801" lon="5.84634">
        <ele>1627.4410400391</ele>
        <time>2017-12-17T10:21:00Z</time>
      </trkpt>
      <trkpt lat="45.30801" lon="5.8464">
        <ele>1629.4410400391</ele>
        <time>2017-12-17T10:21:06Z</time>
      </trkpt>
      <trkpt lat="45.30798" lon="5.84646">
        <ele>1629.4410400391</ele>
        <time>2017-12-17T10:21:12Z</time>
      </trkpt>
      <trkpt lat="45.30796" lon="5.84653">
        <ele>1632.4410400391</ele>
        <time>2017-12-17T10:21:17Z</time>
      </trkpt>
      <trkpt lat="45.30794" lon="5.84658">
        <ele>1633.4410400391</ele>
        <time>2017-12-17T10:21:21Z</time>
      </trkpt>
      <trkpt lat="45.3079" lon="5.84665">
        <ele>1631.4410400391</ele>
        <time>2017-12-17T10:21:28Z</time>
      </trkpt>
      <trkpt lat="45.30787" lon="5.84672">
        <ele>1632.4410400391</ele>
        <time>2017-12-17T10:21:44Z</time>
      </trkpt>
      <trkpt lat="45.30784" lon="5.84678">
        <ele>1635.4410400391</ele>
        <time>2017-12-17T10:21:49Z</time>
      </trkpt>
      <trkpt lat="45.30789" lon="5.84681">
        <ele>1636.4410400391</ele>
        <time>2017-12-17T10:22:00Z</time>
      </trkpt>
      <trkpt lat="45.30794" lon="5.84682">
        <ele>1637.4410400391</ele>
        <time>2017-12-17T10:22:05Z</time>
      </trkpt>
      <trkpt lat="45.30798" lon="5.84681">
        <ele>1636.4410400391</ele>
        <time>2017-12-17T10:22:10Z</time>
      </trkpt>
      <trkpt lat="45.30803" lon="5.84679">
        <ele>1634.4410400391</ele>
        <time>2017-12-17T10:22:14Z</time>
      </trkpt>
      <trkpt lat="45.30808" lon="5.84678">
        <ele>1639.4410400391</ele>
        <time>2017-12-17T10:22:22Z</time>
      </trkpt>
      <trkpt lat="45.30813" lon="5.84679">
        <ele>1643.4410400391</ele>
        <time>2017-12-17T10:22:28Z</time>
      </trkpt>
      <trkpt lat="45.30818" lon="5.8468">
        <ele>1645.4410400391</ele>
        <time>2017-12-17T10:22:33Z</time>
      </trkpt>
      <trkpt lat="45.30822" lon="5.84683">
        <ele>1652.4410400391</ele>
        <time>2017-12-17T10:22:39Z</time>
      </trkpt>
      <trkpt lat="45.30827" lon="5.84686">
        <ele>1653.4410400391</ele>
        <time>2017-12-17T10:22:43Z</time>
      </trkpt>
      <trkpt lat="45.30831" lon="5.8469">
        <ele>1560.4410400391</ele>
        <time>2017-12-17T10:22:52Z</time>
      </trkpt>
      <trkpt lat="45.30828" lon="5.84695">
        <ele>1633.4410400391</ele>
        <time>2017-12-17T10:22:59Z</time>
      </trkpt>
      <trkpt lat="45.30827" lon="5.84702">
        <ele>1645.4410400391</ele>
        <time>2017-12-17T10:23:08Z</time>
      </trkpt>
      <trkpt lat="45.30824" lon="5.84709">
        <ele>1654.4410400391</ele>
        <time>2017-12-17T10:23:19Z</time>
      </trkpt>
      <trkpt lat="45.30821" lon="5.84715">
        <ele>1658.4410400391</ele>
        <time>2017-12-17T10:23:23Z</time>
      </trkpt>
      <trkpt lat="45.30819" lon="5.84721">
        <ele>1661.4410400391</ele>
        <time>2017-12-17T10:23:28Z</time>
      </trkpt>
      <trkpt lat="45.30816" lon="5.84726">
        <ele>1664.4410400391</ele>
        <time>2017-12-17T10:23:32Z</time>
      </trkpt>
      <trkpt lat="45.30816" lon="5.84733">
        <ele>1663.4410400391</ele>
        <time>2017-12-17T10:23:43Z</time>
      </trkpt>
      <trkpt lat="45.3082" lon="5.84737">
        <ele>1665.4410400391</ele>
        <time>2017-12-17T10:24:05Z</time>
      </trkpt>
      <trkpt lat="45.30825" lon="5.84738">
        <ele>1671.4410400391</ele>
        <time>2017-12-17T10:24:11Z</time>
      </trkpt>
      <trkpt lat="45.3083" lon="5.8474">
        <ele>1671.4410400391</ele>
        <time>2017-12-17T10:24:17Z</time>
      </trkpt>
      <trkpt lat="45.30835" lon="5.84739">
        <ele>1673.4410400391</ele>
        <time>2017-12-17T10:24:23Z</time>
      </trkpt>
      <trkpt lat="45.30839" lon="5.84741">
        <ele>1671.4410400391</ele>
        <time>2017-12-17T10:24:28Z</time>
      </trkpt>
      <trkpt lat="45.30845" lon="5.84744">
        <ele>1670.4410400391</ele>
        <time>2017-12-17T10:24:32Z</time>
      </trkpt>
      <trkpt lat="45.30849" lon="5.84745">
        <ele>1674.4410400391</ele>
        <time>2017-12-17T10:24:40Z</time>
      </trkpt>
      <trkpt lat="45.30854" lon="5.84743">
        <ele>1676.4410400391</ele>
        <time>2017-12-17T10:24:47Z</time>
      </trkpt>
      <trkpt lat="45.30859" lon="5.84743">
        <ele>1680.4410400391</ele>
        <time>2017-12-17T10:24:57Z</time>
      </trkpt>
      <trkpt lat="45.30864" lon="5.84744">
        <ele>1685.4410400391</ele>
        <time>2017-12-17T10:25:05Z</time>
      </trkpt>
      <trkpt lat="45.30868" lon="5.84748">
        <ele>1686.4410400391</ele>
        <time>2017-12-17T10:25:16Z</time>
      </trkpt>
      <trkpt lat="45.30866" lon="5.84754">
        <ele>1686.4410400391</ele>
        <time>2017-12-17T10:25:27Z</time>
      </trkpt>
      <trkpt lat="45.30863" lon="5.8476">
        <ele>1686.4410400391</ele>
        <time>2017-12-17T10:25:34Z</time>
      </trkpt>
      <trkpt lat="45.30861" lon="5.84765">
        <ele>1690.4410400391</ele>
        <time>2017-12-17T10:25:40Z</time>
      </trkpt>
      <trkpt lat="45.30858" lon="5.84772">
        <ele>1693.4410400391</ele>
        <time>2017-12-17T10:25:48Z</time>
      </trkpt>
      <trkpt lat="45.30855" lon="5.84778">
        <ele>1695.4410400391</ele>
        <time>2017-12-17T10:25:56Z</time>
      </trkpt>
      <trkpt lat="45.30854" lon="5.84784">
        <ele>1695.4410400391</ele>
        <time>2017-12-17T10:26:04Z</time>
      </trkpt>
      <trkpt lat="45.30852" lon="5.8479">
        <ele>1697.4410400391</ele>
        <time>2017-12-17T10:26:12Z</time>
      </trkpt>
      <trkpt lat="45.30849" lon="5.84796">
        <ele>1698.4410400391</ele>
        <time>2017-12-17T10:26:19Z</time>
      </trkpt>
      <trkpt lat="45.30848" lon="5.84803">
        <ele>1700.4410400391</ele>
        <time>2017-12-17T10:26:24Z</time>
      </trkpt>
      <trkpt lat="45.30846" lon="5.84809">
        <ele>1701.4410400391</ele>
        <time>2017-12-17T10:26:32Z</time>
      </trkpt>
      <trkpt lat="45.30849" lon="5.84814">
        <ele>1704.4410400391</ele>
        <time>2017-12-17T10:26:48Z</time>
      </trkpt>
      <trkpt lat="45.30854" lon="5.84815">
        <ele>1706.4410400391</ele>
        <time>2017-12-17T10:26:57Z</time>
      </trkpt>
      <trkpt lat="45.30859" lon="5.84816">
        <ele>1709.4410400391</ele>
        <time>2017-12-17T10:27:03Z</time>
      </trkpt>
      <trkpt lat="45.30864" lon="5.84817">
        <ele>1711.4410400391</ele>
        <time>2017-12-17T10:27:10Z</time>
      </trkpt>
      <trkpt lat="45.30863" lon="5.84823">
        <ele>1716.4410400391</ele>
        <time>2017-12-17T10:27:24Z</time>
      </trkpt>
      <trkpt lat="45.30862" lon="5.8483">
        <ele>1717.4410400391</ele>
        <time>2017-12-17T10:27:34Z</time>
      </trkpt>
      <trkpt lat="45.30867" lon="5.84832">
        <ele>1720.4410400391</ele>
        <time>2017-12-17T10:27:46Z</time>
      </trkpt>
      <trkpt lat="45.30868" lon="5.84838">
        <ele>1720.4410400391</ele>
        <time>2017-12-17T10:28:04Z</time>
      </trkpt>
      <trkpt lat="45.30866" lon="5.84844">
        <ele>1721.4410400391</ele>
        <time>2017-12-17T10:28:11Z</time>
      </trkpt>
      <trkpt lat="45.30864" lon="5.84851">
        <ele>1723.4410400391</ele>
        <time>2017-12-17T10:28:18Z</time>
      </trkpt>
      <trkpt lat="45.30861" lon="5.84857">
        <ele>1725.4410400391</ele>
        <time>2017-12-17T10:28:26Z</time>
      </trkpt>
      <trkpt lat="45.30858" lon="5.84863">
        <ele>1726.4410400391</ele>
        <time>2017-12-17T10:28:33Z</time>
      </trkpt>
      <trkpt lat="45.30855" lon="5.84868">
        <ele>1729.4410400391</ele>
        <time>2017-12-17T10:28:42Z</time>
      </trkpt>
      <trkpt lat="45.30852" lon="5.84874">
        <ele>1731.4410400391</ele>
        <time>2017-12-17T10:29:04Z</time>
      </trkpt>
      <trkpt lat="45.30847" lon="5.84873">
        <ele>1735.4410400391</ele>
        <time>2017-12-17T10:30:21Z</time>
      </trkpt>
      <trkpt lat="45.30842" lon="5.84874">
        <ele>1738.4410400391</ele>
        <time>2017-12-17T10:31:03Z</time>
      </trkpt>
      <trkpt lat="45.30837" lon="5.84871">
        <ele>1738.4410400391</ele>
        <time>2017-12-17T10:31:05Z</time>
      </trkpt>
      <trkpt lat="45.30832" lon="5.84865">
        <ele>1736.4410400391</ele>
        <time>2017-12-17T10:31:06Z</time>
      </trkpt>
      <trkpt lat="45.30826" lon="5.84863">
        <ele>1733.4410400391</ele>
        <time>2017-12-17T10:31:07Z</time>
      </trkpt>
      <trkpt lat="45.3082" lon="5.84859">
        <ele>1728.4410400391</ele>
        <time>2017-12-17T10:31:09Z</time>
      </trkpt>
      <trkpt lat="45.30814" lon="5.84852">
        <ele>1727.4410400391</ele>
        <time>2017-12-17T10:31:11Z</time>
      </trkpt>
      <trkpt lat="45.3081" lon="5.84836">
        <ele>1723.4410400391</ele>
        <time>2017-12-17T10:31:13Z</time>
      </trkpt>
      <trkpt lat="45.30802" lon="5.84825">
        <ele>1717.4410400391</ele>
        <time>2017-12-17T10:31:15Z</time>
      </trkpt>
      <trkpt lat="45.30796" lon="5.84814">
        <ele>1710.4410400391</ele>
        <time>2017-12-17T10:31:17Z</time>
      </trkpt>
      <trkpt lat="45.30789" lon="5.84798">
        <ele>1703.4410400391</ele>
        <time>2017-12-17T10:31:19Z</time>
      </trkpt>
      <trkpt lat="45.30779" lon="5.84781">
        <ele>1692.4410400391</ele>
        <time>2017-12-17T10:31:22Z</time>
      </trkpt>
      <trkpt lat="45.30771" lon="5.8477">
        <ele>1684.4410400391</ele>
        <time>2017-12-17T10:31:24Z</time>
      </trkpt>
      <trkpt lat="45.30762" lon="5.84759">
        <ele>1679.4410400391</ele>
        <time>2017-12-17T10:31:26Z</time>
      </trkpt>
      <trkpt lat="45.30755" lon="5.84744">
        <ele>1675.4410400391</ele>
        <time>2017-12-17T10:31:28Z</time>
      </trkpt>
      <trkpt lat="45.30747" lon="5.84731">
        <ele>1668.4410400391</ele>
        <time>2017-12-17T10:31:30Z</time>
      </trkpt>
      <trkpt lat="45.30744" lon="5.84723">
        <ele>1662.4410400391</ele>
        <time>2017-12-17T10:31:31Z</time>
      </trkpt>
      <trkpt lat="45.30735" lon="5.84717">
        <ele>1656.4410400391</ele>
        <time>2017-12-17T10:31:33Z</time>
      </trkpt>
      <trkpt lat="45.3073" lon="5.84713">
        <ele>1653.4410400391</ele>
        <time>2017-12-17T10:31:34Z</time>
      </trkpt>
      <trkpt lat="45.30722" lon="5.84703">
        <ele>1646.4410400391</ele>
        <time>2017-12-17T10:31:36Z</time>
      </trkpt>
      <trkpt lat="45.30717" lon="5.8469">
        <ele>1636.4410400391</ele>
        <time>2017-12-17T10:31:38Z</time>
      </trkpt>
      <trkpt lat="45.30712" lon="5.84678">
        <ele>1627.4410400391</ele>
        <time>2017-12-17T10:31:40Z</time>
      </trkpt>
      <trkpt lat="45.30707" lon="5.84652">
        <ele>1621.4410400391</ele>
        <time>2017-12-17T10:31:43Z</time>
      </trkpt>
      <trkpt lat="45.30701" lon="5.84635">
        <ele>1614.4410400391</ele>
        <time>2017-12-17T10:31:45Z</time>
      </trkpt>
      <trkpt lat="45.30694" lon="5.84618">
        <ele>1609.4410400391</ele>
        <time>2017-12-17T10:31:47Z</time>
      </trkpt>
      <trkpt lat="45.30691" lon="5.8461">
        <ele>1606.4410400391</ele>
        <time>2017-12-17T10:31:48Z</time>
      </trkpt>
      <trkpt lat="45.30681" lon="5.84612">
        <ele>1595.4410400391</ele>
        <time>2017-12-17T10:31:55Z</time>
      </trkpt>
      <trkpt lat="45.30676" lon="5.84608">
        <ele>1593.4410400391</ele>
        <time>2017-12-17T10:31:56Z</time>
      </trkpt>
      <trkpt lat="45.30666" lon="5.84604">
        <ele>1590.4410400391</ele>
        <time>2017-12-17T10:31:58Z</time>
      </trkpt>
      <trkpt lat="45.30659" lon="5.84599">
        <ele>1587.4410400391</ele>
        <time>2017-12-17T10:32:00Z</time>
      </trkpt>
      <trkpt lat="45.30651" lon="5.84588">
        <ele>1582.4410400391</ele>
        <time>2017-12-17T10:32:02Z</time>
      </trkpt>
      <trkpt lat="45.30645" lon="5.84581">
        <ele>1580.4410400391</ele>
        <time>2017-12-17T10:32:04Z</time>
      </trkpt>
      <trkpt lat="45.30632" lon="5.84567">
        <ele>1577.4399414062</ele>
        <time>2017-12-17T10:32:07Z</time>
      </trkpt>
      <trkpt lat="45.30623" lon="5.84549">
        <ele>1572.4399414062</ele>
        <time>2017-12-17T10:32:09Z</time>
      </trkpt>
      <trkpt lat="45.3062" lon="5.84535">
        <ele>1568.4399414062</ele>
        <time>2017-12-17T10:32:10Z</time>
      </trkpt>
      <trkpt lat="45.30613" lon="5.8452">
        <ele>1562.4399414062</ele>
        <time>2017-12-17T10:32:12Z</time>
      </trkpt>
      <trkpt lat="45.30608" lon="5.84512">
        <ele>1559.4399414062</ele>
        <time>2017-12-17T10:32:13Z</time>
      </trkpt>
      <trkpt lat="45.30603" lon="5.84497">
        <ele>1558.4399414062</ele>
        <time>2017-12-17T10:32:15Z</time>
      </trkpt>
      <trkpt lat="45.30611" lon="5.84484">
        <ele>1552.4399414062</ele>
        <time>2017-12-17T10:32:17Z</time>
      </trkpt>
      <trkpt lat="45.30618" lon="5.84471">
        <ele>1549.4399414062</ele>
        <time>2017-12-17T10:32:19Z</time>
      </trkpt>
      <trkpt lat="45.30627" lon="5.8446">
        <ele>1545.4399414062</ele>
        <time>2017-12-17T10:32:21Z</time>
      </trkpt>
      <trkpt lat="45.30635" lon="5.84447">
        <ele>1542.4399414062</ele>
        <time>2017-12-17T10:32:23Z</time>
      </trkpt>
      <trkpt lat="45.30642" lon="5.84435">
        <ele>1538.4399414062</ele>
        <time>2017-12-17T10:32:25Z</time>
      </trkpt>
      <trkpt lat="45.3065" lon="5.84422">
        <ele>1534.4399414062</ele>
        <time>2017-12-17T10:32:27Z</time>
      </trkpt>
      <trkpt lat="45.30659" lon="5.84411">
        <ele>1532.4399414062</ele>
        <time>2017-12-17T10:32:29Z</time>
      </trkpt>
      <trkpt lat="45.30666" lon="5.84402">
        <ele>1527.4399414062</ele>
        <time>2017-12-17T10:32:31Z</time>
      </trkpt>
      <trkpt lat="45.30672" lon="5.84391">
        <ele>1524.4399414062</ele>
        <time>2017-12-17T10:32:33Z</time>
      </trkpt>
      <trkpt lat="45.30674" lon="5.84376">
        <ele>1522.4399414062</ele>
        <time>2017-12-17T10:32:35Z</time>
      </trkpt>
      <trkpt lat="45.30675" lon="5.84358">
        <ele>1520.4399414062</ele>
        <time>2017-12-17T10:32:37Z</time>
      </trkpt>
      <trkpt lat="45.30677" lon="5.84339">
        <ele>1518.4399414062</ele>
        <time>2017-12-17T10:32:39Z</time>
      </trkpt>
      <trkpt lat="45.30677" lon="5.8432">
        <ele>1517.4399414062</ele>
        <time>2017-12-17T10:32:41Z</time>
      </trkpt>
      <trkpt lat="45.30674" lon="5.843">
        <ele>1514.4399414062</ele>
        <time>2017-12-17T10:32:43Z</time>
      </trkpt>
      <trkpt lat="45.30669" lon="5.84283">
        <ele>1508.4399414062</ele>
        <time>2017-12-17T10:32:45Z</time>
      </trkpt>
      <trkpt lat="45.30668" lon="5.84276">
        <ele>1505.4399414062</ele>
        <time>2017-12-17T10:32:46Z</time>
      </trkpt>
      <trkpt lat="45.30667" lon="5.84258">
        <ele>1503.4399414062</ele>
        <time>2017-12-17T10:32:48Z</time>
      </trkpt>
      <trkpt lat="45.30664" lon="5.84249">
        <ele>1494.4399414062</ele>
        <time>2017-12-17T10:32:50Z</time>
      </trkpt>
      <trkpt lat="45.30665" lon="5.84242">
        <ele>1490.4399414062</ele>
        <time>2017-12-17T10:32:51Z</time>
      </trkpt>
      <trkpt lat="45.30663" lon="5.84223">
        <ele>1487.4399414062</ele>
        <time>2017-12-17T10:32:53Z</time>
      </trkpt>
      <trkpt lat="45.30659" lon="5.84215">
        <ele>1476.4399414062</ele>
        <time>2017-12-17T10:32:55Z</time>
      </trkpt>
      <trkpt lat="45.30652" lon="5.84201">
        <ele>1471.4399414062</ele>
        <time>2017-12-17T10:32:57Z</time>
      </trkpt>
      <trkpt lat="45.30641" lon="5.84189">
        <ele>1465.4399414062</ele>
        <time>2017-12-17T10:32:59Z</time>
      </trkpt>
      <trkpt lat="45.30631" lon="5.84177">
        <ele>1462.4399414062</ele>
        <time>2017-12-17T10:33:01Z</time>
      </trkpt>
      <trkpt lat="45.30624" lon="5.84167">
        <ele>1540.4399414062</ele>
        <time>2017-12-17T10:33:03Z</time>
      </trkpt>
      <trkpt lat="45.30613" lon="5.84157">
        <ele>1506.4399414062</ele>
        <time>2017-12-17T10:33:05Z</time>
      </trkpt>
      <trkpt lat="45.30602" lon="5.84149">
        <ele>1488.4399414062</ele>
        <time>2017-12-17T10:33:07Z</time>
      </trkpt>
      <trkpt lat="45.30592" lon="5.84141">
        <ele>1473.4399414062</ele>
        <time>2017-12-17T10:33:09Z</time>
      </trkpt>
      <trkpt lat="45.30577" lon="5.84136">
        <ele>1460.4399414062</ele>
        <time>2017-12-17T10:33:12Z</time>
      </trkpt>
      <trkpt lat="45.30568" lon="5.84129">
        <ele>1455.4399414062</ele>
        <time>2017-12-17T10:33:14Z</time>
      </trkpt>
      <trkpt lat="45.30558" lon="5.84126">
        <ele>1448.4399414062</ele>
        <time>2017-12-17T10:33:16Z</time>
      </trkpt>
      <trkpt lat="45.30553" lon="5.84125">
        <ele>1445.4399414062</ele>
        <time>2017-12-17T10:33:18Z</time>
      </trkpt>
      <trkpt lat="45.30548" lon="5.84129">
        <ele>1440.4399414062</ele>
        <time>2017-12-17T10:33:21Z</time>
      </trkpt>
      <trkpt lat="45.30543" lon="5.84131">
        <ele>1434.4399414062</ele>
        <time>2017-12-17T10:33:26Z</time>
      </trkpt>
      <trkpt lat="45.30537" lon="5.84123">
        <ele>1431.4399414062</ele>
        <time>2017-12-17T10:33:28Z</time>
      </trkpt>
      <trkpt lat="45.30532" lon="5.84115">
        <ele>1430.4399414062</ele>
        <time>2017-12-17T10:33:30Z</time>
      </trkpt>
      <trkpt lat="45.30527" lon="5.84101">
        <ele>1429.4399414062</ele>
        <time>2017-12-17T10:33:32Z</time>
      </trkpt>
      <trkpt lat="45.3052" lon="5.84095">
        <ele>1429.4399414062</ele>
        <time>2017-12-17T10:33:34Z</time>
      </trkpt>
      <trkpt lat="45.30512" lon="5.84083">
        <ele>1428.4399414062</ele>
        <time>2017-12-17T10:33:36Z</time>
      </trkpt>
      <trkpt lat="45.30516" lon="5.84077">
        <ele>1414.4399414062</ele>
        <time>2017-12-17T10:33:43Z</time>
      </trkpt>
      <trkpt lat="45.30512" lon="5.84072">
        <ele>1405.4399414062</ele>
        <time>2017-12-17T10:33:50Z</time>
      </trkpt>
      <trkpt lat="45.30509" lon="5.84068">
        <ele>1404.4399414062</ele>
        <time>2017-12-17T10:33:53Z</time>
      </trkpt>
      <trkpt lat="45.30505" lon="5.8406">
        <ele>1402.4399414062</ele>
        <time>2017-12-17T10:33:56Z</time>
      </trkpt>
      <trkpt lat="45.30501" lon="5.84054">
        <ele>1401.4399414062</ele>
        <time>2017-12-17T10:33:58Z</time>
      </trkpt>
      <trkpt lat="45.30497" lon="5.84048">
        <ele>1401.4399414062</ele>
        <time>2017-12-17T10:34:00Z</time>
      </trkpt>
      <trkpt lat="45.30492" lon="5.84039">
        <ele>1399.4389648438</ele>
        <time>2017-12-17T10:34:02Z</time>
      </trkpt>
      <trkpt lat="45.30487" lon="5.84031">
        <ele>1397.4389648438</ele>
        <time>2017-12-17T10:34:04Z</time>
      </trkpt>
      <trkpt lat="45.3048" lon="5.84024">
        <ele>1397.4389648438</ele>
        <time>2017-12-17T10:34:06Z</time>
      </trkpt>
      <trkpt lat="45.30472" lon="5.84023">
        <ele>1393.4389648438</ele>
        <time>2017-12-17T10:34:08Z</time>
      </trkpt>
      <trkpt lat="45.30462" lon="5.84018">
        <ele>1393.4389648438</ele>
        <time>2017-12-17T10:34:10Z</time>
      </trkpt>
      <trkpt lat="45.30452" lon="5.84013">
        <ele>1393.4389648438</ele>
        <time>2017-12-17T10:34:12Z</time>
      </trkpt>
      <trkpt lat="45.3044" lon="5.8401">
        <ele>1392.4389648438</ele>
        <time>2017-12-17T10:34:14Z</time>
      </trkpt>
      <trkpt lat="45.30428" lon="5.84009">
        <ele>1391.4389648438</ele>
        <time>2017-12-17T10:34:16Z</time>
      </trkpt>
      <trkpt lat="45.30416" lon="5.84005">
        <ele>1391.4389648438</ele>
        <time>2017-12-17T10:34:18Z</time>
      </trkpt>
      <trkpt lat="45.30409" lon="5.84">
        <ele>1391.4389648438</ele>
        <time>2017-12-17T10:34:19Z</time>
      </trkpt>
      <trkpt lat="45.30393" lon="5.83986">
        <ele>1387.4389648438</ele>
        <time>2017-12-17T10:34:22Z</time>
      </trkpt>
      <trkpt lat="45.30383" lon="5.83971">
        <ele>1386.4389648438</ele>
        <time>2017-12-17T10:34:24Z</time>
      </trkpt>
      <trkpt lat="45.30378" lon="5.83961">
        <ele>1382.4389648438</ele>
        <time>2017-12-17T10:34:25Z</time>
      </trkpt>
      <trkpt lat="45.30364" lon="5.83948">
        <ele>1381.4389648438</ele>
        <time>2017-12-17T10:34:27Z</time>
      </trkpt>
      <trkpt lat="45.30357" lon="5.83932">
        <ele>1376.4389648438</ele>
        <time>2017-12-17T10:34:29Z</time>
      </trkpt>
      <trkpt lat="45.30345" lon="5.83919">
        <ele>1376.4389648438</ele>
        <time>2017-12-17T10:34:31Z</time>
      </trkpt>
      <trkpt lat="45.30332" lon="5.83911">
        <ele>1373.4389648438</ele>
        <time>2017-12-17T10:34:33Z</time>
      </trkpt>
      <trkpt lat="45.30325" lon="5.83912">
        <ele>1372.4389648438</ele>
        <time>2017-12-17T10:34:34Z</time>
      </trkpt>
      <trkpt lat="45.3032" lon="5.83917">
        <ele>1370.4389648438</ele>
        <time>2017-12-17T10:34:35Z</time>
      </trkpt>
      <trkpt lat="45.30316" lon="5.83922">
        <ele>1370.4389648438</ele>
        <time>2017-12-17T10:34:36Z</time>
      </trkpt>
      <trkpt lat="45.30309" lon="5.83924">
        <ele>1371.4389648438</ele>
        <time>2017-12-17T10:34:38Z</time>
      </trkpt>
      <trkpt lat="45.30305" lon="5.83929">
        <ele>1370.4389648438</ele>
        <time>2017-12-17T10:34:40Z</time>
      </trkpt>
      <trkpt lat="45.30296" lon="5.83932">
        <ele>1371.4389648438</ele>
        <time>2017-12-17T10:34:42Z</time>
      </trkpt>
      <trkpt lat="45.30291" lon="5.83941">
        <ele>1370.4389648438</ele>
        <time>2017-12-17T10:34:44Z</time>
      </trkpt>
      <trkpt lat="45.30287" lon="5.83945">
        <ele>1367.4389648438</ele>
        <time>2017-12-17T10:34:46Z</time>
      </trkpt>
      <trkpt lat="45.30287" lon="5.83951">
        <ele>1366.4389648438</ele>
        <time>2017-12-17T10:34:50Z</time>
      </trkpt>
      <trkpt lat="45.30287" lon="5.83959">
        <ele>1362.4389648438</ele>
        <time>2017-12-17T10:34:53Z</time>
      </trkpt>
      <trkpt lat="45.30284" lon="5.83965">
        <ele>1359.4389648438</ele>
        <time>2017-12-17T10:34:55Z</time>
      </trkpt>
      <trkpt lat="45.3028" lon="5.83969">
        <ele>1355.4389648438</ele>
        <time>2017-12-17T10:35:02Z</time>
      </trkpt>
      <trkpt lat="45.30269" lon="5.83968">
        <ele>1353.4389648438</ele>
        <time>2017-12-17T10:35:04Z</time>
      </trkpt>
      <trkpt lat="45.30259" lon="5.83961">
        <ele>1352.4389648438</ele>
        <time>2017-12-17T10:35:06Z</time>
      </trkpt>
      <trkpt lat="45.3025" lon="5.83952">
        <ele>1351.4389648438</ele>
        <time>2017-12-17T10:35:08Z</time>
      </trkpt>
      <trkpt lat="45.30242" lon="5.83944">
        <ele>1349.4389648438</ele>
        <time>2017-12-17T10:35:10Z</time>
      </trkpt>
      <trkpt lat="45.30232" lon="5.83937">
        <ele>1347.4389648438</ele>
        <time>2017-12-17T10:35:12Z</time>
      </trkpt>
      <trkpt lat="45.30222" lon="5.83933">
        <ele>1347.4389648438</ele>
        <time>2017-12-17T10:35:14Z</time>
      </trkpt>
      <trkpt lat="45.30211" lon="5.8393">
        <ele>1345.4389648438</ele>
        <time>2017-12-17T10:35:16Z</time>
      </trkpt>
      <trkpt lat="45.302" lon="5.8393">
        <ele>1343.4389648438</ele>
        <time>2017-12-17T10:35:18Z</time>
      </trkpt>
      <trkpt lat="45.30188" lon="5.83932">
        <ele>1342.4389648438</ele>
        <time>2017-12-17T10:35:20Z</time>
      </trkpt>
      <trkpt lat="45.30177" lon="5.83937">
        <ele>1341.4389648438</ele>
        <time>2017-12-17T10:35:22Z</time>
      </trkpt>
      <trkpt lat="45.30165" lon="5.83943">
        <ele>1340.4389648438</ele>
        <time>2017-12-17T10:35:24Z</time>
      </trkpt>
      <trkpt lat="45.30152" lon="5.83944">
        <ele>1337.4389648438</ele>
        <time>2017-12-17T10:35:26Z</time>
      </trkpt>
      <trkpt lat="45.3014" lon="5.83947">
        <ele>1337.4389648438</ele>
        <time>2017-12-17T10:35:28Z</time>
      </trkpt>
      <trkpt lat="45.30138" lon="5.83961">
        <ele>1335.4389648438</ele>
        <time>2017-12-17T10:35:31Z</time>
      </trkpt>
      <trkpt lat="45.30141" lon="5.83966">
        <ele>1331.4389648438</ele>
        <time>2017-12-17T10:36:28Z</time>
      </trkpt>
      <trkpt lat="45.30149" lon="5.83965">
        <ele>1332.4389648438</ele>
        <time>2017-12-17T10:36:32Z</time>
      </trkpt>
      <trkpt lat="45.30154" lon="5.83965">
        <ele>1331.4389648438</ele>
        <time>2017-12-17T10:36:34Z</time>
      </trkpt>
      <trkpt lat="45.30166" lon="5.83967">
        <ele>1331.4389648438</ele>
        <time>2017-12-17T10:36:37Z</time>
      </trkpt>
      <trkpt lat="45.30174" lon="5.8397">
        <ele>1329.4389648438</ele>
        <time>2017-12-17T10:36:39Z</time>
      </trkpt>
      <trkpt lat="45.30183" lon="5.83972">
        <ele>1327.4389648438</ele>
        <time>2017-12-17T10:36:41Z</time>
      </trkpt>
      <trkpt lat="45.30192" lon="5.83978">
        <ele>1329.4389648438</ele>
        <time>2017-12-17T10:36:43Z</time>
      </trkpt>
      <trkpt lat="45.30203" lon="5.83989">
        <ele>1329.4389648438</ele>
        <time>2017-12-17T10:36:45Z</time>
      </trkpt>
      <trkpt lat="45.30209" lon="5.84002">
        <ele>1325.4389648438</ele>
        <time>2017-12-17T10:36:47Z</time>
      </trkpt>
      <trkpt lat="45.30213" lon="5.84016">
        <ele>1323.4389648438</ele>
        <time>2017-12-17T10:36:49Z</time>
      </trkpt>
      <trkpt lat="45.30217" lon="5.8403">
        <ele>1322.4389648438</ele>
        <time>2017-12-17T10:36:51Z</time>
      </trkpt>
      <trkpt lat="45.3022" lon="5.84045">
        <ele>1323.4389648438</ele>
        <time>2017-12-17T10:36:53Z</time>
      </trkpt>
      <trkpt lat="45.30223" lon="5.8406">
        <ele>1323.4389648438</ele>
        <time>2017-12-17T10:36:55Z</time>
      </trkpt>
      <trkpt lat="45.30222" lon="5.84067">
        <ele>1323.4389648438</ele>
        <time>2017-12-17T10:36:58Z</time>
      </trkpt>
      <trkpt lat="45.30217" lon="5.84071">
        <ele>1322.4389648438</ele>
        <time>2017-12-17T10:37:00Z</time>
      </trkpt>
      <trkpt lat="45.30204" lon="5.84064">
        <ele>1322.4389648438</ele>
        <time>2017-12-17T10:37:02Z</time>
      </trkpt>
      <trkpt lat="45.30192" lon="5.84057">
        <ele>1321.4389648438</ele>
        <time>2017-12-17T10:37:04Z</time>
      </trkpt>
      <trkpt lat="45.30185" lon="5.84055">
        <ele>1320.4389648438</ele>
        <time>2017-12-17T10:37:05Z</time>
      </trkpt>
      <trkpt lat="45.30173" lon="5.84053">
        <ele>1318.4389648438</ele>
        <time>2017-12-17T10:37:07Z</time>
      </trkpt>
      <trkpt lat="45.3016" lon="5.84056">
        <ele>1316.4389648438</ele>
        <time>2017-12-17T10:37:09Z</time>
      </trkpt>
      <trkpt lat="45.30146" lon="5.84061">
        <ele>1315.4389648438</ele>
        <time>2017-12-17T10:37:11Z</time>
      </trkpt>
      <trkpt lat="45.3013" lon="5.84065">
        <ele>1313.4389648438</ele>
        <time>2017-12-17T10:37:13Z</time>
      </trkpt>
      <trkpt lat="45.30115" lon="5.84068">
        <ele>1312.4389648438</ele>
        <time>2017-12-17T10:37:15Z</time>
      </trkpt>
      <trkpt lat="45.301" lon="5.84071">
        <ele>1311.4389648438</ele>
        <time>2017-12-17T10:37:17Z</time>
      </trkpt>
      <trkpt lat="45.30081" lon="5.84073">
        <ele>1306.4389648438</ele>
        <time>2017-12-17T10:37:20Z</time>
      </trkpt>
      <trkpt lat="45.30069" lon="5.84072">
        <ele>1302.4389648438</ele>
        <time>2017-12-17T10:37:22Z</time>
      </trkpt>
      <trkpt lat="45.30055" lon="5.84074">
        <ele>1301.4389648438</ele>
        <time>2017-12-17T10:37:24Z</time>
      </trkpt>
      <trkpt lat="45.30042" lon="5.84076">
        <ele>1299.4389648438</ele>
        <time>2017-12-17T10:37:26Z</time>
      </trkpt>
      <trkpt lat="45.30028" lon="5.84079">
        <ele>1296.4389648438</ele>
        <time>2017-12-17T10:37:28Z</time>
      </trkpt>
      <trkpt lat="45.30022" lon="5.84079">
        <ele>1294.4389648438</ele>
        <time>2017-12-17T10:37:29Z</time>
      </trkpt>
      <trkpt lat="45.30009" lon="5.8408">
        <ele>1293.4389648438</ele>
        <time>2017-12-17T10:37:31Z</time>
      </trkpt>
      <trkpt lat="45.29995" lon="5.84077">
        <ele>1292.4379882812</ele>
        <time>2017-12-17T10:37:33Z</time>
      </trkpt>
      <trkpt lat="45.29983" lon="5.84072">
        <ele>1291.4379882812</ele>
        <time>2017-12-17T10:37:35Z</time>
      </trkpt>
      <trkpt lat="45.29973" lon="5.84065">
        <ele>1290.4379882812</ele>
        <time>2017-12-17T10:37:37Z</time>
      </trkpt>
      <trkpt lat="45.29964" lon="5.84061">
        <ele>1289.4379882812</ele>
        <time>2017-12-17T10:37:39Z</time>
      </trkpt>
      <trkpt lat="45.29952" lon="5.84067">
        <ele>1287.4379882812</ele>
        <time>2017-12-17T10:37:41Z</time>
      </trkpt>
      <trkpt lat="45.29942" lon="5.84069">
        <ele>1287.4379882812</ele>
        <time>2017-12-17T10:37:47Z</time>
      </trkpt>
      <trkpt lat="45.29936" lon="5.84073">
        <ele>1283.4379882812</ele>
        <time>2017-12-17T10:37:50Z</time>
      </trkpt>
      <trkpt lat="45.29932" lon="5.84081">
        <ele>1281.4379882812</ele>
        <time>2017-12-17T10:37:52Z</time>
      </trkpt>
      <trkpt lat="45.29935" lon="5.84087">
        <ele>1277.4379882812</ele>
        <time>2017-12-17T10:37:56Z</time>
      </trkpt>
      <trkpt lat="45.29936" lon="5.84094">
        <ele>1277.4379882812</ele>
        <time>2017-12-17T10:37:58Z</time>
      </trkpt>
      <trkpt lat="45.29937" lon="5.841">
        <ele>1277.4379882812</ele>
        <time>2017-12-17T10:38:06Z</time>
      </trkpt>
      <trkpt lat="45.29932" lon="5.84104">
        <ele>1277.4379882812</ele>
        <time>2017-12-17T10:38:12Z</time>
      </trkpt>
      <trkpt lat="45.29932" lon="5.84111">
        <ele>1275.4379882812</ele>
        <time>2017-12-17T10:38:14Z</time>
      </trkpt>
      <trkpt lat="45.29928" lon="5.84117">
        <ele>1273.4379882812</ele>
        <time>2017-12-17T10:38:16Z</time>
      </trkpt>
      <trkpt lat="45.29917" lon="5.84123">
        <ele>1272.4379882812</ele>
        <time>2017-12-17T10:38:19Z</time>
      </trkpt>
      <trkpt lat="45.29913" lon="5.84127">
        <ele>1270.4379882812</ele>
        <time>2017-12-17T10:38:22Z</time>
      </trkpt>
      <trkpt lat="45.29908" lon="5.84128">
        <ele>1268.4379882812</ele>
        <time>2017-12-17T10:38:25Z</time>
      </trkpt>
      <trkpt lat="45.29902" lon="5.84126">
        <ele>1265.4379882812</ele>
        <time>2017-12-17T10:38:29Z</time>
      </trkpt>
      <trkpt lat="45.29896" lon="5.84128">
        <ele>1263.4379882812</ele>
        <time>2017-12-17T10:38:32Z</time>
      </trkpt>
      <trkpt lat="45.29891" lon="5.84132">
        <ele>1263.4379882812</ele>
        <time>2017-12-17T10:38:34Z</time>
      </trkpt>
      <trkpt lat="45.29883" lon="5.84133">
        <ele>1262.4379882812</ele>
        <time>2017-12-17T10:38:36Z</time>
      </trkpt>
      <trkpt lat="45.29873" lon="5.84139">
        <ele>1261.4379882812</ele>
        <time>2017-12-17T10:38:38Z</time>
      </trkpt>
      <trkpt lat="45.2986" lon="5.84142">
        <ele>1258.4379882812</ele>
        <time>2017-12-17T10:38:41Z</time>
      </trkpt>
      <trkpt lat="45.29855" lon="5.84144">
        <ele>1256.4379882812</ele>
        <time>2017-12-17T10:38:43Z</time>
      </trkpt>
      <trkpt lat="45.29849" lon="5.84146">
        <ele>1255.4379882812</ele>
        <time>2017-12-17T10:38:45Z</time>
      </trkpt>
      <trkpt lat="45.29843" lon="5.84146">
        <ele>1254.4379882812</ele>
        <time>2017-12-17T10:38:47Z</time>
      </trkpt>
      <trkpt lat="45.29839" lon="5.84158">
        <ele>1254.4379882812</ele>
        <time>2017-12-17T10:38:49Z</time>
      </trkpt>
      <trkpt lat="45.29836" lon="5.84177">
        <ele>1250.4379882812</ele>
        <time>2017-12-17T10:38:52Z</time>
      </trkpt>
      <trkpt lat="45.29826" lon="5.84183">
        <ele>1247.4379882812</ele>
        <time>2017-12-17T10:38:54Z</time>
      </trkpt>
      <trkpt lat="45.29814" lon="5.84186">
        <ele>1244.4379882812</ele>
        <time>2017-12-17T10:38:56Z</time>
      </trkpt>
      <trkpt lat="45.29804" lon="5.84187">
        <ele>1240.4379882812</ele>
        <time>2017-12-17T10:38:58Z</time>
      </trkpt>
      <trkpt lat="45.29792" lon="5.84193">
        <ele>1236.4379882812</ele>
        <time>2017-12-17T10:39:00Z</time>
      </trkpt>
      <trkpt lat="45.29775" lon="5.84195">
        <ele>1233.4379882812</ele>
        <time>2017-12-17T10:39:02Z</time>
      </trkpt>
      <trkpt lat="45.2976" lon="5.84184">
        <ele>1230.4379882812</ele>
        <time>2017-12-17T10:39:04Z</time>
      </trkpt>
      <trkpt lat="45.29748" lon="5.84181">
        <ele>1228.4379882812</ele>
        <time>2017-12-17T10:39:06Z</time>
      </trkpt>
      <trkpt lat="45.29737" lon="5.84185">
        <ele>1226.4379882812</ele>
        <time>2017-12-17T10:39:08Z</time>
      </trkpt>
      <trkpt lat="45.29723" lon="5.84185">
        <ele>1224.4379882812</ele>
        <time>2017-12-17T10:39:11Z</time>
      </trkpt>
      <trkpt lat="45.29717" lon="5.84187">
        <ele>1224.4379882812</ele>
        <time>2017-12-17T10:39:13Z</time>
      </trkpt>
      <trkpt lat="45.29712" lon="5.84187">
        <ele>1222.4379882812</ele>
        <time>2017-12-17T10:39:15Z</time>
      </trkpt>
      <trkpt lat="45.29708" lon="5.84193">
        <ele>1215.4379882812</ele>
        <time>2017-12-17T10:39:24Z</time>
      </trkpt>
      <trkpt lat="45.29703" lon="5.84198">
        <ele>1213.4379882812</ele>
        <time>2017-12-17T10:39:26Z</time>
      </trkpt>
      <trkpt lat="45.29697" lon="5.84202">
        <ele>1209.4379882812</ele>
        <time>2017-12-17T10:39:29Z</time>
      </trkpt>
      <trkpt lat="45.2969" lon="5.84207">
        <ele>1207.4379882812</ele>
        <time>2017-12-17T10:39:31Z</time>
      </trkpt>
      <trkpt lat="45.29681" lon="5.84212">
        <ele>1205.4379882812</ele>
        <time>2017-12-17T10:39:33Z</time>
      </trkpt>
      <trkpt lat="45.29671" lon="5.84217">
        <ele>1203.4379882812</ele>
        <time>2017-12-17T10:39:36Z</time>
      </trkpt>
      <trkpt lat="45.2967" lon="5.84229">
        <ele>1201.4379882812</ele>
        <time>2017-12-17T10:39:38Z</time>
      </trkpt>
      <trkpt lat="45.29675" lon="5.84233">
        <ele>1194.4379882812</ele>
        <time>2017-12-17T10:39:39Z</time>
      </trkpt>
      <trkpt lat="45.29677" lon="5.84243">
        <ele>1192.4379882812</ele>
        <time>2017-12-17T10:39:41Z</time>
      </trkpt>
      <trkpt lat="45.29679" lon="5.84249">
        <ele>1191.4379882812</ele>
        <time>2017-12-17T10:39:46Z</time>
      </trkpt>
      <trkpt lat="45.29674" lon="5.84249">
        <ele>1191.4379882812</ele>
        <time>2017-12-17T10:39:51Z</time>
      </trkpt>
      <trkpt lat="45.29667" lon="5.84247">
        <ele>1189.4379882812</ele>
        <time>2017-12-17T10:39:54Z</time>
      </trkpt>
      <trkpt lat="45.29662" lon="5.84242">
        <ele>1187.4379882812</ele>
        <time>2017-12-17T10:39:57Z</time>
      </trkpt>
      <trkpt lat="45.29658" lon="5.84238">
        <ele>1188.4379882812</ele>
        <time>2017-12-17T10:39:59Z</time>
      </trkpt>
      <trkpt lat="45.29655" lon="5.84234">
        <ele>1189.4379882812</ele>
        <time>2017-12-17T10:40:01Z</time>
      </trkpt>
      <trkpt lat="45.2965" lon="5.84227">
        <ele>1187.4379882812</ele>
        <time>2017-12-17T10:40:04Z</time>
      </trkpt>
      <trkpt lat="45.29646" lon="5.84221">
        <ele>1185.4379882812</ele>
        <time>2017-12-17T10:40:07Z</time>
      </trkpt>
      <trkpt lat="45.2964" lon="5.84227">
        <ele>1182.4379882812</ele>
        <time>2017-12-17T10:40:35Z</time>
      </trkpt>
      <trkpt lat="45.29636" lon="5.84233">
        <ele>1180.4379882812</ele>
        <time>2017-12-17T10:40:36Z</time>
      </trkpt>
      <trkpt lat="45.29625" lon="5.84241">
        <ele>1180.4379882812</ele>
        <time>2017-12-17T10:40:39Z</time>
      </trkpt>
      <trkpt lat="45.29619" lon="5.8424">
        <ele>1179.4379882812</ele>
        <time>2017-12-17T10:40:41Z</time>
      </trkpt>
      <trkpt lat="45.29613" lon="5.84241">
        <ele>1179.4379882812</ele>
        <time>2017-12-17T10:40:43Z</time>
      </trkpt>
      <trkpt lat="45.29608" lon="5.84242">
        <ele>1177.4379882812</ele>
        <time>2017-12-17T10:40:45Z</time>
      </trkpt>
      <trkpt lat="45.29596" lon="5.84243">
        <ele>1177.4379882812</ele>
        <time>2017-12-17T10:40:48Z</time>
      </trkpt>
      <trkpt lat="45.29592" lon="5.84247">
        <ele>1175.4379882812</ele>
        <time>2017-12-17T10:40:50Z</time>
      </trkpt>
      <trkpt lat="45.29588" lon="5.84244">
        <ele>1172.4379882812</ele>
        <time>2017-12-17T10:40:52Z</time>
      </trkpt>
      <trkpt lat="45.29582" lon="5.84246">
        <ele>1169.4379882812</ele>
        <time>2017-12-17T10:40:54Z</time>
      </trkpt>
      <trkpt lat="45.29578" lon="5.8425">
        <ele>1167.4379882812</ele>
        <time>2017-12-17T10:40:56Z</time>
      </trkpt>
      <trkpt lat="45.29569" lon="5.84251">
        <ele>1165.4379882812</ele>
        <time>2017-12-17T10:40:58Z</time>
      </trkpt>
      <trkpt lat="45.29557" lon="5.84252">
        <ele>1161.4379882812</ele>
        <time>2017-12-17T10:41:01Z</time>
      </trkpt>
      <trkpt lat="45.2955" lon="5.84249">
        <ele>1159.4379882812</ele>
        <time>2017-12-17T10:41:03Z</time>
      </trkpt>
      <trkpt lat="45.29537" lon="5.84249">
        <ele>1155.4379882812</ele>
        <time>2017-12-17T10:41:06Z</time>
      </trkpt>
      <trkpt lat="45.29527" lon="5.84252">
        <ele>1154.4379882812</ele>
        <time>2017-12-17T10:41:08Z</time>
      </trkpt>
      <trkpt lat="45.29523" lon="5.84248">
        <ele>1152.4379882812</ele>
        <time>2017-12-17T10:41:10Z</time>
      </trkpt>
      <trkpt lat="45.29519" lon="5.84244">
        <ele>1149.4379882812</ele>
        <time>2017-12-17T10:41:12Z</time>
      </trkpt>
      <trkpt lat="45.29512" lon="5.84243">
        <ele>1151.4379882812</ele>
        <time>2017-12-17T10:41:15Z</time>
      </trkpt>
      <trkpt lat="45.29499" lon="5.84241">
        <ele>1148.4379882812</ele>
        <time>2017-12-17T10:41:18Z</time>
      </trkpt>
      <trkpt lat="45.29495" lon="5.84239">
        <ele>1148.4379882812</ele>
        <time>2017-12-17T10:41:20Z</time>
      </trkpt>
      <trkpt lat="45.2949" lon="5.84239">
        <ele>1146.4379882812</ele>
        <time>2017-12-17T10:41:22Z</time>
      </trkpt>
      <trkpt lat="45.29486" lon="5.84238">
        <ele>1143.4379882812</ele>
        <time>2017-12-17T10:41:26Z</time>
      </trkpt>
      <trkpt lat="45.2948" lon="5.84239">
        <ele>1141.4379882812</ele>
        <time>2017-12-17T10:41:28Z</time>
      </trkpt>
      <trkpt lat="45.29475" lon="5.84239">
        <ele>1140.4379882812</ele>
        <time>2017-12-17T10:41:30Z</time>
      </trkpt>
      <trkpt lat="45.29465" lon="5.8424">
        <ele>1135.4379882812</ele>
        <time>2017-12-17T10:41:34Z</time>
      </trkpt>
      <trkpt lat="45.29458" lon="5.84241">
        <ele>1130.4379882812</ele>
        <time>2017-12-17T10:41:38Z</time>
      </trkpt>
      <trkpt lat="45.29452" lon="5.84241">
        <ele>1129.4379882812</ele>
        <time>2017-12-17T10:41:40Z</time>
      </trkpt>
      <trkpt lat="45.29445" lon="5.8424">
        <ele>1126.4379882812</ele>
        <time>2017-12-17T10:41:42Z</time>
      </trkpt>
      <trkpt lat="45.29431" lon="5.84235">
        <ele>1124.4379882812</ele>
        <time>2017-12-17T10:41:44Z</time>
      </trkpt>
      <trkpt lat="45.29421" lon="5.84235">
        <ele>1122.4379882812</ele>
        <time>2017-12-17T10:41:45Z</time>
      </trkpt>
      <trkpt lat="45.29407" lon="5.84234">
        <ele>1123.4370117188</ele>
        <time>2017-12-17T10:41:47Z</time>
      </trkpt>
      <trkpt lat="45.29388" lon="5.8423">
        <ele>1120.4370117188</ele>
        <time>2017-12-17T10:41:50Z</time>
      </trkpt>
      <trkpt lat="45.29369" lon="5.84228">
        <ele>1119.4370117188</ele>
        <time>2017-12-17T10:41:52Z</time>
      </trkpt>
      <trkpt lat="45.29363" lon="5.84224">
        <ele>1118.4370117188</ele>
        <time>2017-12-17T10:41:53Z</time>
      </trkpt>
      <trkpt lat="45.29355" lon="5.84226">
        <ele>1117.4370117188</ele>
        <time>2017-12-17T10:41:55Z</time>
      </trkpt>
      <trkpt lat="45.29352" lon="5.84221">
        <ele>1121.4370117188</ele>
        <time>2017-12-17T10:42:03Z</time>
      </trkpt>
      <trkpt lat="45.29346" lon="5.84219">
        <ele>1118.4370117188</ele>
        <time>2017-12-17T10:42:09Z</time>
      </trkpt>
      <trkpt lat="45.29341" lon="5.84219">
        <ele>1120.4370117188</ele>
        <time>2017-12-17T10:42:13Z</time>
      </trkpt>
      <trkpt lat="45.29336" lon="5.84217">
        <ele>1116.4370117188</ele>
        <time>2017-12-17T10:42:18Z</time>
      </trkpt>
      <trkpt lat="45.29331" lon="5.84213">
        <ele>1118.4370117188</ele>
        <time>2017-12-17T10:42:26Z</time>
      </trkpt>
      <trkpt lat="45.29326" lon="5.84216">
        <ele>1117.4370117188</ele>
        <time>2017-12-17T10:42:30Z</time>
      </trkpt>
      <trkpt lat="45.2932" lon="5.84215">
        <ele>1117.4370117188</ele>
        <time>2017-12-17T10:42:33Z</time>
      </trkpt>
      <trkpt lat="45.29315" lon="5.84215">
        <ele>1118.4370117188</ele>
        <time>2017-12-17T10:42:37Z</time>
      </trkpt>
      <trkpt lat="45.2931" lon="5.84215">
        <ele>1116.4370117188</ele>
        <time>2017-12-17T10:42:40Z</time>
      </trkpt>
      <trkpt lat="45.29307" lon="5.84219">
        <ele>1109.4370117188</ele>
        <time>2017-12-17T10:42:46Z</time>
      </trkpt>
      <trkpt lat="45.29302" lon="5.8422">
        <ele>1108.4370117188</ele>
        <time>2017-12-17T10:42:54Z</time>
      </trkpt>
      <trkpt lat="45.29297" lon="5.84225">
        <ele>1109.4370117188</ele>
        <time>2017-12-17T10:44:15Z</time>
      </trkpt>
      <trkpt lat="45.29286" lon="5.84244">
        <ele>1106.4370117188</ele>
        <time>2017-12-17T10:44:17Z</time>
      </trkpt>
      <trkpt lat="45.2928" lon="5.84253">
        <ele>1106.4370117188</ele>
        <time>2017-12-17T10:44:18Z</time>
      </trkpt>
      <trkpt lat="45.29266" lon="5.84275">
        <ele>1103.4370117188</ele>
        <time>2017-12-17T10:44:21Z</time>
      </trkpt>
      <trkpt lat="45.29258" lon="5.84288">
        <ele>1100.4370117188</ele>
        <time>2017-12-17T10:44:23Z</time>
      </trkpt>
      <trkpt lat="45.29248" lon="5.84304">
        <ele>1095.4370117188</ele>
        <time>2017-12-17T10:44:25Z</time>
      </trkpt>
      <trkpt lat="45.29238" lon="5.84321">
        <ele>1093.4370117188</ele>
        <time>2017-12-17T10:44:27Z</time>
      </trkpt>
      <trkpt lat="45.29232" lon="5.84335">
        <ele>1090.4370117188</ele>
        <time>2017-12-17T10:44:29Z</time>
      </trkpt>
      <trkpt lat="45.29224" lon="5.84352">
        <ele>1087.4370117188</ele>
        <time>2017-12-17T10:44:31Z</time>
      </trkpt>
      <trkpt lat="45.29218" lon="5.8437">
        <ele>1085.4370117188</ele>
        <time>2017-12-17T10:44:33Z</time>
      </trkpt>
      <trkpt lat="45.29213" lon="5.8439">
        <ele>1083.4370117188</ele>
        <time>2017-12-17T10:44:35Z</time>
      </trkpt>
      <trkpt lat="45.29208" lon="5.84408">
        <ele>1080.4370117188</ele>
        <time>2017-12-17T10:44:37Z</time>
      </trkpt>
      <trkpt lat="45.29204" lon="5.84424">
        <ele>1079.4370117188</ele>
        <time>2017-12-17T10:44:39Z</time>
      </trkpt>
      <trkpt lat="45.29202" lon="5.84439">
        <ele>1075.4370117188</ele>
        <time>2017-12-17T10:44:41Z</time>
      </trkpt>
      <trkpt lat="45.29198" lon="5.84456">
        <ele>1072.4370117188</ele>
        <time>2017-12-17T10:44:43Z</time>
      </trkpt>
      <trkpt lat="45.29196" lon="5.84474">
        <ele>1070.4370117188</ele>
        <time>2017-12-17T10:44:45Z</time>
      </trkpt>
      <trkpt lat="45.29192" lon="5.84492">
        <ele>1071.4370117188</ele>
        <time>2017-12-17T10:44:47Z</time>
      </trkpt>
      <trkpt lat="45.29186" lon="5.84521">
        <ele>1069.4370117188</ele>
        <time>2017-12-17T10:44:50Z</time>
      </trkpt>
      <trkpt lat="45.29182" lon="5.84536">
        <ele>1069.4370117188</ele>
        <time>2017-12-17T10:44:52Z</time>
      </trkpt>
      <trkpt lat="45.29177" lon="5.8455">
        <ele>1069.4370117188</ele>
        <time>2017-12-17T10:44:54Z</time>
      </trkpt>
      <trkpt lat="45.29183" lon="5.84552">
        <ele>1064.4370117188</ele>
        <time>2017-12-17T10:44:55Z</time>
      </trkpt>
      <trkpt lat="45.29181" lon="5.84558">
        <ele>1064.4370117188</ele>
        <time>2017-12-17T10:44:57Z</time>
      </trkpt>
      <trkpt lat="45.29182" lon="5.84567">
        <ele>1061.4370117188</ele>
        <time>2017-12-17T10:45:03Z</time>
      </trkpt>
      <trkpt lat="45.29182" lon="5.84575">
        <ele>1060.4370117188</ele>
        <time>2017-12-17T10:45:06Z</time>
      </trkpt>
      <trkpt lat="45.29182" lon="5.84583">
        <ele>1058.4370117188</ele>
        <time>2017-12-17T10:45:10Z</time>
      </trkpt>
      <trkpt lat="45.29176" lon="5.84586">
        <ele>1049.4370117188</ele>
        <time>2017-12-17T10:45:19Z</time>
      </trkpt>
      <trkpt lat="45.29172" lon="5.84589">
        <ele>1045.4370117188</ele>
        <time>2017-12-17T10:45:22Z</time>
      </trkpt>
      <trkpt lat="45.29169" lon="5.84584">
        <ele>1043.4370117188</ele>
        <time>2017-12-17T10:45:28Z</time>
      </trkpt>
      <trkpt lat="45.29163" lon="5.84587">
        <ele>1041.4370117188</ele>
        <time>2017-12-17T10:45:32Z</time>
      </trkpt>
      <trkpt lat="45.29158" lon="5.84589">
        <ele>1040.4370117188</ele>
        <time>2017-12-17T10:45:34Z</time>
      </trkpt>
      <trkpt lat="45.29152" lon="5.8459">
        <ele>1039.4370117188</ele>
        <time>2017-12-17T10:45:36Z</time>
      </trkpt>
      <trkpt lat="45.29146" lon="5.84594">
        <ele>1034.4370117188</ele>
        <time>2017-12-17T10:45:39Z</time>
      </trkpt>
      <trkpt lat="45.2914" lon="5.84598">
        <ele>1034.4370117188</ele>
        <time>2017-12-17T10:45:42Z</time>
      </trkpt>
      <trkpt lat="45.29137" lon="5.84604">
        <ele>1034.4370117188</ele>
        <time>2017-12-17T10:45:45Z</time>
      </trkpt>
      <trkpt lat="45.29132" lon="5.84609">
        <ele>1029.4370117188</ele>
        <time>2017-12-17T10:45:53Z</time>
      </trkpt>
      <trkpt lat="45.29128" lon="5.84617">
        <ele>1027.4370117188</ele>
        <time>2017-12-17T10:45:56Z</time>
      </trkpt>
      <trkpt lat="45.29122" lon="5.84619">
        <ele>1026.4370117188</ele>
        <time>2017-12-17T10:45:59Z</time>
      </trkpt>
      <trkpt lat="45.29117" lon="5.84621">
        <ele>1026.4370117188</ele>
        <time>2017-12-17T10:46:02Z</time>
      </trkpt>
      <trkpt lat="45.29111" lon="5.84623">
        <ele>1025.4370117188</ele>
        <time>2017-12-17T10:46:05Z</time>
      </trkpt>
      <trkpt lat="45.29109" lon="5.84636">
        <ele>1023.4370117188</ele>
        <time>2017-12-17T10:46:11Z</time>
      </trkpt>
      <trkpt lat="45.2911" lon="5.84653">
        <ele>1022.4370117188</ele>
        <time>2017-12-17T10:46:13Z</time>
      </trkpt>
      <trkpt lat="45.29115" lon="5.84668">
        <ele>1017.4370117188</ele>
        <time>2017-12-17T10:46:15Z</time>
      </trkpt>
      <trkpt lat="45.29115" lon="5.84687">
        <ele>1012.4370117188</ele>
        <time>2017-12-17T10:46:17Z</time>
      </trkpt>
      <trkpt lat="45.29115" lon="5.84705">
        <ele>1010.4379882812</ele>
        <time>2017-12-17T10:46:19Z</time>
      </trkpt>
      <trkpt lat="45.29114" lon="5.84729">
        <ele>1008.4379882812</ele>
        <time>2017-12-17T10:46:22Z</time>
      </trkpt>
      <trkpt lat="45.29114" lon="5.84735">
        <ele>1008.4379882812</ele>
        <time>2017-12-17T10:46:24Z</time>
      </trkpt>
      <trkpt lat="45.29116" lon="5.84743">
        <ele>1007.4379882812</ele>
        <time>2017-12-17T10:46:26Z</time>
      </trkpt>
      <trkpt lat="45.29111" lon="5.84741">
        <ele>1003.4379882812</ele>
        <time>2017-12-17T10:46:48Z</time>
      </trkpt>
      <trkpt lat="45.29106" lon="5.84745">
        <ele>1006.4379882812</ele>
        <time>2017-12-17T10:46:52Z</time>
      </trkpt>
      <trkpt lat="45.29107" lon="5.84751">
        <ele>1005.4379882812</ele>
        <time>2017-12-17T10:46:59Z</time>
      </trkpt>
      <trkpt lat="45.29112" lon="5.84751">
        <ele>1006.4379882812</ele>
        <time>2017-12-17T10:47:22Z</time>
      </trkpt>
    </trkseg>
  </trk>
</gpx>